<?xml version="1.0" encoding="UTF-8" standalone="no" ?>
<gpx xmlns="http://www.topografix.com/GPX/1/1" xmlns:xsi="http://www.w3.org/2001/XMLSchema-instance" xsi:schemaLocation="http://www.topografix.com/GPX/1/1 http://www.topografix.com/GPX/1/1/gpx.xsd" version="1.1" creator="VisuGPX - https://www.visugpx.com">
  <metadata>
    <name>Eyriac - Croix du Planas</name>
    <desc><![CDATA[Sur la commune de Dornas, d'Eyriac à Croix du Planas. Retour par la route communale.]]></desc>
  </metadata>
  <trk>
    <name><![CDATA[Eyriac - Croix du Planas]]></name>
    <trkseg>
      <trkpt lat="44.85921" lon="4.3428">
        <ele>841.7</ele>
        <time>2021-07-02T12:17:35Z</time>
      </trkpt>
      <trkpt lat="44.8592" lon="4.34277">
        <ele>841.29</ele>
        <time>2021-07-02T12:17:58Z</time>
      </trkpt>
      <trkpt lat="44.85918" lon="4.34273">
        <ele>840.46</ele>
        <time>2021-07-02T12:18:08Z</time>
      </trkpt>
      <trkpt lat="44.85917" lon="4.3427">
        <ele>840.25</ele>
        <time>2021-07-02T12:18:10Z</time>
      </trkpt>
      <trkpt lat="44.85916" lon="4.34266">
        <ele>840.05</ele>
        <time>2021-07-02T12:18:12Z</time>
      </trkpt>
      <trkpt lat="44.85915" lon="4.34264">
        <ele>839.76</ele>
        <time>2021-07-02T12:18:15Z</time>
      </trkpt>
      <trkpt lat="44.85915" lon="4.34261">
        <ele>839.57</ele>
        <time>2021-07-02T12:18:17Z</time>
      </trkpt>
      <trkpt lat="44.85914" lon="4.34258">
        <ele>839.3</ele>
        <time>2021-07-02T12:18:20Z</time>
      </trkpt>
      <trkpt lat="44.85913" lon="4.34255">
        <ele>839.05</ele>
        <time>2021-07-02T12:18:23Z</time>
      </trkpt>
      <trkpt lat="44.85914" lon="4.34252">
        <ele>838.9</ele>
        <time>2021-07-02T12:18:25Z</time>
      </trkpt>
      <trkpt lat="44.85913" lon="4.34249">
        <ele>838.76</ele>
        <time>2021-07-02T12:18:27Z</time>
      </trkpt>
      <trkpt lat="44.85914" lon="4.34246">
        <ele>838.64</ele>
        <time>2021-07-02T12:18:29Z</time>
      </trkpt>
      <trkpt lat="44.85913" lon="4.34242">
        <ele>838.52</ele>
        <time>2021-07-02T12:18:31Z</time>
      </trkpt>
      <trkpt lat="44.85914" lon="4.34239">
        <ele>838.41</ele>
        <time>2021-07-02T12:18:33Z</time>
      </trkpt>
      <trkpt lat="44.85914" lon="4.34236">
        <ele>838.26</ele>
        <time>2021-07-02T12:18:36Z</time>
      </trkpt>
      <trkpt lat="44.85913" lon="4.34233">
        <ele>838.17</ele>
        <time>2021-07-02T12:18:38Z</time>
      </trkpt>
      <trkpt lat="44.85912" lon="4.3423">
        <ele>838.07</ele>
        <time>2021-07-02T12:18:40Z</time>
      </trkpt>
      <trkpt lat="44.85912" lon="4.34226">
        <ele>837.97</ele>
        <time>2021-07-02T12:18:42Z</time>
      </trkpt>
      <trkpt lat="44.85911" lon="4.34222">
        <ele>837.83</ele>
        <time>2021-07-02T12:18:45Z</time>
      </trkpt>
      <trkpt lat="44.8591" lon="4.34219">
        <ele>837.74</ele>
        <time>2021-07-02T12:18:47Z</time>
      </trkpt>
      <trkpt lat="44.85909" lon="4.34215">
        <ele>837.57</ele>
        <time>2021-07-02T12:18:51Z</time>
      </trkpt>
      <trkpt lat="44.85908" lon="4.34211">
        <ele>837.44</ele>
        <time>2021-07-02T12:18:54Z</time>
      </trkpt>
      <trkpt lat="44.85907" lon="4.34208">
        <ele>837.3</ele>
        <time>2021-07-02T12:18:57Z</time>
      </trkpt>
      <trkpt lat="44.85906" lon="4.34205">
        <ele>837.03</ele>
        <time>2021-07-02T12:19:02Z</time>
      </trkpt>
      <trkpt lat="44.85904" lon="4.34203">
        <ele>836.75</ele>
        <time>2021-07-02T12:19:06Z</time>
      </trkpt>
      <trkpt lat="44.85903" lon="4.34202">
        <ele>836.54</ele>
        <time>2021-07-02T12:19:09Z</time>
      </trkpt>
      <trkpt lat="44.85902" lon="4.34199">
        <ele>836.41</ele>
        <time>2021-07-02T12:19:11Z</time>
      </trkpt>
      <trkpt lat="44.859" lon="4.34196">
        <ele>836.27</ele>
        <time>2021-07-02T12:19:13Z</time>
      </trkpt>
      <trkpt lat="44.85897" lon="4.34194">
        <ele>836.13</ele>
        <time>2021-07-02T12:19:15Z</time>
      </trkpt>
      <trkpt lat="44.85896" lon="4.34192">
        <ele>835.98</ele>
        <time>2021-07-02T12:19:17Z</time>
      </trkpt>
      <trkpt lat="44.85896" lon="4.34188">
        <ele>835.68</ele>
        <time>2021-07-02T12:19:21Z</time>
      </trkpt>
      <trkpt lat="44.85895" lon="4.34186">
        <ele>835.53</ele>
        <time>2021-07-02T12:19:23Z</time>
      </trkpt>
      <trkpt lat="44.85894" lon="4.34183">
        <ele>835.39</ele>
        <time>2021-07-02T12:19:25Z</time>
      </trkpt>
      <trkpt lat="44.85892" lon="4.3418">
        <ele>835.17</ele>
        <time>2021-07-02T12:19:28Z</time>
      </trkpt>
      <trkpt lat="44.85892" lon="4.34177">
        <ele>835.02</ele>
        <time>2021-07-02T12:19:30Z</time>
      </trkpt>
      <trkpt lat="44.85892" lon="4.34175">
        <ele>834.87</ele>
        <time>2021-07-02T12:19:32Z</time>
      </trkpt>
      <trkpt lat="44.85891" lon="4.3417">
        <ele>834.56</ele>
        <time>2021-07-02T12:19:36Z</time>
      </trkpt>
      <trkpt lat="44.85891" lon="4.34167">
        <ele>834.4</ele>
        <time>2021-07-02T12:19:38Z</time>
      </trkpt>
      <trkpt lat="44.85891" lon="4.34164">
        <ele>834.24</ele>
        <time>2021-07-02T12:19:40Z</time>
      </trkpt>
      <trkpt lat="44.85891" lon="4.3416">
        <ele>834.09</ele>
        <time>2021-07-02T12:19:42Z</time>
      </trkpt>
      <trkpt lat="44.8589" lon="4.34156">
        <ele>833.93</ele>
        <time>2021-07-02T12:19:44Z</time>
      </trkpt>
      <trkpt lat="44.85891" lon="4.34153">
        <ele>833.71</ele>
        <time>2021-07-02T12:19:47Z</time>
      </trkpt>
      <trkpt lat="44.85891" lon="4.3415">
        <ele>833.57</ele>
        <time>2021-07-02T12:19:49Z</time>
      </trkpt>
      <trkpt lat="44.85892" lon="4.34147">
        <ele>833.43</ele>
        <time>2021-07-02T12:19:51Z</time>
      </trkpt>
      <trkpt lat="44.85892" lon="4.34144">
        <ele>833.3</ele>
        <time>2021-07-02T12:19:53Z</time>
      </trkpt>
      <trkpt lat="44.85891" lon="4.34141">
        <ele>833.11</ele>
        <time>2021-07-02T12:19:56Z</time>
      </trkpt>
      <trkpt lat="44.85892" lon="4.34137">
        <ele>832.79</ele>
        <time>2021-07-02T12:20:01Z</time>
      </trkpt>
      <trkpt lat="44.85894" lon="4.34135">
        <ele>832.72</ele>
        <time>2021-07-02T12:20:02Z</time>
      </trkpt>
      <trkpt lat="44.85894" lon="4.34131">
        <ele>832.38</ele>
        <time>2021-07-02T12:20:20Z</time>
      </trkpt>
      <trkpt lat="44.85892" lon="4.34128">
        <ele>832.14</ele>
        <time>2021-07-02T12:20:23Z</time>
      </trkpt>
      <trkpt lat="44.85891" lon="4.34126">
        <ele>831.99</ele>
        <time>2021-07-02T12:20:25Z</time>
      </trkpt>
      <trkpt lat="44.8589" lon="4.34123">
        <ele>831.84</ele>
        <time>2021-07-02T12:20:27Z</time>
      </trkpt>
      <trkpt lat="44.8589" lon="4.3412">
        <ele>831.7</ele>
        <time>2021-07-02T12:20:29Z</time>
      </trkpt>
      <trkpt lat="44.85889" lon="4.34117">
        <ele>831.56</ele>
        <time>2021-07-02T12:20:31Z</time>
      </trkpt>
      <trkpt lat="44.85888" lon="4.34115">
        <ele>831.43</ele>
        <time>2021-07-02T12:20:33Z</time>
      </trkpt>
      <trkpt lat="44.85886" lon="4.34112">
        <ele>831.3</ele>
        <time>2021-07-02T12:20:35Z</time>
      </trkpt>
      <trkpt lat="44.85884" lon="4.34109">
        <ele>831.18</ele>
        <time>2021-07-02T12:20:37Z</time>
      </trkpt>
      <trkpt lat="44.85883" lon="4.34107">
        <ele>831.06</ele>
        <time>2021-07-02T12:20:39Z</time>
      </trkpt>
      <trkpt lat="44.85883" lon="4.34101">
        <ele>830.84</ele>
        <time>2021-07-02T12:20:43Z</time>
      </trkpt>
      <trkpt lat="44.85882" lon="4.34098">
        <ele>830.73</ele>
        <time>2021-07-02T12:20:45Z</time>
      </trkpt>
      <trkpt lat="44.85882" lon="4.34094">
        <ele>830.63</ele>
        <time>2021-07-02T12:20:47Z</time>
      </trkpt>
      <trkpt lat="44.8588" lon="4.34091">
        <ele>830.54</ele>
        <time>2021-07-02T12:20:49Z</time>
      </trkpt>
      <trkpt lat="44.8588" lon="4.34087">
        <ele>830.45</ele>
        <time>2021-07-02T12:20:51Z</time>
      </trkpt>
      <trkpt lat="44.85879" lon="4.34083">
        <ele>830.36</ele>
        <time>2021-07-02T12:20:53Z</time>
      </trkpt>
      <trkpt lat="44.85878" lon="4.34079">
        <ele>830.27</ele>
        <time>2021-07-02T12:20:55Z</time>
      </trkpt>
      <trkpt lat="44.85878" lon="4.34076">
        <ele>830.19</ele>
        <time>2021-07-02T12:20:57Z</time>
      </trkpt>
      <trkpt lat="44.85879" lon="4.34073">
        <ele>830.11</ele>
        <time>2021-07-02T12:20:59Z</time>
      </trkpt>
      <trkpt lat="44.8588" lon="4.3407">
        <ele>830.04</ele>
        <time>2021-07-02T12:21:01Z</time>
      </trkpt>
      <trkpt lat="44.85881" lon="4.34066">
        <ele>829.95</ele>
        <time>2021-07-02T12:21:04Z</time>
      </trkpt>
      <trkpt lat="44.85881" lon="4.34062">
        <ele>829.88</ele>
        <time>2021-07-02T12:21:07Z</time>
      </trkpt>
      <trkpt lat="44.85883" lon="4.34059">
        <ele>829.82</ele>
        <time>2021-07-02T12:21:10Z</time>
      </trkpt>
      <trkpt lat="44.85884" lon="4.34056">
        <ele>829.79</ele>
        <time>2021-07-02T12:21:12Z</time>
      </trkpt>
      <trkpt lat="44.85885" lon="4.34053">
        <ele>829.76</ele>
        <time>2021-07-02T12:21:14Z</time>
      </trkpt>
      <trkpt lat="44.85886" lon="4.3405">
        <ele>829.75</ele>
        <time>2021-07-02T12:21:16Z</time>
      </trkpt>
      <trkpt lat="44.85887" lon="4.34047">
        <ele>829.74</ele>
        <time>2021-07-02T12:21:18Z</time>
      </trkpt>
      <trkpt lat="44.85888" lon="4.34044">
        <ele>829.74</ele>
        <time>2021-07-02T12:21:20Z</time>
      </trkpt>
      <trkpt lat="44.8589" lon="4.34043">
        <ele>829.74</ele>
        <time>2021-07-02T12:21:22Z</time>
      </trkpt>
      <trkpt lat="44.85891" lon="4.34041">
        <ele>829.75</ele>
        <time>2021-07-02T12:21:24Z</time>
      </trkpt>
      <trkpt lat="44.85893" lon="4.34038">
        <ele>829.77</ele>
        <time>2021-07-02T12:21:26Z</time>
      </trkpt>
      <trkpt lat="44.85895" lon="4.34036">
        <ele>829.77</ele>
        <time>2021-07-02T12:21:28Z</time>
      </trkpt>
      <trkpt lat="44.85897" lon="4.34035">
        <ele>829.78</ele>
        <time>2021-07-02T12:21:31Z</time>
      </trkpt>
      <trkpt lat="44.85897" lon="4.34031">
        <ele>829.79</ele>
        <time>2021-07-02T12:21:33Z</time>
      </trkpt>
      <trkpt lat="44.85898" lon="4.34027">
        <ele>829.81</ele>
        <time>2021-07-02T12:21:36Z</time>
      </trkpt>
      <trkpt lat="44.85897" lon="4.34024">
        <ele>829.82</ele>
        <time>2021-07-02T12:21:38Z</time>
      </trkpt>
      <trkpt lat="44.85896" lon="4.34021">
        <ele>829.83</ele>
        <time>2021-07-02T12:21:40Z</time>
      </trkpt>
      <trkpt lat="44.85896" lon="4.34018">
        <ele>829.83</ele>
        <time>2021-07-02T12:21:42Z</time>
      </trkpt>
      <trkpt lat="44.85894" lon="4.34016">
        <ele>829.85</ele>
        <time>2021-07-02T12:21:46Z</time>
      </trkpt>
      <trkpt lat="44.85892" lon="4.34013">
        <ele>829.87</ele>
        <time>2021-07-02T12:21:50Z</time>
      </trkpt>
      <trkpt lat="44.85891" lon="4.3401">
        <ele>829.89</ele>
        <time>2021-07-02T12:21:54Z</time>
      </trkpt>
      <trkpt lat="44.85888" lon="4.34008">
        <ele>829.9</ele>
        <time>2021-07-02T12:21:58Z</time>
      </trkpt>
      <trkpt lat="44.85887" lon="4.34006">
        <ele>829.92</ele>
        <time>2021-07-02T12:22:03Z</time>
      </trkpt>
      <trkpt lat="44.85884" lon="4.34004">
        <ele>829.93</ele>
        <time>2021-07-02T12:22:05Z</time>
      </trkpt>
      <trkpt lat="44.85883" lon="4.34002">
        <ele>829.94</ele>
        <time>2021-07-02T12:22:06Z</time>
      </trkpt>
      <trkpt lat="44.85881" lon="4.34">
        <ele>829.94</ele>
        <time>2021-07-02T12:22:08Z</time>
      </trkpt>
      <trkpt lat="44.85879" lon="4.33997">
        <ele>829.95</ele>
        <time>2021-07-02T12:22:10Z</time>
      </trkpt>
      <trkpt lat="44.85877" lon="4.33995">
        <ele>829.95</ele>
        <time>2021-07-02T12:22:12Z</time>
      </trkpt>
      <trkpt lat="44.85875" lon="4.33993">
        <ele>829.95</ele>
        <time>2021-07-02T12:22:14Z</time>
      </trkpt>
      <trkpt lat="44.85873" lon="4.33991">
        <ele>829.95</ele>
        <time>2021-07-02T12:22:17Z</time>
      </trkpt>
      <trkpt lat="44.85871" lon="4.33989">
        <ele>829.95</ele>
        <time>2021-07-02T12:22:20Z</time>
      </trkpt>
      <trkpt lat="44.85869" lon="4.33988">
        <ele>829.95</ele>
        <time>2021-07-02T12:22:22Z</time>
      </trkpt>
      <trkpt lat="44.85868" lon="4.33986">
        <ele>829.95</ele>
        <time>2021-07-02T12:22:26Z</time>
      </trkpt>
      <trkpt lat="44.85866" lon="4.33984">
        <ele>829.96</ele>
        <time>2021-07-02T12:22:30Z</time>
      </trkpt>
      <trkpt lat="44.85863" lon="4.33983">
        <ele>829.95</ele>
        <time>2021-07-02T12:22:32Z</time>
      </trkpt>
      <trkpt lat="44.85861" lon="4.33981">
        <ele>829.95</ele>
        <time>2021-07-02T12:22:34Z</time>
      </trkpt>
      <trkpt lat="44.85859" lon="4.33979">
        <ele>829.95</ele>
        <time>2021-07-02T12:22:36Z</time>
      </trkpt>
      <trkpt lat="44.85857" lon="4.33976">
        <ele>829.95</ele>
        <time>2021-07-02T12:22:38Z</time>
      </trkpt>
      <trkpt lat="44.85856" lon="4.33974">
        <ele>829.95</ele>
        <time>2021-07-02T12:22:48Z</time>
      </trkpt>
      <trkpt lat="44.85856" lon="4.33971">
        <ele>829.95</ele>
        <time>2021-07-02T12:22:50Z</time>
      </trkpt>
      <trkpt lat="44.85854" lon="4.33968">
        <ele>829.94</ele>
        <time>2021-07-02T12:22:53Z</time>
      </trkpt>
      <trkpt lat="44.85852" lon="4.33965">
        <ele>829.94</ele>
        <time>2021-07-02T12:22:55Z</time>
      </trkpt>
      <trkpt lat="44.8585" lon="4.33963">
        <ele>829.94</ele>
        <time>2021-07-02T12:22:57Z</time>
      </trkpt>
      <trkpt lat="44.85848" lon="4.33961">
        <ele>829.93</ele>
        <time>2021-07-02T12:23:00Z</time>
      </trkpt>
      <trkpt lat="44.85846" lon="4.33959">
        <ele>829.92</ele>
        <time>2021-07-02T12:23:04Z</time>
      </trkpt>
      <trkpt lat="44.85843" lon="4.33958">
        <ele>829.91</ele>
        <time>2021-07-02T12:23:07Z</time>
      </trkpt>
      <trkpt lat="44.85841" lon="4.33957">
        <ele>829.9</ele>
        <time>2021-07-02T12:23:09Z</time>
      </trkpt>
      <trkpt lat="44.85838" lon="4.33956">
        <ele>829.89</ele>
        <time>2021-07-02T12:23:12Z</time>
      </trkpt>
      <trkpt lat="44.85834" lon="4.33956">
        <ele>829.88</ele>
        <time>2021-07-02T12:23:23Z</time>
      </trkpt>
      <trkpt lat="44.85832" lon="4.33952">
        <ele>829.86</ele>
        <time>2021-07-02T12:23:31Z</time>
      </trkpt>
      <trkpt lat="44.85831" lon="4.3395">
        <ele>829.86</ele>
        <time>2021-07-02T12:23:32Z</time>
      </trkpt>
      <trkpt lat="44.8583" lon="4.33946">
        <ele>829.84</ele>
        <time>2021-07-02T12:23:34Z</time>
      </trkpt>
      <trkpt lat="44.85828" lon="4.33943">
        <ele>829.82</ele>
        <time>2021-07-02T12:23:36Z</time>
      </trkpt>
      <trkpt lat="44.85827" lon="4.33941">
        <ele>829.81</ele>
        <time>2021-07-02T12:23:38Z</time>
      </trkpt>
      <trkpt lat="44.85826" lon="4.33939">
        <ele>829.79</ele>
        <time>2021-07-02T12:23:40Z</time>
      </trkpt>
      <trkpt lat="44.85824" lon="4.33937">
        <ele>829.77</ele>
        <time>2021-07-02T12:23:42Z</time>
      </trkpt>
      <trkpt lat="44.85823" lon="4.33934">
        <ele>829.76</ele>
        <time>2021-07-02T12:23:44Z</time>
      </trkpt>
      <trkpt lat="44.85821" lon="4.33929">
        <ele>829.74</ele>
        <time>2021-07-02T12:23:46Z</time>
      </trkpt>
      <trkpt lat="44.8582" lon="4.33925">
        <ele>829.72</ele>
        <time>2021-07-02T12:23:49Z</time>
      </trkpt>
      <trkpt lat="44.8582" lon="4.33922">
        <ele>829.71</ele>
        <time>2021-07-02T12:23:51Z</time>
      </trkpt>
      <trkpt lat="44.85818" lon="4.3392">
        <ele>829.7</ele>
        <time>2021-07-02T12:23:53Z</time>
      </trkpt>
      <trkpt lat="44.85817" lon="4.33918">
        <ele>829.68</ele>
        <time>2021-07-02T12:23:55Z</time>
      </trkpt>
      <trkpt lat="44.85816" lon="4.33915">
        <ele>829.66</ele>
        <time>2021-07-02T12:23:58Z</time>
      </trkpt>
      <trkpt lat="44.85815" lon="4.3391">
        <ele>829.6</ele>
        <time>2021-07-02T12:24:07Z</time>
      </trkpt>
      <trkpt lat="44.85814" lon="4.33907">
        <ele>829.59</ele>
        <time>2021-07-02T12:24:08Z</time>
      </trkpt>
      <trkpt lat="44.85815" lon="4.33904">
        <ele>829.54</ele>
        <time>2021-07-02T12:24:12Z</time>
      </trkpt>
      <trkpt lat="44.85814" lon="4.339">
        <ele>829.5</ele>
        <time>2021-07-02T12:24:16Z</time>
      </trkpt>
      <trkpt lat="44.85813" lon="4.33897">
        <ele>829.48</ele>
        <time>2021-07-02T12:24:18Z</time>
      </trkpt>
      <trkpt lat="44.85812" lon="4.33894">
        <ele>829.45</ele>
        <time>2021-07-02T12:24:20Z</time>
      </trkpt>
      <trkpt lat="44.85811" lon="4.3389">
        <ele>829.43</ele>
        <time>2021-07-02T12:24:22Z</time>
      </trkpt>
      <trkpt lat="44.85809" lon="4.33887">
        <ele>829.41</ele>
        <time>2021-07-02T12:24:24Z</time>
      </trkpt>
      <trkpt lat="44.85807" lon="4.33884">
        <ele>829.38</ele>
        <time>2021-07-02T12:24:27Z</time>
      </trkpt>
      <trkpt lat="44.85806" lon="4.33881">
        <ele>829.36</ele>
        <time>2021-07-02T12:24:29Z</time>
      </trkpt>
      <trkpt lat="44.85805" lon="4.33877">
        <ele>829.33</ele>
        <time>2021-07-02T12:24:32Z</time>
      </trkpt>
      <trkpt lat="44.85803" lon="4.33874">
        <ele>829.31</ele>
        <time>2021-07-02T12:24:34Z</time>
      </trkpt>
      <trkpt lat="44.858" lon="4.33871">
        <ele>829.27</ele>
        <time>2021-07-02T12:24:38Z</time>
      </trkpt>
      <trkpt lat="44.85799" lon="4.33868">
        <ele>829.26</ele>
        <time>2021-07-02T12:24:40Z</time>
      </trkpt>
      <trkpt lat="44.85796" lon="4.33865">
        <ele>829.23</ele>
        <time>2021-07-02T12:24:43Z</time>
      </trkpt>
      <trkpt lat="44.85795" lon="4.33862">
        <ele>829.21</ele>
        <time>2021-07-02T12:24:46Z</time>
      </trkpt>
      <trkpt lat="44.85793" lon="4.3386">
        <ele>829.2</ele>
        <time>2021-07-02T12:24:48Z</time>
      </trkpt>
      <trkpt lat="44.85793" lon="4.33856">
        <ele>829.19</ele>
        <time>2021-07-02T12:24:51Z</time>
      </trkpt>
      <trkpt lat="44.85792" lon="4.33853">
        <ele>829.18</ele>
        <time>2021-07-02T12:24:53Z</time>
      </trkpt>
      <trkpt lat="44.85791" lon="4.33848">
        <ele>829.17</ele>
        <time>2021-07-02T12:24:55Z</time>
      </trkpt>
      <trkpt lat="44.85791" lon="4.33844">
        <ele>829.17</ele>
        <time>2021-07-02T12:24:56Z</time>
      </trkpt>
      <trkpt lat="44.8579" lon="4.3384">
        <ele>829.16</ele>
        <time>2021-07-02T12:24:58Z</time>
      </trkpt>
      <trkpt lat="44.85789" lon="4.33836">
        <ele>829.15</ele>
        <time>2021-07-02T12:25:00Z</time>
      </trkpt>
      <trkpt lat="44.85788" lon="4.33833">
        <ele>829.14</ele>
        <time>2021-07-02T12:25:02Z</time>
      </trkpt>
      <trkpt lat="44.85787" lon="4.3383">
        <ele>829.13</ele>
        <time>2021-07-02T12:25:04Z</time>
      </trkpt>
      <trkpt lat="44.85786" lon="4.33828">
        <ele>829.13</ele>
        <time>2021-07-02T12:25:06Z</time>
      </trkpt>
      <trkpt lat="44.85784" lon="4.33825">
        <ele>829.12</ele>
        <time>2021-07-02T12:25:09Z</time>
      </trkpt>
      <trkpt lat="44.85784" lon="4.33821">
        <ele>829.11</ele>
        <time>2021-07-02T12:25:11Z</time>
      </trkpt>
      <trkpt lat="44.85783" lon="4.33816">
        <ele>829.1</ele>
        <time>2021-07-02T12:25:13Z</time>
      </trkpt>
      <trkpt lat="44.85783" lon="4.33813">
        <ele>829.1</ele>
        <time>2021-07-02T12:25:14Z</time>
      </trkpt>
      <trkpt lat="44.85782" lon="4.3381">
        <ele>829.09</ele>
        <time>2021-07-02T12:25:16Z</time>
      </trkpt>
      <trkpt lat="44.85781" lon="4.33806">
        <ele>829.09</ele>
        <time>2021-07-02T12:25:18Z</time>
      </trkpt>
      <trkpt lat="44.8578" lon="4.33803">
        <ele>829.08</ele>
        <time>2021-07-02T12:25:20Z</time>
      </trkpt>
      <trkpt lat="44.85779" lon="4.33801">
        <ele>829.06</ele>
        <time>2021-07-02T12:25:23Z</time>
      </trkpt>
      <trkpt lat="44.85777" lon="4.33797">
        <ele>829.05</ele>
        <time>2021-07-02T12:25:25Z</time>
      </trkpt>
      <trkpt lat="44.85776" lon="4.33794">
        <ele>829.04</ele>
        <time>2021-07-02T12:25:27Z</time>
      </trkpt>
      <trkpt lat="44.85776" lon="4.33791">
        <ele>829.02</ele>
        <time>2021-07-02T12:25:30Z</time>
      </trkpt>
      <trkpt lat="44.85776" lon="4.33787">
        <ele>829.01</ele>
        <time>2021-07-02T12:25:33Z</time>
      </trkpt>
      <trkpt lat="44.85776" lon="4.33784">
        <ele>829</ele>
        <time>2021-07-02T12:25:35Z</time>
      </trkpt>
      <trkpt lat="44.85776" lon="4.33781">
        <ele>828.99</ele>
        <time>2021-07-02T12:25:37Z</time>
      </trkpt>
      <trkpt lat="44.85776" lon="4.33777">
        <ele>828.97</ele>
        <time>2021-07-02T12:25:39Z</time>
      </trkpt>
      <trkpt lat="44.85777" lon="4.33774">
        <ele>828.96</ele>
        <time>2021-07-02T12:25:42Z</time>
      </trkpt>
      <trkpt lat="44.85777" lon="4.3377">
        <ele>828.94</ele>
        <time>2021-07-02T12:25:45Z</time>
      </trkpt>
      <trkpt lat="44.85776" lon="4.33766">
        <ele>828.92</ele>
        <time>2021-07-02T12:25:48Z</time>
      </trkpt>
      <trkpt lat="44.85777" lon="4.33762">
        <ele>828.89</ele>
        <time>2021-07-02T12:25:52Z</time>
      </trkpt>
      <trkpt lat="44.85777" lon="4.33759">
        <ele>828.87</ele>
        <time>2021-07-02T12:25:54Z</time>
      </trkpt>
      <trkpt lat="44.85777" lon="4.33756">
        <ele>828.86</ele>
        <time>2021-07-02T12:25:56Z</time>
      </trkpt>
      <trkpt lat="44.85777" lon="4.33753">
        <ele>828.84</ele>
        <time>2021-07-02T12:25:58Z</time>
      </trkpt>
      <trkpt lat="44.85776" lon="4.33749">
        <ele>828.82</ele>
        <time>2021-07-02T12:26:08Z</time>
      </trkpt>
      <trkpt lat="44.85777" lon="4.33745">
        <ele>828.8</ele>
        <time>2021-07-02T12:26:11Z</time>
      </trkpt>
      <trkpt lat="44.85776" lon="4.33742">
        <ele>828.79</ele>
        <time>2021-07-02T12:26:13Z</time>
      </trkpt>
      <trkpt lat="44.85777" lon="4.33738">
        <ele>828.78</ele>
        <time>2021-07-02T12:26:17Z</time>
      </trkpt>
      <trkpt lat="44.85777" lon="4.33735">
        <ele>828.76</ele>
        <time>2021-07-02T12:26:19Z</time>
      </trkpt>
      <trkpt lat="44.85777" lon="4.33733">
        <ele>828.75</ele>
        <time>2021-07-02T12:26:21Z</time>
      </trkpt>
      <trkpt lat="44.85778" lon="4.3373">
        <ele>828.74</ele>
        <time>2021-07-02T12:26:23Z</time>
      </trkpt>
      <trkpt lat="44.85779" lon="4.33727">
        <ele>828.74</ele>
        <time>2021-07-02T12:26:25Z</time>
      </trkpt>
      <trkpt lat="44.8578" lon="4.33724">
        <ele>828.73</ele>
        <time>2021-07-02T12:26:28Z</time>
      </trkpt>
      <trkpt lat="44.85781" lon="4.33721">
        <ele>828.71</ele>
        <time>2021-07-02T12:26:31Z</time>
      </trkpt>
      <trkpt lat="44.85781" lon="4.33718">
        <ele>828.71</ele>
        <time>2021-07-02T12:26:33Z</time>
      </trkpt>
      <trkpt lat="44.85783" lon="4.33716">
        <ele>828.7</ele>
        <time>2021-07-02T12:26:35Z</time>
      </trkpt>
      <trkpt lat="44.85785" lon="4.33715">
        <ele>828.69</ele>
        <time>2021-07-02T12:26:37Z</time>
      </trkpt>
      <trkpt lat="44.85785" lon="4.33712">
        <ele>828.69</ele>
        <time>2021-07-02T12:26:39Z</time>
      </trkpt>
      <trkpt lat="44.85784" lon="4.33709">
        <ele>828.68</ele>
        <time>2021-07-02T12:26:41Z</time>
      </trkpt>
      <trkpt lat="44.85783" lon="4.33707">
        <ele>828.67</ele>
        <time>2021-07-02T12:26:44Z</time>
      </trkpt>
      <trkpt lat="44.85784" lon="4.33704">
        <ele>828.66</ele>
        <time>2021-07-02T12:26:48Z</time>
      </trkpt>
      <trkpt lat="44.85783" lon="4.337">
        <ele>828.63</ele>
        <time>2021-07-02T12:26:56Z</time>
      </trkpt>
      <trkpt lat="44.85782" lon="4.33698">
        <ele>828.62</ele>
        <time>2021-07-02T12:26:58Z</time>
      </trkpt>
      <trkpt lat="44.8578" lon="4.33694">
        <ele>828.61</ele>
        <time>2021-07-02T12:27:01Z</time>
      </trkpt>
      <trkpt lat="44.85779" lon="4.33692">
        <ele>828.61</ele>
        <time>2021-07-02T12:27:02Z</time>
      </trkpt>
      <trkpt lat="44.85778" lon="4.33688">
        <ele>828.6</ele>
        <time>2021-07-02T12:27:04Z</time>
      </trkpt>
      <trkpt lat="44.85778" lon="4.33685">
        <ele>828.59</ele>
        <time>2021-07-02T12:27:06Z</time>
      </trkpt>
      <trkpt lat="44.85778" lon="4.33682">
        <ele>828.55</ele>
        <time>2021-07-02T12:27:13Z</time>
      </trkpt>
      <trkpt lat="44.85779" lon="4.33676">
        <ele>828.51</ele>
        <time>2021-07-02T12:27:24Z</time>
      </trkpt>
      <trkpt lat="44.85778" lon="4.33673">
        <ele>828.51</ele>
        <time>2021-07-02T12:27:25Z</time>
      </trkpt>
      <trkpt lat="44.85776" lon="4.3367">
        <ele>828.5</ele>
        <time>2021-07-02T12:27:27Z</time>
      </trkpt>
      <trkpt lat="44.85775" lon="4.33667">
        <ele>828.48</ele>
        <time>2021-07-02T12:27:30Z</time>
      </trkpt>
      <trkpt lat="44.85775" lon="4.33664">
        <ele>828.47</ele>
        <time>2021-07-02T12:27:33Z</time>
      </trkpt>
      <trkpt lat="44.85776" lon="4.3366">
        <ele>828.47</ele>
        <time>2021-07-02T12:27:36Z</time>
      </trkpt>
      <trkpt lat="44.85776" lon="4.33656">
        <ele>828.45</ele>
        <time>2021-07-02T12:27:41Z</time>
      </trkpt>
      <trkpt lat="44.85776" lon="4.33652">
        <ele>828.44</ele>
        <time>2021-07-02T12:27:43Z</time>
      </trkpt>
      <trkpt lat="44.85777" lon="4.33649">
        <ele>828.44</ele>
        <time>2021-07-02T12:27:45Z</time>
      </trkpt>
      <trkpt lat="44.85778" lon="4.33646">
        <ele>828.43</ele>
        <time>2021-07-02T12:27:47Z</time>
      </trkpt>
      <trkpt lat="44.85779" lon="4.33642">
        <ele>828.42</ele>
        <time>2021-07-02T12:27:50Z</time>
      </trkpt>
      <trkpt lat="44.85779" lon="4.33638">
        <ele>828.42</ele>
        <time>2021-07-02T12:27:52Z</time>
      </trkpt>
      <trkpt lat="44.8578" lon="4.33633">
        <ele>828.41</ele>
        <time>2021-07-02T12:27:55Z</time>
      </trkpt>
      <trkpt lat="44.8578" lon="4.33629">
        <ele>828.4</ele>
        <time>2021-07-02T12:27:59Z</time>
      </trkpt>
      <trkpt lat="44.8578" lon="4.33626">
        <ele>828.4</ele>
        <time>2021-07-02T12:28:02Z</time>
      </trkpt>
      <trkpt lat="44.85782" lon="4.33622">
        <ele>828.39</ele>
        <time>2021-07-02T12:28:06Z</time>
      </trkpt>
      <trkpt lat="44.85782" lon="4.33619">
        <ele>828.39</ele>
        <time>2021-07-02T12:28:08Z</time>
      </trkpt>
      <trkpt lat="44.85784" lon="4.33615">
        <ele>828.39</ele>
        <time>2021-07-02T12:28:10Z</time>
      </trkpt>
      <trkpt lat="44.85785" lon="4.33613">
        <ele>828.39</ele>
        <time>2021-07-02T12:28:12Z</time>
      </trkpt>
      <trkpt lat="44.85786" lon="4.33611">
        <ele>828.39</ele>
        <time>2021-07-02T12:28:15Z</time>
      </trkpt>
      <trkpt lat="44.85787" lon="4.33607">
        <ele>828.4</ele>
        <time>2021-07-02T12:28:17Z</time>
      </trkpt>
      <trkpt lat="44.85786" lon="4.33604">
        <ele>828.4</ele>
        <time>2021-07-02T12:28:19Z</time>
      </trkpt>
      <trkpt lat="44.85786" lon="4.336">
        <ele>828.4</ele>
        <time>2021-07-02T12:28:22Z</time>
      </trkpt>
      <trkpt lat="44.85784" lon="4.33596">
        <ele>828.41</ele>
        <time>2021-07-02T12:28:26Z</time>
      </trkpt>
      <trkpt lat="44.85783" lon="4.33593">
        <ele>828.41</ele>
        <time>2021-07-02T12:28:30Z</time>
      </trkpt>
      <trkpt lat="44.85782" lon="4.33589">
        <ele>828.41</ele>
        <time>2021-07-02T12:28:32Z</time>
      </trkpt>
      <trkpt lat="44.8578" lon="4.33586">
        <ele>828.41</ele>
        <time>2021-07-02T12:28:34Z</time>
      </trkpt>
      <trkpt lat="44.8578" lon="4.33582">
        <ele>828.42</ele>
        <time>2021-07-02T12:28:36Z</time>
      </trkpt>
      <trkpt lat="44.85779" lon="4.33579">
        <ele>828.42</ele>
        <time>2021-07-02T12:28:39Z</time>
      </trkpt>
      <trkpt lat="44.85778" lon="4.33573">
        <ele>828.42</ele>
        <time>2021-07-02T12:28:42Z</time>
      </trkpt>
      <trkpt lat="44.85777" lon="4.3357">
        <ele>828.42</ele>
        <time>2021-07-02T12:28:44Z</time>
      </trkpt>
      <trkpt lat="44.85775" lon="4.33566">
        <ele>828.43</ele>
        <time>2021-07-02T12:28:47Z</time>
      </trkpt>
      <trkpt lat="44.85773" lon="4.33564">
        <ele>828.43</ele>
        <time>2021-07-02T12:28:50Z</time>
      </trkpt>
      <trkpt lat="44.85772" lon="4.3356">
        <ele>828.42</ele>
        <time>2021-07-02T12:29:02Z</time>
      </trkpt>
      <trkpt lat="44.85771" lon="4.33558">
        <ele>828.41</ele>
        <time>2021-07-02T12:29:06Z</time>
      </trkpt>
      <trkpt lat="44.85769" lon="4.33555">
        <ele>828.41</ele>
        <time>2021-07-02T12:29:08Z</time>
      </trkpt>
      <trkpt lat="44.85767" lon="4.33551">
        <ele>828.4</ele>
        <time>2021-07-02T12:29:11Z</time>
      </trkpt>
      <trkpt lat="44.85767" lon="4.33548">
        <ele>828.4</ele>
        <time>2021-07-02T12:29:12Z</time>
      </trkpt>
      <trkpt lat="44.85764" lon="4.33543">
        <ele>828.39</ele>
        <time>2021-07-02T12:29:14Z</time>
      </trkpt>
      <trkpt lat="44.85763" lon="4.33541">
        <ele>828.39</ele>
        <time>2021-07-02T12:29:15Z</time>
      </trkpt>
      <trkpt lat="44.85763" lon="4.33538">
        <ele>828.39</ele>
        <time>2021-07-02T12:29:16Z</time>
      </trkpt>
      <trkpt lat="44.85762" lon="4.33535">
        <ele>828.38</ele>
        <time>2021-07-02T12:29:19Z</time>
      </trkpt>
      <trkpt lat="44.85761" lon="4.33532">
        <ele>828.38</ele>
        <time>2021-07-02T12:29:22Z</time>
      </trkpt>
      <trkpt lat="44.85759" lon="4.33529">
        <ele>828.38</ele>
        <time>2021-07-02T12:29:26Z</time>
      </trkpt>
      <trkpt lat="44.85758" lon="4.33527">
        <ele>828.38</ele>
        <time>2021-07-02T12:29:28Z</time>
      </trkpt>
      <trkpt lat="44.85756" lon="4.33524">
        <ele>828.37</ele>
        <time>2021-07-02T12:29:31Z</time>
      </trkpt>
      <trkpt lat="44.85755" lon="4.33522">
        <ele>828.37</ele>
        <time>2021-07-02T12:29:34Z</time>
      </trkpt>
      <trkpt lat="44.85754" lon="4.33519">
        <ele>828.37</ele>
        <time>2021-07-02T12:29:36Z</time>
      </trkpt>
      <trkpt lat="44.85753" lon="4.33516">
        <ele>828.37</ele>
        <time>2021-07-02T12:29:37Z</time>
      </trkpt>
      <trkpt lat="44.85752" lon="4.33513">
        <ele>828.37</ele>
        <time>2021-07-02T12:29:38Z</time>
      </trkpt>
      <trkpt lat="44.85751" lon="4.33511">
        <ele>828.36</ele>
        <time>2021-07-02T12:29:40Z</time>
      </trkpt>
      <trkpt lat="44.8575" lon="4.33507">
        <ele>828.36</ele>
        <time>2021-07-02T12:29:42Z</time>
      </trkpt>
      <trkpt lat="44.85748" lon="4.33503">
        <ele>828.36</ele>
        <time>2021-07-02T12:29:44Z</time>
      </trkpt>
      <trkpt lat="44.85747" lon="4.33501">
        <ele>828.36</ele>
        <time>2021-07-02T12:29:46Z</time>
      </trkpt>
      <trkpt lat="44.85746" lon="4.33498">
        <ele>828.36</ele>
        <time>2021-07-02T12:29:48Z</time>
      </trkpt>
      <trkpt lat="44.85744" lon="4.33496">
        <ele>828.36</ele>
        <time>2021-07-02T12:29:49Z</time>
      </trkpt>
      <trkpt lat="44.85742" lon="4.33493">
        <ele>828.36</ele>
        <time>2021-07-02T12:29:52Z</time>
      </trkpt>
      <trkpt lat="44.8574" lon="4.33489">
        <ele>828.35</ele>
        <time>2021-07-02T12:29:56Z</time>
      </trkpt>
      <trkpt lat="44.85739" lon="4.33487">
        <ele>828.35</ele>
        <time>2021-07-02T12:29:58Z</time>
      </trkpt>
      <trkpt lat="44.85737" lon="4.33485">
        <ele>828.35</ele>
        <time>2021-07-02T12:29:59Z</time>
      </trkpt>
      <trkpt lat="44.85735" lon="4.33482">
        <ele>828.35</ele>
        <time>2021-07-02T12:30:02Z</time>
      </trkpt>
      <trkpt lat="44.85733" lon="4.33479">
        <ele>828.35</ele>
        <time>2021-07-02T12:30:04Z</time>
      </trkpt>
      <trkpt lat="44.85731" lon="4.33477">
        <ele>828.34</ele>
        <time>2021-07-02T12:30:06Z</time>
      </trkpt>
      <trkpt lat="44.8573" lon="4.33475">
        <ele>828.34</ele>
        <time>2021-07-02T12:30:08Z</time>
      </trkpt>
      <trkpt lat="44.85728" lon="4.33473">
        <ele>828.33</ele>
        <time>2021-07-02T12:30:09Z</time>
      </trkpt>
      <trkpt lat="44.85727" lon="4.33467">
        <ele>828.33</ele>
        <time>2021-07-02T12:30:10Z</time>
      </trkpt>
      <trkpt lat="44.85726" lon="4.33462">
        <ele>828.32</ele>
        <time>2021-07-02T12:30:13Z</time>
      </trkpt>
      <trkpt lat="44.85727" lon="4.33458">
        <ele>828.31</ele>
        <time>2021-07-02T12:30:16Z</time>
      </trkpt>
      <trkpt lat="44.85727" lon="4.33455">
        <ele>828.3</ele>
        <time>2021-07-02T12:30:18Z</time>
      </trkpt>
      <trkpt lat="44.85732" lon="4.3345">
        <ele>828.28</ele>
        <time>2021-07-02T12:30:23Z</time>
      </trkpt>
      <trkpt lat="44.85736" lon="4.33447">
        <ele>828.26</ele>
        <time>2021-07-02T12:30:27Z</time>
      </trkpt>
      <trkpt lat="44.85739" lon="4.3345">
        <ele>828.25</ele>
        <time>2021-07-02T12:30:28Z</time>
      </trkpt>
      <trkpt lat="44.85743" lon="4.3345">
        <ele>828.24</ele>
        <time>2021-07-02T12:30:30Z</time>
      </trkpt>
      <trkpt lat="44.85743" lon="4.33446">
        <ele>828.18</ele>
        <time>2021-07-02T12:30:51Z</time>
      </trkpt>
      <trkpt lat="44.85744" lon="4.33455">
        <ele>828.01</ele>
        <time>2021-07-02T12:31:25Z</time>
      </trkpt>
      <trkpt lat="44.85742" lon="4.33453">
        <ele>828</ele>
        <time>2021-07-02T12:31:28Z</time>
      </trkpt>
      <trkpt lat="44.8574" lon="4.33452">
        <ele>827.95</ele>
        <time>2021-07-02T12:31:39Z</time>
      </trkpt>
      <trkpt lat="44.85738" lon="4.33452">
        <ele>827.93</ele>
        <time>2021-07-02T12:31:44Z</time>
      </trkpt>
      <trkpt lat="44.85735" lon="4.33453">
        <ele>827.86</ele>
        <time>2021-07-02T12:31:58Z</time>
      </trkpt>
      <trkpt lat="44.85732" lon="4.33454">
        <ele>827.84</ele>
        <time>2021-07-02T12:32:02Z</time>
      </trkpt>
      <trkpt lat="44.8573" lon="4.33455">
        <ele>827.82</ele>
        <time>2021-07-02T12:32:08Z</time>
      </trkpt>
      <trkpt lat="44.85727" lon="4.33456">
        <ele>827.81</ele>
        <time>2021-07-02T12:32:11Z</time>
      </trkpt>
      <trkpt lat="44.85725" lon="4.33458">
        <ele>827.8</ele>
        <time>2021-07-02T12:32:14Z</time>
      </trkpt>
      <trkpt lat="44.85724" lon="4.33461">
        <ele>827.8</ele>
        <time>2021-07-02T12:32:16Z</time>
      </trkpt>
      <trkpt lat="44.85723" lon="4.33464">
        <ele>827.8</ele>
        <time>2021-07-02T12:32:18Z</time>
      </trkpt>
      <trkpt lat="44.85721" lon="4.33466">
        <ele>827.79</ele>
        <time>2021-07-02T12:32:20Z</time>
      </trkpt>
      <trkpt lat="44.85719" lon="4.33467">
        <ele>827.79</ele>
        <time>2021-07-02T12:32:24Z</time>
      </trkpt>
      <trkpt lat="44.85717" lon="4.33468">
        <ele>827.79</ele>
        <time>2021-07-02T12:32:25Z</time>
      </trkpt>
      <trkpt lat="44.85714" lon="4.3347">
        <ele>827.79</ele>
        <time>2021-07-02T12:32:27Z</time>
      </trkpt>
      <trkpt lat="44.85714" lon="4.33473">
        <ele>827.79</ele>
        <time>2021-07-02T12:32:31Z</time>
      </trkpt>
      <trkpt lat="44.85712" lon="4.33477">
        <ele>827.79</ele>
        <time>2021-07-02T12:32:35Z</time>
      </trkpt>
      <trkpt lat="44.85711" lon="4.33479">
        <ele>827.8</ele>
        <time>2021-07-02T12:32:36Z</time>
      </trkpt>
      <trkpt lat="44.8571" lon="4.33481">
        <ele>827.8</ele>
        <time>2021-07-02T12:32:38Z</time>
      </trkpt>
      <trkpt lat="44.85708" lon="4.33483">
        <ele>827.8</ele>
        <time>2021-07-02T12:32:39Z</time>
      </trkpt>
      <trkpt lat="44.85706" lon="4.33485">
        <ele>827.82</ele>
        <time>2021-07-02T12:32:44Z</time>
      </trkpt>
      <trkpt lat="44.85705" lon="4.33488">
        <ele>827.84</ele>
        <time>2021-07-02T12:32:48Z</time>
      </trkpt>
      <trkpt lat="44.85704" lon="4.33491">
        <ele>827.86</ele>
        <time>2021-07-02T12:32:51Z</time>
      </trkpt>
      <trkpt lat="44.85703" lon="4.33496">
        <ele>827.88</ele>
        <time>2021-07-02T12:32:55Z</time>
      </trkpt>
      <trkpt lat="44.85702" lon="4.335">
        <ele>827.91</ele>
        <time>2021-07-02T12:32:59Z</time>
      </trkpt>
      <trkpt lat="44.85701" lon="4.33505">
        <ele>827.92</ele>
        <time>2021-07-02T12:33:02Z</time>
      </trkpt>
      <trkpt lat="44.85699" lon="4.33508">
        <ele>827.94</ele>
        <time>2021-07-02T12:33:05Z</time>
      </trkpt>
      <trkpt lat="44.85699" lon="4.33504">
        <ele>827.99</ele>
        <time>2021-07-02T12:33:12Z</time>
      </trkpt>
      <trkpt lat="44.85698" lon="4.335">
        <ele>828.03</ele>
        <time>2021-07-02T12:33:16Z</time>
      </trkpt>
      <trkpt lat="44.85697" lon="4.33497">
        <ele>828.07</ele>
        <time>2021-07-02T12:33:20Z</time>
      </trkpt>
      <trkpt lat="44.85695" lon="4.33498">
        <ele>828.08</ele>
        <time>2021-07-02T12:33:22Z</time>
      </trkpt>
      <trkpt lat="44.85693" lon="4.33501">
        <ele>828.11</ele>
        <time>2021-07-02T12:33:25Z</time>
      </trkpt>
      <trkpt lat="44.8569" lon="4.33503">
        <ele>828.14</ele>
        <time>2021-07-02T12:33:29Z</time>
      </trkpt>
      <trkpt lat="44.85687" lon="4.33506">
        <ele>828.18</ele>
        <time>2021-07-02T12:33:33Z</time>
      </trkpt>
      <trkpt lat="44.85685" lon="4.33508">
        <ele>828.22</ele>
        <time>2021-07-02T12:33:37Z</time>
      </trkpt>
      <trkpt lat="44.85683" lon="4.3351">
        <ele>828.27</ele>
        <time>2021-07-02T12:33:42Z</time>
      </trkpt>
      <trkpt lat="44.85681" lon="4.3351">
        <ele>828.3</ele>
        <time>2021-07-02T12:33:44Z</time>
      </trkpt>
      <trkpt lat="44.85679" lon="4.33514">
        <ele>828.33</ele>
        <time>2021-07-02T12:33:47Z</time>
      </trkpt>
      <trkpt lat="44.85676" lon="4.33515">
        <ele>828.39</ele>
        <time>2021-07-02T12:33:51Z</time>
      </trkpt>
      <trkpt lat="44.85674" lon="4.33519">
        <ele>828.47</ele>
        <time>2021-07-02T12:33:57Z</time>
      </trkpt>
      <trkpt lat="44.85671" lon="4.33521">
        <ele>828.52</ele>
        <time>2021-07-02T12:34:01Z</time>
      </trkpt>
      <trkpt lat="44.85669" lon="4.33523">
        <ele>828.57</ele>
        <time>2021-07-02T12:34:04Z</time>
      </trkpt>
      <trkpt lat="44.85667" lon="4.33526">
        <ele>828.59</ele>
        <time>2021-07-02T12:34:06Z</time>
      </trkpt>
      <trkpt lat="44.85666" lon="4.33527">
        <ele>828.66</ele>
        <time>2021-07-02T12:34:10Z</time>
      </trkpt>
      <trkpt lat="44.85662" lon="4.33529">
        <ele>828.75</ele>
        <time>2021-07-02T12:34:24Z</time>
      </trkpt>
      <trkpt lat="44.85663" lon="4.33531">
        <ele>828.82</ele>
        <time>2021-07-02T12:34:30Z</time>
      </trkpt>
      <trkpt lat="44.85663" lon="4.33534">
        <ele>829.01</ele>
        <time>2021-07-02T12:34:40Z</time>
      </trkpt>
      <trkpt lat="44.85662" lon="4.33537">
        <ele>829.05</ele>
        <time>2021-07-02T12:34:42Z</time>
      </trkpt>
      <trkpt lat="44.85661" lon="4.33539">
        <ele>829.13</ele>
        <time>2021-07-02T12:34:57Z</time>
      </trkpt>
      <trkpt lat="44.85659" lon="4.3354">
        <ele>829.27</ele>
        <time>2021-07-02T12:35:01Z</time>
      </trkpt>
      <trkpt lat="44.85658" lon="4.33543">
        <ele>829.41</ele>
        <time>2021-07-02T12:35:05Z</time>
      </trkpt>
      <trkpt lat="44.85658" lon="4.33547">
        <ele>829.6</ele>
        <time>2021-07-02T12:35:10Z</time>
      </trkpt>
      <trkpt lat="44.85658" lon="4.33553">
        <ele>829.75</ele>
        <time>2021-07-02T12:35:14Z</time>
      </trkpt>
      <trkpt lat="44.8566" lon="4.33555">
        <ele>829.82</ele>
        <time>2021-07-02T12:35:16Z</time>
      </trkpt>
      <trkpt lat="44.8566" lon="4.33559">
        <ele>829.94</ele>
        <time>2021-07-02T12:35:19Z</time>
      </trkpt>
      <trkpt lat="44.85659" lon="4.33563">
        <ele>830.01</ele>
        <time>2021-07-02T12:35:21Z</time>
      </trkpt>
      <trkpt lat="44.85658" lon="4.33566">
        <ele>830.12</ele>
        <time>2021-07-02T12:35:24Z</time>
      </trkpt>
      <trkpt lat="44.85656" lon="4.33568">
        <ele>830.29</ele>
        <time>2021-07-02T12:35:29Z</time>
      </trkpt>
      <trkpt lat="44.85654" lon="4.3357">
        <ele>830.47</ele>
        <time>2021-07-02T12:35:42Z</time>
      </trkpt>
      <trkpt lat="44.8565" lon="4.33572">
        <ele>830.6</ele>
        <time>2021-07-02T12:35:46Z</time>
      </trkpt>
      <trkpt lat="44.85648" lon="4.33573">
        <ele>830.73</ele>
        <time>2021-07-02T12:35:50Z</time>
      </trkpt>
      <trkpt lat="44.85646" lon="4.33572">
        <ele>830.99</ele>
        <time>2021-07-02T12:35:59Z</time>
      </trkpt>
      <trkpt lat="44.85646" lon="4.33576">
        <ele>831.08</ele>
        <time>2021-07-02T12:36:03Z</time>
      </trkpt>
      <trkpt lat="44.85645" lon="4.33578">
        <ele>831.14</ele>
        <time>2021-07-02T12:36:05Z</time>
      </trkpt>
      <trkpt lat="44.85644" lon="4.33581">
        <ele>831.33</ele>
        <time>2021-07-02T12:36:12Z</time>
      </trkpt>
      <trkpt lat="44.85642" lon="4.33583">
        <ele>831.41</ele>
        <time>2021-07-02T12:36:15Z</time>
      </trkpt>
      <trkpt lat="44.85641" lon="4.33585">
        <ele>831.47</ele>
        <time>2021-07-02T12:36:17Z</time>
      </trkpt>
      <trkpt lat="44.85639" lon="4.3359">
        <ele>831.58</ele>
        <time>2021-07-02T12:36:21Z</time>
      </trkpt>
      <trkpt lat="44.85638" lon="4.33592">
        <ele>831.6</ele>
        <time>2021-07-02T12:36:22Z</time>
      </trkpt>
      <trkpt lat="44.85637" lon="4.33598">
        <ele>831.7</ele>
        <time>2021-07-02T12:36:30Z</time>
      </trkpt>
      <trkpt lat="44.85637" lon="4.33601">
        <ele>831.76</ele>
        <time>2021-07-02T12:36:32Z</time>
      </trkpt>
      <trkpt lat="44.85635" lon="4.33604">
        <ele>831.85</ele>
        <time>2021-07-02T12:36:35Z</time>
      </trkpt>
      <trkpt lat="44.85633" lon="4.33608">
        <ele>831.9</ele>
        <time>2021-07-02T12:36:37Z</time>
      </trkpt>
      <trkpt lat="44.85632" lon="4.33611">
        <ele>831.99</ele>
        <time>2021-07-02T12:36:40Z</time>
      </trkpt>
      <trkpt lat="44.8563" lon="4.33613">
        <ele>832.08</ele>
        <time>2021-07-02T12:36:43Z</time>
      </trkpt>
      <trkpt lat="44.85629" lon="4.33615">
        <ele>832.15</ele>
        <time>2021-07-02T12:36:45Z</time>
      </trkpt>
      <trkpt lat="44.85626" lon="4.33616">
        <ele>832.3</ele>
        <time>2021-07-02T12:36:50Z</time>
      </trkpt>
      <trkpt lat="44.85624" lon="4.33618">
        <ele>832.45</ele>
        <time>2021-07-02T12:36:55Z</time>
      </trkpt>
      <trkpt lat="44.85624" lon="4.33621">
        <ele>832.77</ele>
        <time>2021-07-02T12:37:06Z</time>
      </trkpt>
      <trkpt lat="44.85623" lon="4.33624">
        <ele>832.94</ele>
        <time>2021-07-02T12:37:13Z</time>
      </trkpt>
      <trkpt lat="44.85621" lon="4.33626">
        <ele>833.31</ele>
        <time>2021-07-02T12:37:25Z</time>
      </trkpt>
      <trkpt lat="44.8562" lon="4.33627">
        <ele>833.34</ele>
        <time>2021-07-02T12:37:26Z</time>
      </trkpt>
      <trkpt lat="44.85618" lon="4.33628">
        <ele>833.38</ele>
        <time>2021-07-02T12:37:28Z</time>
      </trkpt>
      <trkpt lat="44.85615" lon="4.33629">
        <ele>833.48</ele>
        <time>2021-07-02T12:37:31Z</time>
      </trkpt>
      <trkpt lat="44.85613" lon="4.33629">
        <ele>833.55</ele>
        <time>2021-07-02T12:37:33Z</time>
      </trkpt>
      <trkpt lat="44.85611" lon="4.33631">
        <ele>833.68</ele>
        <time>2021-07-02T12:37:37Z</time>
      </trkpt>
      <trkpt lat="44.85608" lon="4.33631">
        <ele>833.75</ele>
        <time>2021-07-02T12:37:40Z</time>
      </trkpt>
      <trkpt lat="44.85608" lon="4.33634">
        <ele>833.89</ele>
        <time>2021-07-02T12:37:47Z</time>
      </trkpt>
      <trkpt lat="44.85605" lon="4.33634">
        <ele>833.99</ele>
        <time>2021-07-02T12:37:51Z</time>
      </trkpt>
      <trkpt lat="44.85602" lon="4.33636">
        <ele>834.09</ele>
        <time>2021-07-02T12:37:55Z</time>
      </trkpt>
      <trkpt lat="44.856" lon="4.33635">
        <ele>834.22</ele>
        <time>2021-07-02T12:37:59Z</time>
      </trkpt>
      <trkpt lat="44.85598" lon="4.33637">
        <ele>834.28</ele>
        <time>2021-07-02T12:38:01Z</time>
      </trkpt>
      <trkpt lat="44.85596" lon="4.33636">
        <ele>834.34</ele>
        <time>2021-07-02T12:38:03Z</time>
      </trkpt>
      <trkpt lat="44.85593" lon="4.33637">
        <ele>834.41</ele>
        <time>2021-07-02T12:38:05Z</time>
      </trkpt>
      <trkpt lat="44.8559" lon="4.33636">
        <ele>834.5</ele>
        <time>2021-07-02T12:38:08Z</time>
      </trkpt>
      <trkpt lat="44.85588" lon="4.33637">
        <ele>834.59</ele>
        <time>2021-07-02T12:38:12Z</time>
      </trkpt>
      <trkpt lat="44.85586" lon="4.33637">
        <ele>834.68</ele>
        <time>2021-07-02T12:38:15Z</time>
      </trkpt>
      <trkpt lat="44.85584" lon="4.33637">
        <ele>834.71</ele>
        <time>2021-07-02T12:38:16Z</time>
      </trkpt>
      <trkpt lat="44.85581" lon="4.33635">
        <ele>834.76</ele>
        <time>2021-07-02T12:38:18Z</time>
      </trkpt>
      <trkpt lat="44.85579" lon="4.33637">
        <ele>834.93</ele>
        <time>2021-07-02T12:38:23Z</time>
      </trkpt>
      <trkpt lat="44.85576" lon="4.33638">
        <ele>835.04</ele>
        <time>2021-07-02T12:38:26Z</time>
      </trkpt>
      <trkpt lat="44.85575" lon="4.3364">
        <ele>835.15</ele>
        <time>2021-07-02T12:38:30Z</time>
      </trkpt>
      <trkpt lat="44.85571" lon="4.33644">
        <ele>835.35</ele>
        <time>2021-07-02T12:38:43Z</time>
      </trkpt>
      <trkpt lat="44.8557" lon="4.33644">
        <ele>835.58</ele>
        <time>2021-07-02T12:38:54Z</time>
      </trkpt>
      <trkpt lat="44.8557" lon="4.33647">
        <ele>837.5</ele>
        <time>2021-07-02T12:39:29Z</time>
      </trkpt>
      <trkpt lat="44.85566" lon="4.33645">
        <ele>839.1</ele>
        <time>2021-07-02T12:39:59Z</time>
      </trkpt>
      <trkpt lat="44.85567" lon="4.3365">
        <ele>840.23</ele>
        <time>2021-07-02T12:40:18Z</time>
      </trkpt>
      <trkpt lat="44.85567" lon="4.33653">
        <ele>840.43</ele>
        <time>2021-07-02T12:40:19Z</time>
      </trkpt>
      <trkpt lat="44.85567" lon="4.33656">
        <ele>840.82</ele>
        <time>2021-07-02T12:40:21Z</time>
      </trkpt>
      <trkpt lat="44.85566" lon="4.33661">
        <ele>841.23</ele>
        <time>2021-07-02T12:40:24Z</time>
      </trkpt>
      <trkpt lat="44.85568" lon="4.33665">
        <ele>841.79</ele>
        <time>2021-07-02T12:40:27Z</time>
      </trkpt>
      <trkpt lat="44.8557" lon="4.33668">
        <ele>842.33</ele>
        <time>2021-07-02T12:40:30Z</time>
      </trkpt>
      <trkpt lat="44.8557" lon="4.33672">
        <ele>842.68</ele>
        <time>2021-07-02T12:40:32Z</time>
      </trkpt>
      <trkpt lat="44.85571" lon="4.33675">
        <ele>842.85</ele>
        <time>2021-07-02T12:40:33Z</time>
      </trkpt>
      <trkpt lat="44.85571" lon="4.33679">
        <ele>843.18</ele>
        <time>2021-07-02T12:40:35Z</time>
      </trkpt>
      <trkpt lat="44.85571" lon="4.33684">
        <ele>843.51</ele>
        <time>2021-07-02T12:40:37Z</time>
      </trkpt>
      <trkpt lat="44.85571" lon="4.33687">
        <ele>843.99</ele>
        <time>2021-07-02T12:40:40Z</time>
      </trkpt>
      <trkpt lat="44.85569" lon="4.33689">
        <ele>844.45</ele>
        <time>2021-07-02T12:40:43Z</time>
      </trkpt>
      <trkpt lat="44.85568" lon="4.33692">
        <ele>844.74</ele>
        <time>2021-07-02T12:40:45Z</time>
      </trkpt>
      <trkpt lat="44.85567" lon="4.33695">
        <ele>845.03</ele>
        <time>2021-07-02T12:40:47Z</time>
      </trkpt>
      <trkpt lat="44.85567" lon="4.33699">
        <ele>845.58</ele>
        <time>2021-07-02T12:40:51Z</time>
      </trkpt>
      <trkpt lat="44.85566" lon="4.33701">
        <ele>845.84</ele>
        <time>2021-07-02T12:40:53Z</time>
      </trkpt>
      <trkpt lat="44.85564" lon="4.33703">
        <ele>846.1</ele>
        <time>2021-07-02T12:40:55Z</time>
      </trkpt>
      <trkpt lat="44.85563" lon="4.33706">
        <ele>846.46</ele>
        <time>2021-07-02T12:40:58Z</time>
      </trkpt>
      <trkpt lat="44.8556" lon="4.33709">
        <ele>847.02</ele>
        <time>2021-07-02T12:41:03Z</time>
      </trkpt>
      <trkpt lat="44.85558" lon="4.33711">
        <ele>847.44</ele>
        <time>2021-07-02T12:41:07Z</time>
      </trkpt>
      <trkpt lat="44.85557" lon="4.33713">
        <ele>847.74</ele>
        <time>2021-07-02T12:41:10Z</time>
      </trkpt>
      <trkpt lat="44.85555" lon="4.33715">
        <ele>847.84</ele>
        <time>2021-07-02T12:41:11Z</time>
      </trkpt>
      <trkpt lat="44.85553" lon="4.33716">
        <ele>848.31</ele>
        <time>2021-07-02T12:41:17Z</time>
      </trkpt>
      <trkpt lat="44.8555" lon="4.33717">
        <ele>848.57</ele>
        <time>2021-07-02T12:41:20Z</time>
      </trkpt>
      <trkpt lat="44.85548" lon="4.33717">
        <ele>848.73</ele>
        <time>2021-07-02T12:41:22Z</time>
      </trkpt>
      <trkpt lat="44.85546" lon="4.33718">
        <ele>848.98</ele>
        <time>2021-07-02T12:41:25Z</time>
      </trkpt>
      <trkpt lat="44.85544" lon="4.3372">
        <ele>849.22</ele>
        <time>2021-07-02T12:41:28Z</time>
      </trkpt>
      <trkpt lat="44.85542" lon="4.33721">
        <ele>849.38</ele>
        <time>2021-07-02T12:41:30Z</time>
      </trkpt>
      <trkpt lat="44.85539" lon="4.33722">
        <ele>850.18</ele>
        <time>2021-07-02T12:41:46Z</time>
      </trkpt>
      <trkpt lat="44.85538" lon="4.33723">
        <ele>850.4</ele>
        <time>2021-07-02T12:41:50Z</time>
      </trkpt>
      <trkpt lat="44.85537" lon="4.33726">
        <ele>850.54</ele>
        <time>2021-07-02T12:41:52Z</time>
      </trkpt>
      <trkpt lat="44.85534" lon="4.33729">
        <ele>850.75</ele>
        <time>2021-07-02T12:41:55Z</time>
      </trkpt>
      <trkpt lat="44.85532" lon="4.3373">
        <ele>850.95</ele>
        <time>2021-07-02T12:41:58Z</time>
      </trkpt>
      <trkpt lat="44.85531" lon="4.33733">
        <ele>851.02</ele>
        <time>2021-07-02T12:41:59Z</time>
      </trkpt>
      <trkpt lat="44.85529" lon="4.33735">
        <ele>851.15</ele>
        <time>2021-07-02T12:42:01Z</time>
      </trkpt>
      <trkpt lat="44.85529" lon="4.33737">
        <ele>851.28</ele>
        <time>2021-07-02T12:42:03Z</time>
      </trkpt>
      <trkpt lat="44.85528" lon="4.33742">
        <ele>851.7</ele>
        <time>2021-07-02T12:42:09Z</time>
      </trkpt>
      <trkpt lat="44.85526" lon="4.33746">
        <ele>851.78</ele>
        <time>2021-07-02T12:42:10Z</time>
      </trkpt>
      <trkpt lat="44.85523" lon="4.3375">
        <ele>852.01</ele>
        <time>2021-07-02T12:42:13Z</time>
      </trkpt>
      <trkpt lat="44.85522" lon="4.33755">
        <ele>852.17</ele>
        <time>2021-07-02T12:42:15Z</time>
      </trkpt>
      <trkpt lat="44.85522" lon="4.3376">
        <ele>852.25</ele>
        <time>2021-07-02T12:42:16Z</time>
      </trkpt>
      <trkpt lat="44.85522" lon="4.33765">
        <ele>852.33</ele>
        <time>2021-07-02T12:42:17Z</time>
      </trkpt>
      <trkpt lat="44.85522" lon="4.33767">
        <ele>852.41</ele>
        <time>2021-07-02T12:42:18Z</time>
      </trkpt>
      <trkpt lat="44.85522" lon="4.3377">
        <ele>852.57</ele>
        <time>2021-07-02T12:42:20Z</time>
      </trkpt>
      <trkpt lat="44.85521" lon="4.33772">
        <ele>852.65</ele>
        <time>2021-07-02T12:42:21Z</time>
      </trkpt>
      <trkpt lat="44.85519" lon="4.33776">
        <ele>852.81</ele>
        <time>2021-07-02T12:42:23Z</time>
      </trkpt>
      <trkpt lat="44.85517" lon="4.33772">
        <ele>853.18</ele>
        <time>2021-07-02T12:42:34Z</time>
      </trkpt>
      <trkpt lat="44.85516" lon="4.33776">
        <ele>853.46</ele>
        <time>2021-07-02T12:42:39Z</time>
      </trkpt>
      <trkpt lat="44.85515" lon="4.33779">
        <ele>853.72</ele>
        <time>2021-07-02T12:42:42Z</time>
      </trkpt>
      <trkpt lat="44.85513" lon="4.33782">
        <ele>853.89</ele>
        <time>2021-07-02T12:42:43Z</time>
      </trkpt>
      <trkpt lat="44.85512" lon="4.33785">
        <ele>854.14</ele>
        <time>2021-07-02T12:42:46Z</time>
      </trkpt>
      <trkpt lat="44.85511" lon="4.33788">
        <ele>854.32</ele>
        <time>2021-07-02T12:42:49Z</time>
      </trkpt>
      <trkpt lat="44.85509" lon="4.33791">
        <ele>854.66</ele>
        <time>2021-07-02T12:42:53Z</time>
      </trkpt>
      <trkpt lat="44.85509" lon="4.33795">
        <ele>854.91</ele>
        <time>2021-07-02T12:42:56Z</time>
      </trkpt>
      <trkpt lat="44.85509" lon="4.33798">
        <ele>855.15</ele>
        <time>2021-07-02T12:42:59Z</time>
      </trkpt>
      <trkpt lat="44.85508" lon="4.33802">
        <ele>855.39</ele>
        <time>2021-07-02T12:43:02Z</time>
      </trkpt>
      <trkpt lat="44.85506" lon="4.33805">
        <ele>855.63</ele>
        <time>2021-07-02T12:43:05Z</time>
      </trkpt>
      <trkpt lat="44.85504" lon="4.33808">
        <ele>855.79</ele>
        <time>2021-07-02T12:43:07Z</time>
      </trkpt>
      <trkpt lat="44.85502" lon="4.33811">
        <ele>856.03</ele>
        <time>2021-07-02T12:43:10Z</time>
      </trkpt>
      <trkpt lat="44.85501" lon="4.33813">
        <ele>856.43</ele>
        <time>2021-07-02T12:43:15Z</time>
      </trkpt>
      <trkpt lat="44.855" lon="4.33818">
        <ele>857.72</ele>
        <time>2021-07-02T12:43:46Z</time>
      </trkpt>
      <trkpt lat="44.855" lon="4.33815">
        <ele>857.96</ele>
        <time>2021-07-02T12:44:02Z</time>
      </trkpt>
      <trkpt lat="44.855" lon="4.33813">
        <ele>858.53</ele>
        <time>2021-07-02T12:44:35Z</time>
      </trkpt>
      <trkpt lat="44.85499" lon="4.3381">
        <ele>858.88</ele>
        <time>2021-07-02T12:44:45Z</time>
      </trkpt>
      <trkpt lat="44.85497" lon="4.33808">
        <ele>860</ele>
        <time>2021-07-02T12:45:12Z</time>
      </trkpt>
      <trkpt lat="44.85494" lon="4.33808">
        <ele>860.61</ele>
        <time>2021-07-02T12:45:17Z</time>
      </trkpt>
      <trkpt lat="44.85494" lon="4.33804">
        <ele>861.17</ele>
        <time>2021-07-02T12:45:21Z</time>
      </trkpt>
      <trkpt lat="44.85493" lon="4.33801">
        <ele>861.43</ele>
        <time>2021-07-02T12:45:23Z</time>
      </trkpt>
      <trkpt lat="44.8549" lon="4.33799">
        <ele>862.33</ele>
        <time>2021-07-02T12:45:31Z</time>
      </trkpt>
      <trkpt lat="44.85489" lon="4.33798">
        <ele>862.57</ele>
        <time>2021-07-02T12:45:33Z</time>
      </trkpt>
      <trkpt lat="44.85487" lon="4.33796">
        <ele>862.8</ele>
        <time>2021-07-02T12:45:35Z</time>
      </trkpt>
      <trkpt lat="44.85484" lon="4.33795">
        <ele>863.24</ele>
        <time>2021-07-02T12:45:39Z</time>
      </trkpt>
      <trkpt lat="44.85483" lon="4.33792">
        <ele>863.45</ele>
        <time>2021-07-02T12:45:41Z</time>
      </trkpt>
      <trkpt lat="44.85481" lon="4.33791">
        <ele>863.65</ele>
        <time>2021-07-02T12:45:43Z</time>
      </trkpt>
      <trkpt lat="44.8548" lon="4.3379">
        <ele>863.85</ele>
        <time>2021-07-02T12:45:45Z</time>
      </trkpt>
      <trkpt lat="44.85477" lon="4.33787">
        <ele>864.14</ele>
        <time>2021-07-02T12:45:49Z</time>
      </trkpt>
      <trkpt lat="44.85475" lon="4.33785">
        <ele>864.57</ele>
        <time>2021-07-02T12:45:54Z</time>
      </trkpt>
      <trkpt lat="44.85472" lon="4.33782">
        <ele>865.05</ele>
        <time>2021-07-02T12:46:00Z</time>
      </trkpt>
      <trkpt lat="44.85471" lon="4.33779">
        <ele>865.34</ele>
        <time>2021-07-02T12:46:04Z</time>
      </trkpt>
      <trkpt lat="44.8547" lon="4.33776">
        <ele>865.42</ele>
        <time>2021-07-02T12:46:06Z</time>
      </trkpt>
      <trkpt lat="44.85468" lon="4.33773">
        <ele>865.69</ele>
        <time>2021-07-02T12:46:10Z</time>
      </trkpt>
      <trkpt lat="44.85468" lon="4.33769">
        <ele>865.88</ele>
        <time>2021-07-02T12:46:13Z</time>
      </trkpt>
      <trkpt lat="44.85467" lon="4.33766">
        <ele>866</ele>
        <time>2021-07-02T12:46:15Z</time>
      </trkpt>
      <trkpt lat="44.85467" lon="4.33762">
        <ele>866.24</ele>
        <time>2021-07-02T12:46:19Z</time>
      </trkpt>
      <trkpt lat="44.85467" lon="4.33759">
        <ele>866.63</ele>
        <time>2021-07-02T12:46:26Z</time>
      </trkpt>
      <trkpt lat="44.85467" lon="4.33756">
        <ele>866.78</ele>
        <time>2021-07-02T12:46:29Z</time>
      </trkpt>
      <trkpt lat="44.85467" lon="4.33752">
        <ele>866.98</ele>
        <time>2021-07-02T12:46:33Z</time>
      </trkpt>
      <trkpt lat="44.85467" lon="4.33748">
        <ele>867.13</ele>
        <time>2021-07-02T12:46:36Z</time>
      </trkpt>
      <trkpt lat="44.85467" lon="4.33746">
        <ele>867.24</ele>
        <time>2021-07-02T12:46:38Z</time>
      </trkpt>
      <trkpt lat="44.85466" lon="4.33743">
        <ele>867.34</ele>
        <time>2021-07-02T12:46:40Z</time>
      </trkpt>
      <trkpt lat="44.85465" lon="4.3374">
        <ele>867.54</ele>
        <time>2021-07-02T12:46:44Z</time>
      </trkpt>
      <trkpt lat="44.85465" lon="4.33733">
        <ele>868.13</ele>
        <time>2021-07-02T12:46:56Z</time>
      </trkpt>
      <trkpt lat="44.85465" lon="4.3373">
        <ele>868.29</ele>
        <time>2021-07-02T12:46:59Z</time>
      </trkpt>
      <trkpt lat="44.85465" lon="4.33727">
        <ele>868.46</ele>
        <time>2021-07-02T12:47:03Z</time>
      </trkpt>
      <trkpt lat="44.85465" lon="4.33724">
        <ele>868.54</ele>
        <time>2021-07-02T12:47:10Z</time>
      </trkpt>
      <trkpt lat="44.85466" lon="4.33721">
        <ele>869.11</ele>
        <time>2021-07-02T12:47:22Z</time>
      </trkpt>
      <trkpt lat="44.85469" lon="4.33718">
        <ele>869.27</ele>
        <time>2021-07-02T12:47:25Z</time>
      </trkpt>
      <trkpt lat="44.8547" lon="4.33716">
        <ele>869.38</ele>
        <time>2021-07-02T12:47:27Z</time>
      </trkpt>
      <trkpt lat="44.85471" lon="4.33714">
        <ele>869.5</ele>
        <time>2021-07-02T12:47:29Z</time>
      </trkpt>
      <trkpt lat="44.85473" lon="4.33711">
        <ele>869.67</ele>
        <time>2021-07-02T12:47:32Z</time>
      </trkpt>
      <trkpt lat="44.85474" lon="4.33707">
        <ele>869.78</ele>
        <time>2021-07-02T12:47:34Z</time>
      </trkpt>
      <trkpt lat="44.85476" lon="4.33703">
        <ele>870.07</ele>
        <time>2021-07-02T12:47:39Z</time>
      </trkpt>
      <trkpt lat="44.85476" lon="4.337">
        <ele>870.25</ele>
        <time>2021-07-02T12:47:42Z</time>
      </trkpt>
      <trkpt lat="44.85477" lon="4.33697">
        <ele>870.49</ele>
        <time>2021-07-02T12:47:46Z</time>
      </trkpt>
      <trkpt lat="44.85478" lon="4.33694">
        <ele>870.61</ele>
        <time>2021-07-02T12:47:48Z</time>
      </trkpt>
      <trkpt lat="44.85479" lon="4.33691">
        <ele>870.79</ele>
        <time>2021-07-02T12:47:51Z</time>
      </trkpt>
      <trkpt lat="44.85481" lon="4.33687">
        <ele>870.81</ele>
        <time>2021-07-02T12:47:53Z</time>
      </trkpt>
      <trkpt lat="44.85483" lon="4.33686">
        <ele>871.32</ele>
        <time>2021-07-02T12:48:21Z</time>
      </trkpt>
      <trkpt lat="44.85484" lon="4.33684">
        <ele>871.95</ele>
        <time>2021-07-02T12:48:29Z</time>
      </trkpt>
      <trkpt lat="44.85485" lon="4.33682">
        <ele>872.18</ele>
        <time>2021-07-02T12:48:31Z</time>
      </trkpt>
      <trkpt lat="44.85486" lon="4.33679">
        <ele>872.52</ele>
        <time>2021-07-02T12:48:34Z</time>
      </trkpt>
      <trkpt lat="44.85488" lon="4.33676">
        <ele>872.65</ele>
        <time>2021-07-02T12:48:37Z</time>
      </trkpt>
      <trkpt lat="44.85489" lon="4.33673">
        <ele>872.99</ele>
        <time>2021-07-02T12:48:41Z</time>
      </trkpt>
      <trkpt lat="44.8549" lon="4.3367">
        <ele>873.31</ele>
        <time>2021-07-02T12:48:44Z</time>
      </trkpt>
      <trkpt lat="44.85491" lon="4.33667">
        <ele>873.51</ele>
        <time>2021-07-02T12:48:46Z</time>
      </trkpt>
      <trkpt lat="44.85491" lon="4.33663">
        <ele>873.81</ele>
        <time>2021-07-02T12:48:49Z</time>
      </trkpt>
      <trkpt lat="44.8549" lon="4.33659">
        <ele>874.1</ele>
        <time>2021-07-02T12:48:52Z</time>
      </trkpt>
      <trkpt lat="44.85489" lon="4.33656">
        <ele>874.28</ele>
        <time>2021-07-02T12:48:54Z</time>
      </trkpt>
      <trkpt lat="44.85488" lon="4.33654">
        <ele>874.46</ele>
        <time>2021-07-02T12:48:56Z</time>
      </trkpt>
      <trkpt lat="44.85487" lon="4.33651">
        <ele>874.55</ele>
        <time>2021-07-02T12:48:57Z</time>
      </trkpt>
      <trkpt lat="44.85487" lon="4.33647">
        <ele>874.9</ele>
        <time>2021-07-02T12:49:01Z</time>
      </trkpt>
      <trkpt lat="44.85486" lon="4.33645">
        <ele>875.18</ele>
        <time>2021-07-02T12:49:05Z</time>
      </trkpt>
      <trkpt lat="44.85486" lon="4.33642">
        <ele>875.35</ele>
        <time>2021-07-02T12:49:07Z</time>
      </trkpt>
      <trkpt lat="44.85485" lon="4.3364">
        <ele>875.52</ele>
        <time>2021-07-02T12:49:09Z</time>
      </trkpt>
      <trkpt lat="44.85484" lon="4.33636">
        <ele>875.83</ele>
        <time>2021-07-02T12:49:13Z</time>
      </trkpt>
      <trkpt lat="44.85483" lon="4.33633">
        <ele>876.06</ele>
        <time>2021-07-02T12:49:16Z</time>
      </trkpt>
      <trkpt lat="44.85483" lon="4.33629">
        <ele>876.35</ele>
        <time>2021-07-02T12:49:20Z</time>
      </trkpt>
      <trkpt lat="44.85484" lon="4.33626">
        <ele>876.7</ele>
        <time>2021-07-02T12:49:25Z</time>
      </trkpt>
      <trkpt lat="44.85483" lon="4.33622">
        <ele>876.97</ele>
        <time>2021-07-02T12:49:29Z</time>
      </trkpt>
      <trkpt lat="44.85482" lon="4.33619">
        <ele>877.15</ele>
        <time>2021-07-02T12:49:32Z</time>
      </trkpt>
      <trkpt lat="44.85482" lon="4.33616">
        <ele>877.34</ele>
        <time>2021-07-02T12:49:35Z</time>
      </trkpt>
      <trkpt lat="44.85481" lon="4.33613">
        <ele>877.46</ele>
        <time>2021-07-02T12:49:37Z</time>
      </trkpt>
      <trkpt lat="44.8548" lon="4.3361">
        <ele>877.63</ele>
        <time>2021-07-02T12:49:40Z</time>
      </trkpt>
      <trkpt lat="44.85479" lon="4.33607">
        <ele>877.75</ele>
        <time>2021-07-02T12:49:42Z</time>
      </trkpt>
      <trkpt lat="44.85478" lon="4.33604">
        <ele>878.05</ele>
        <time>2021-07-02T12:49:48Z</time>
      </trkpt>
      <trkpt lat="44.8548" lon="4.33601">
        <ele>878.33</ele>
        <time>2021-07-02T12:49:53Z</time>
      </trkpt>
      <trkpt lat="44.85481" lon="4.33599">
        <ele>878.38</ele>
        <time>2021-07-02T12:49:54Z</time>
      </trkpt>
      <trkpt lat="44.85481" lon="4.33596">
        <ele>878.44</ele>
        <time>2021-07-02T12:49:55Z</time>
      </trkpt>
      <trkpt lat="44.85481" lon="4.33593">
        <ele>878.54</ele>
        <time>2021-07-02T12:49:57Z</time>
      </trkpt>
      <trkpt lat="44.85482" lon="4.33589">
        <ele>878.75</ele>
        <time>2021-07-02T12:50:01Z</time>
      </trkpt>
      <trkpt lat="44.85481" lon="4.33587">
        <ele>878.94</ele>
        <time>2021-07-02T12:50:24Z</time>
      </trkpt>
      <trkpt lat="44.85481" lon="4.33584">
        <ele>880.2</ele>
        <time>2021-07-02T12:50:54Z</time>
      </trkpt>
      <trkpt lat="44.85483" lon="4.33581">
        <ele>881.06</ele>
        <time>2021-07-02T12:51:03Z</time>
      </trkpt>
      <trkpt lat="44.85485" lon="4.33579">
        <ele>881.94</ele>
        <time>2021-07-02T12:51:09Z</time>
      </trkpt>
      <trkpt lat="44.85486" lon="4.33576">
        <ele>882.35</ele>
        <time>2021-07-02T12:51:12Z</time>
      </trkpt>
      <trkpt lat="44.85487" lon="4.33573">
        <ele>882.62</ele>
        <time>2021-07-02T12:51:14Z</time>
      </trkpt>
      <trkpt lat="44.85487" lon="4.3357">
        <ele>882.75</ele>
        <time>2021-07-02T12:51:15Z</time>
      </trkpt>
      <trkpt lat="44.85488" lon="4.33566">
        <ele>883.14</ele>
        <time>2021-07-02T12:51:18Z</time>
      </trkpt>
      <trkpt lat="44.8549" lon="4.33565">
        <ele>883.39</ele>
        <time>2021-07-02T12:51:20Z</time>
      </trkpt>
      <trkpt lat="44.85492" lon="4.33562">
        <ele>883.75</ele>
        <time>2021-07-02T12:51:23Z</time>
      </trkpt>
      <trkpt lat="44.85493" lon="4.33559">
        <ele>884.08</ele>
        <time>2021-07-02T12:51:26Z</time>
      </trkpt>
      <trkpt lat="44.85495" lon="4.33556">
        <ele>884.4</ele>
        <time>2021-07-02T12:51:29Z</time>
      </trkpt>
      <trkpt lat="44.85496" lon="4.33553">
        <ele>884.71</ele>
        <time>2021-07-02T12:51:32Z</time>
      </trkpt>
      <trkpt lat="44.85498" lon="4.33552">
        <ele>885</ele>
        <time>2021-07-02T12:51:35Z</time>
      </trkpt>
      <trkpt lat="44.855" lon="4.33549">
        <ele>885.44</ele>
        <time>2021-07-02T12:51:40Z</time>
      </trkpt>
      <trkpt lat="44.855" lon="4.33544">
        <ele>885.7</ele>
        <time>2021-07-02T12:51:43Z</time>
      </trkpt>
      <trkpt lat="44.855" lon="4.33541">
        <ele>886.01</ele>
        <time>2021-07-02T12:51:47Z</time>
      </trkpt>
      <trkpt lat="44.85499" lon="4.33537">
        <ele>886.24</ele>
        <time>2021-07-02T12:51:50Z</time>
      </trkpt>
      <trkpt lat="44.85499" lon="4.33534">
        <ele>886.46</ele>
        <time>2021-07-02T12:51:53Z</time>
      </trkpt>
      <trkpt lat="44.85499" lon="4.33531">
        <ele>886.6</ele>
        <time>2021-07-02T12:51:55Z</time>
      </trkpt>
      <trkpt lat="44.85497" lon="4.33528">
        <ele>886.93</ele>
        <time>2021-07-02T12:52:00Z</time>
      </trkpt>
      <trkpt lat="44.85495" lon="4.33522">
        <ele>887.25</ele>
        <time>2021-07-02T12:52:11Z</time>
      </trkpt>
      <trkpt lat="44.85495" lon="4.33517">
        <ele>888.15</ele>
        <time>2021-07-02T12:52:25Z</time>
      </trkpt>
      <trkpt lat="44.85494" lon="4.33513">
        <ele>888.38</ele>
        <time>2021-07-02T12:52:29Z</time>
      </trkpt>
      <trkpt lat="44.85493" lon="4.3351">
        <ele>888.5</ele>
        <time>2021-07-02T12:52:31Z</time>
      </trkpt>
      <trkpt lat="44.85493" lon="4.33506">
        <ele>888.72</ele>
        <time>2021-07-02T12:52:35Z</time>
      </trkpt>
      <trkpt lat="44.85494" lon="4.33502">
        <ele>889.24</ele>
        <time>2021-07-02T12:52:55Z</time>
      </trkpt>
      <trkpt lat="44.85493" lon="4.33497">
        <ele>889.44</ele>
        <time>2021-07-02T12:53:09Z</time>
      </trkpt>
      <trkpt lat="44.85494" lon="4.33494">
        <ele>889.51</ele>
        <time>2021-07-02T12:53:10Z</time>
      </trkpt>
      <trkpt lat="44.85493" lon="4.3349">
        <ele>890.03</ele>
        <time>2021-07-02T12:53:18Z</time>
      </trkpt>
      <trkpt lat="44.85494" lon="4.33486">
        <ele>890.22</ele>
        <time>2021-07-02T12:53:21Z</time>
      </trkpt>
      <trkpt lat="44.85493" lon="4.33483">
        <ele>890.41</ele>
        <time>2021-07-02T12:53:24Z</time>
      </trkpt>
      <trkpt lat="44.85493" lon="4.3348">
        <ele>890.53</ele>
        <time>2021-07-02T12:53:26Z</time>
      </trkpt>
      <trkpt lat="44.85493" lon="4.33477">
        <ele>890.66</ele>
        <time>2021-07-02T12:53:28Z</time>
      </trkpt>
      <trkpt lat="44.85494" lon="4.33474">
        <ele>890.78</ele>
        <time>2021-07-02T12:53:30Z</time>
      </trkpt>
      <trkpt lat="44.85495" lon="4.33471">
        <ele>890.84</ele>
        <time>2021-07-02T12:53:31Z</time>
      </trkpt>
      <trkpt lat="44.85495" lon="4.33468">
        <ele>891.23</ele>
        <time>2021-07-02T12:53:45Z</time>
      </trkpt>
      <trkpt lat="44.85495" lon="4.33464">
        <ele>891.37</ele>
        <time>2021-07-02T12:53:47Z</time>
      </trkpt>
      <trkpt lat="44.85496" lon="4.33461">
        <ele>891.57</ele>
        <time>2021-07-02T12:53:50Z</time>
      </trkpt>
      <trkpt lat="44.85497" lon="4.33458">
        <ele>891.7</ele>
        <time>2021-07-02T12:53:52Z</time>
      </trkpt>
      <trkpt lat="44.85498" lon="4.33455">
        <ele>891.83</ele>
        <time>2021-07-02T12:53:54Z</time>
      </trkpt>
      <trkpt lat="44.85499" lon="4.33452">
        <ele>891.96</ele>
        <time>2021-07-02T12:53:56Z</time>
      </trkpt>
      <trkpt lat="44.855" lon="4.33447">
        <ele>892.15</ele>
        <time>2021-07-02T12:53:59Z</time>
      </trkpt>
      <trkpt lat="44.85499" lon="4.33443">
        <ele>892.35</ele>
        <time>2021-07-02T12:54:02Z</time>
      </trkpt>
      <trkpt lat="44.85499" lon="4.33439">
        <ele>892.54</ele>
        <time>2021-07-02T12:54:05Z</time>
      </trkpt>
      <trkpt lat="44.855" lon="4.33435">
        <ele>892.68</ele>
        <time>2021-07-02T12:54:07Z</time>
      </trkpt>
      <trkpt lat="44.855" lon="4.33431">
        <ele>892.88</ele>
        <time>2021-07-02T12:54:10Z</time>
      </trkpt>
      <trkpt lat="44.855" lon="4.33428">
        <ele>893.01</ele>
        <time>2021-07-02T12:54:12Z</time>
      </trkpt>
      <trkpt lat="44.855" lon="4.33425">
        <ele>893.49</ele>
        <time>2021-07-02T12:54:27Z</time>
      </trkpt>
      <trkpt lat="44.855" lon="4.33421">
        <ele>893.74</ele>
        <time>2021-07-02T12:54:30Z</time>
      </trkpt>
      <trkpt lat="44.85499" lon="4.33418">
        <ele>893.91</ele>
        <time>2021-07-02T12:54:32Z</time>
      </trkpt>
      <trkpt lat="44.855" lon="4.33414">
        <ele>894.16</ele>
        <time>2021-07-02T12:54:35Z</time>
      </trkpt>
      <trkpt lat="44.855" lon="4.33411">
        <ele>894.32</ele>
        <time>2021-07-02T12:54:37Z</time>
      </trkpt>
      <trkpt lat="44.855" lon="4.33408">
        <ele>894.47</ele>
        <time>2021-07-02T12:54:39Z</time>
      </trkpt>
      <trkpt lat="44.855" lon="4.33405">
        <ele>894.71</ele>
        <time>2021-07-02T12:54:42Z</time>
      </trkpt>
      <trkpt lat="44.85499" lon="4.33401">
        <ele>895.02</ele>
        <time>2021-07-02T12:54:46Z</time>
      </trkpt>
      <trkpt lat="44.85498" lon="4.33397">
        <ele>895.32</ele>
        <time>2021-07-02T12:54:50Z</time>
      </trkpt>
      <trkpt lat="44.85496" lon="4.33393">
        <ele>895.54</ele>
        <time>2021-07-02T12:54:53Z</time>
      </trkpt>
      <trkpt lat="44.85495" lon="4.33391">
        <ele>895.75</ele>
        <time>2021-07-02T12:54:56Z</time>
      </trkpt>
      <trkpt lat="44.85493" lon="4.33388">
        <ele>896.1</ele>
        <time>2021-07-02T12:55:01Z</time>
      </trkpt>
      <trkpt lat="44.85493" lon="4.33383">
        <ele>896.57</ele>
        <time>2021-07-02T12:55:08Z</time>
      </trkpt>
      <trkpt lat="44.85493" lon="4.3338">
        <ele>896.9</ele>
        <time>2021-07-02T12:55:13Z</time>
      </trkpt>
      <trkpt lat="44.85492" lon="4.33377">
        <ele>897.09</ele>
        <time>2021-07-02T12:55:16Z</time>
      </trkpt>
      <trkpt lat="44.8549" lon="4.33374">
        <ele>897.28</ele>
        <time>2021-07-02T12:55:19Z</time>
      </trkpt>
      <trkpt lat="44.85489" lon="4.33372">
        <ele>897.53</ele>
        <time>2021-07-02T12:55:23Z</time>
      </trkpt>
      <trkpt lat="44.85489" lon="4.33368">
        <ele>897.99</ele>
        <time>2021-07-02T12:55:37Z</time>
      </trkpt>
      <trkpt lat="44.85489" lon="4.33363">
        <ele>898.15</ele>
        <time>2021-07-02T12:55:39Z</time>
      </trkpt>
      <trkpt lat="44.85488" lon="4.3336">
        <ele>898.29</ele>
        <time>2021-07-02T12:55:41Z</time>
      </trkpt>
      <trkpt lat="44.85489" lon="4.33354">
        <ele>898.51</ele>
        <time>2021-07-02T12:55:45Z</time>
      </trkpt>
      <trkpt lat="44.85489" lon="4.33352">
        <ele>898.67</ele>
        <time>2021-07-02T12:55:47Z</time>
      </trkpt>
      <trkpt lat="44.85488" lon="4.33347">
        <ele>899.01</ele>
        <time>2021-07-02T12:55:51Z</time>
      </trkpt>
      <trkpt lat="44.8549" lon="4.33344">
        <ele>899.62</ele>
        <time>2021-07-02T12:55:57Z</time>
      </trkpt>
      <trkpt lat="44.8549" lon="4.3334">
        <ele>899.93</ele>
        <time>2021-07-02T12:56:00Z</time>
      </trkpt>
      <trkpt lat="44.85489" lon="4.33337">
        <ele>900.15</ele>
        <time>2021-07-02T12:56:02Z</time>
      </trkpt>
      <trkpt lat="44.85489" lon="4.33333">
        <ele>900.36</ele>
        <time>2021-07-02T12:56:04Z</time>
      </trkpt>
      <trkpt lat="44.85489" lon="4.33331">
        <ele>900.59</ele>
        <time>2021-07-02T12:56:06Z</time>
      </trkpt>
      <trkpt lat="44.8549" lon="4.33328">
        <ele>900.82</ele>
        <time>2021-07-02T12:56:08Z</time>
      </trkpt>
      <trkpt lat="44.8549" lon="4.33323">
        <ele>901.05</ele>
        <time>2021-07-02T12:56:10Z</time>
      </trkpt>
      <trkpt lat="44.85491" lon="4.3332">
        <ele>901.29</ele>
        <time>2021-07-02T12:56:12Z</time>
      </trkpt>
      <trkpt lat="44.85492" lon="4.33317">
        <ele>901.52</ele>
        <time>2021-07-02T12:56:14Z</time>
      </trkpt>
      <trkpt lat="44.85492" lon="4.33314">
        <ele>901.76</ele>
        <time>2021-07-02T12:56:16Z</time>
      </trkpt>
      <trkpt lat="44.85491" lon="4.3331">
        <ele>902.11</ele>
        <time>2021-07-02T12:56:19Z</time>
      </trkpt>
      <trkpt lat="44.85491" lon="4.33306">
        <ele>902.33</ele>
        <time>2021-07-02T12:56:21Z</time>
      </trkpt>
      <trkpt lat="44.85491" lon="4.33302">
        <ele>902.78</ele>
        <time>2021-07-02T12:56:25Z</time>
      </trkpt>
      <trkpt lat="44.85492" lon="4.333">
        <ele>903.12</ele>
        <time>2021-07-02T12:56:28Z</time>
      </trkpt>
      <trkpt lat="44.85492" lon="4.33296">
        <ele>903.57</ele>
        <time>2021-07-02T12:56:32Z</time>
      </trkpt>
      <trkpt lat="44.85491" lon="4.33293">
        <ele>903.91</ele>
        <time>2021-07-02T12:56:35Z</time>
      </trkpt>
      <trkpt lat="44.8549" lon="4.3329">
        <ele>904.14</ele>
        <time>2021-07-02T12:56:37Z</time>
      </trkpt>
      <trkpt lat="44.8549" lon="4.33286">
        <ele>904.47</ele>
        <time>2021-07-02T12:56:41Z</time>
      </trkpt>
      <trkpt lat="44.8549" lon="4.33283">
        <ele>904.8</ele>
        <time>2021-07-02T12:56:45Z</time>
      </trkpt>
      <trkpt lat="44.85489" lon="4.3328">
        <ele>905.1</ele>
        <time>2021-07-02T12:56:48Z</time>
      </trkpt>
      <trkpt lat="44.85488" lon="4.33274">
        <ele>905.3</ele>
        <time>2021-07-02T12:56:50Z</time>
      </trkpt>
      <trkpt lat="44.85488" lon="4.33271">
        <ele>905.4</ele>
        <time>2021-07-02T12:56:51Z</time>
      </trkpt>
      <trkpt lat="44.85487" lon="4.33267">
        <ele>905.5</ele>
        <time>2021-07-02T12:56:52Z</time>
      </trkpt>
      <trkpt lat="44.85487" lon="4.33263">
        <ele>905.7</ele>
        <time>2021-07-02T12:56:54Z</time>
      </trkpt>
      <trkpt lat="44.85486" lon="4.3326">
        <ele>905.99</ele>
        <time>2021-07-02T12:56:57Z</time>
      </trkpt>
      <trkpt lat="44.85486" lon="4.33257">
        <ele>906.19</ele>
        <time>2021-07-02T12:56:59Z</time>
      </trkpt>
      <trkpt lat="44.85487" lon="4.33255">
        <ele>906.48</ele>
        <time>2021-07-02T12:57:02Z</time>
      </trkpt>
      <trkpt lat="44.85488" lon="4.33251">
        <ele>906.67</ele>
        <time>2021-07-02T12:57:04Z</time>
      </trkpt>
      <trkpt lat="44.85489" lon="4.33247">
        <ele>906.95</ele>
        <time>2021-07-02T12:57:07Z</time>
      </trkpt>
      <trkpt lat="44.8549" lon="4.33243">
        <ele>907.14</ele>
        <time>2021-07-02T12:57:09Z</time>
      </trkpt>
      <trkpt lat="44.85492" lon="4.33241">
        <ele>907.53</ele>
        <time>2021-07-02T12:57:13Z</time>
      </trkpt>
      <trkpt lat="44.85492" lon="4.33237">
        <ele>907.83</ele>
        <time>2021-07-02T12:57:16Z</time>
      </trkpt>
      <trkpt lat="44.85491" lon="4.33234">
        <ele>908.04</ele>
        <time>2021-07-02T12:57:18Z</time>
      </trkpt>
      <trkpt lat="44.85491" lon="4.33231">
        <ele>908.25</ele>
        <time>2021-07-02T12:57:21Z</time>
      </trkpt>
      <trkpt lat="44.8549" lon="4.33227">
        <ele>908.98</ele>
        <time>2021-07-02T12:57:37Z</time>
      </trkpt>
      <trkpt lat="44.8549" lon="4.33223">
        <ele>909.23</ele>
        <time>2021-07-02T12:57:39Z</time>
      </trkpt>
      <trkpt lat="44.85489" lon="4.33219">
        <ele>909.6</ele>
        <time>2021-07-02T12:57:42Z</time>
      </trkpt>
      <trkpt lat="44.85489" lon="4.33215">
        <ele>909.84</ele>
        <time>2021-07-02T12:57:44Z</time>
      </trkpt>
      <trkpt lat="44.85489" lon="4.33211">
        <ele>910.08</ele>
        <time>2021-07-02T12:57:46Z</time>
      </trkpt>
      <trkpt lat="44.85489" lon="4.33207">
        <ele>910.3</ele>
        <time>2021-07-02T12:57:48Z</time>
      </trkpt>
      <trkpt lat="44.85488" lon="4.33202">
        <ele>910.74</ele>
        <time>2021-07-02T12:57:52Z</time>
      </trkpt>
      <trkpt lat="44.85486" lon="4.33199">
        <ele>910.96</ele>
        <time>2021-07-02T12:57:54Z</time>
      </trkpt>
      <trkpt lat="44.85485" lon="4.33196">
        <ele>911.48</ele>
        <time>2021-07-02T12:57:59Z</time>
      </trkpt>
      <trkpt lat="44.85483" lon="4.33192">
        <ele>911.87</ele>
        <time>2021-07-02T12:58:03Z</time>
      </trkpt>
      <trkpt lat="44.85484" lon="4.33189">
        <ele>913.22</ele>
        <time>2021-07-02T12:58:28Z</time>
      </trkpt>
      <trkpt lat="44.85484" lon="4.33186">
        <ele>913.54</ele>
        <time>2021-07-02T12:58:33Z</time>
      </trkpt>
      <trkpt lat="44.85485" lon="4.33184">
        <ele>913.84</ele>
        <time>2021-07-02T12:58:36Z</time>
      </trkpt>
      <trkpt lat="44.85485" lon="4.3318">
        <ele>914.03</ele>
        <time>2021-07-02T12:58:39Z</time>
      </trkpt>
      <trkpt lat="44.85484" lon="4.33177">
        <ele>914.22</ele>
        <time>2021-07-02T12:58:41Z</time>
      </trkpt>
      <trkpt lat="44.85483" lon="4.33173">
        <ele>914.68</ele>
        <time>2021-07-02T12:58:46Z</time>
      </trkpt>
      <trkpt lat="44.85482" lon="4.3317">
        <ele>914.95</ele>
        <time>2021-07-02T12:58:49Z</time>
      </trkpt>
      <trkpt lat="44.85482" lon="4.33167">
        <ele>915.3</ele>
        <time>2021-07-02T12:58:53Z</time>
      </trkpt>
      <trkpt lat="44.85484" lon="4.33165">
        <ele>915.93</ele>
        <time>2021-07-02T12:59:14Z</time>
      </trkpt>
      <trkpt lat="44.85484" lon="4.33162">
        <ele>916.15</ele>
        <time>2021-07-02T12:59:16Z</time>
      </trkpt>
      <trkpt lat="44.85486" lon="4.3316">
        <ele>916.38</ele>
        <time>2021-07-02T12:59:19Z</time>
      </trkpt>
      <trkpt lat="44.85488" lon="4.33158">
        <ele>916.67</ele>
        <time>2021-07-02T12:59:28Z</time>
      </trkpt>
      <trkpt lat="44.85487" lon="4.33153">
        <ele>916.88</ele>
        <time>2021-07-02T12:59:30Z</time>
      </trkpt>
      <trkpt lat="44.85486" lon="4.33151">
        <ele>916.99</ele>
        <time>2021-07-02T12:59:31Z</time>
      </trkpt>
      <trkpt lat="44.85485" lon="4.33149">
        <ele>917.09</ele>
        <time>2021-07-02T12:59:32Z</time>
      </trkpt>
      <trkpt lat="44.85483" lon="4.33146">
        <ele>917.39</ele>
        <time>2021-07-02T12:59:35Z</time>
      </trkpt>
      <trkpt lat="44.85482" lon="4.33143">
        <ele>917.59</ele>
        <time>2021-07-02T12:59:37Z</time>
      </trkpt>
      <trkpt lat="44.85481" lon="4.33142">
        <ele>917.78</ele>
        <time>2021-07-02T12:59:39Z</time>
      </trkpt>
      <trkpt lat="44.8548" lon="4.33138">
        <ele>918.05</ele>
        <time>2021-07-02T12:59:42Z</time>
      </trkpt>
      <trkpt lat="44.85479" lon="4.33136">
        <ele>918.41</ele>
        <time>2021-07-02T12:59:46Z</time>
      </trkpt>
      <trkpt lat="44.85479" lon="4.33133">
        <ele>918.59</ele>
        <time>2021-07-02T12:59:48Z</time>
      </trkpt>
      <trkpt lat="44.85478" lon="4.33129">
        <ele>918.77</ele>
        <time>2021-07-02T12:59:50Z</time>
      </trkpt>
      <trkpt lat="44.85477" lon="4.33126">
        <ele>918.85</ele>
        <time>2021-07-02T12:59:51Z</time>
      </trkpt>
      <trkpt lat="44.85477" lon="4.33123">
        <ele>919.03</ele>
        <time>2021-07-02T12:59:53Z</time>
      </trkpt>
      <trkpt lat="44.85476" lon="4.3312">
        <ele>919.11</ele>
        <time>2021-07-02T12:59:54Z</time>
      </trkpt>
      <trkpt lat="44.85476" lon="4.33117">
        <ele>919.37</ele>
        <time>2021-07-02T12:59:57Z</time>
      </trkpt>
      <trkpt lat="44.85474" lon="4.33114">
        <ele>919.7</ele>
        <time>2021-07-02T13:00:01Z</time>
      </trkpt>
      <trkpt lat="44.85473" lon="4.33112">
        <ele>920.03</ele>
        <time>2021-07-02T13:00:05Z</time>
      </trkpt>
      <trkpt lat="44.85472" lon="4.33109">
        <ele>920.19</ele>
        <time>2021-07-02T13:00:07Z</time>
      </trkpt>
      <trkpt lat="44.85471" lon="4.33107">
        <ele>920.34</ele>
        <time>2021-07-02T13:00:09Z</time>
      </trkpt>
      <trkpt lat="44.85471" lon="4.33103">
        <ele>920.63</ele>
        <time>2021-07-02T13:00:13Z</time>
      </trkpt>
      <trkpt lat="44.85469" lon="4.33099">
        <ele>920.84</ele>
        <time>2021-07-02T13:00:16Z</time>
      </trkpt>
      <trkpt lat="44.85469" lon="4.33096">
        <ele>921.05</ele>
        <time>2021-07-02T13:00:19Z</time>
      </trkpt>
      <trkpt lat="44.85469" lon="4.33091">
        <ele>921.32</ele>
        <time>2021-07-02T13:00:23Z</time>
      </trkpt>
      <trkpt lat="44.85468" lon="4.33086">
        <ele>921.45</ele>
        <time>2021-07-02T13:00:25Z</time>
      </trkpt>
      <trkpt lat="44.85467" lon="4.33081">
        <ele>921.59</ele>
        <time>2021-07-02T13:00:27Z</time>
      </trkpt>
      <trkpt lat="44.85467" lon="4.33078">
        <ele>921.85</ele>
        <time>2021-07-02T13:00:31Z</time>
      </trkpt>
      <trkpt lat="44.85467" lon="4.33073">
        <ele>922.05</ele>
        <time>2021-07-02T13:00:34Z</time>
      </trkpt>
      <trkpt lat="44.85467" lon="4.33069">
        <ele>922.17</ele>
        <time>2021-07-02T13:00:36Z</time>
      </trkpt>
      <trkpt lat="44.85467" lon="4.33066">
        <ele>922.23</ele>
        <time>2021-07-02T13:00:37Z</time>
      </trkpt>
      <trkpt lat="44.85467" lon="4.33062">
        <ele>922.42</ele>
        <time>2021-07-02T13:00:40Z</time>
      </trkpt>
      <trkpt lat="44.85465" lon="4.33058">
        <ele>922.82</ele>
        <time>2021-07-02T13:00:47Z</time>
      </trkpt>
      <trkpt lat="44.85464" lon="4.33055">
        <ele>922.93</ele>
        <time>2021-07-02T13:00:49Z</time>
      </trkpt>
      <trkpt lat="44.85463" lon="4.33053">
        <ele>923.04</ele>
        <time>2021-07-02T13:00:51Z</time>
      </trkpt>
      <trkpt lat="44.85462" lon="4.33049">
        <ele>923.2</ele>
        <time>2021-07-02T13:00:54Z</time>
      </trkpt>
      <trkpt lat="44.85463" lon="4.33046">
        <ele>923.55</ele>
        <time>2021-07-02T13:01:06Z</time>
      </trkpt>
      <trkpt lat="44.85463" lon="4.33043">
        <ele>923.76</ele>
        <time>2021-07-02T13:01:10Z</time>
      </trkpt>
      <trkpt lat="44.85463" lon="4.33037">
        <ele>923.96</ele>
        <time>2021-07-02T13:01:14Z</time>
      </trkpt>
      <trkpt lat="44.85463" lon="4.33034">
        <ele>924.11</ele>
        <time>2021-07-02T13:01:17Z</time>
      </trkpt>
      <trkpt lat="44.85463" lon="4.3303">
        <ele>924.21</ele>
        <time>2021-07-02T13:01:19Z</time>
      </trkpt>
      <trkpt lat="44.85463" lon="4.33027">
        <ele>924.3</ele>
        <time>2021-07-02T13:01:21Z</time>
      </trkpt>
      <trkpt lat="44.85461" lon="4.33024">
        <ele>924.4</ele>
        <time>2021-07-02T13:01:23Z</time>
      </trkpt>
      <trkpt lat="44.8546" lon="4.33019">
        <ele>924.59</ele>
        <time>2021-07-02T13:01:27Z</time>
      </trkpt>
      <trkpt lat="44.85459" lon="4.33017">
        <ele>924.74</ele>
        <time>2021-07-02T13:01:30Z</time>
      </trkpt>
      <trkpt lat="44.85458" lon="4.33014">
        <ele>924.79</ele>
        <time>2021-07-02T13:01:31Z</time>
      </trkpt>
      <trkpt lat="44.85456" lon="4.33011">
        <ele>924.89</ele>
        <time>2021-07-02T13:01:33Z</time>
      </trkpt>
      <trkpt lat="44.85455" lon="4.33009">
        <ele>924.98</ele>
        <time>2021-07-02T13:01:35Z</time>
      </trkpt>
      <trkpt lat="44.85453" lon="4.33004">
        <ele>925.13</ele>
        <time>2021-07-02T13:01:38Z</time>
      </trkpt>
      <trkpt lat="44.85453" lon="4.33">
        <ele>925.27</ele>
        <time>2021-07-02T13:01:41Z</time>
      </trkpt>
      <trkpt lat="44.85455" lon="4.32998">
        <ele>925.36</ele>
        <time>2021-07-02T13:01:43Z</time>
      </trkpt>
      <trkpt lat="44.85457" lon="4.32996">
        <ele>925.45</ele>
        <time>2021-07-02T13:01:45Z</time>
      </trkpt>
      <trkpt lat="44.85458" lon="4.32993">
        <ele>925.58</ele>
        <time>2021-07-02T13:01:48Z</time>
      </trkpt>
      <trkpt lat="44.85459" lon="4.3299">
        <ele>925.67</ele>
        <time>2021-07-02T13:01:50Z</time>
      </trkpt>
      <trkpt lat="44.85461" lon="4.32986">
        <ele>925.74</ele>
        <time>2021-07-02T13:01:52Z</time>
      </trkpt>
      <trkpt lat="44.85461" lon="4.32983">
        <ele>925.78</ele>
        <time>2021-07-02T13:01:53Z</time>
      </trkpt>
      <trkpt lat="44.85461" lon="4.3298">
        <ele>925.82</ele>
        <time>2021-07-02T13:01:54Z</time>
      </trkpt>
      <trkpt lat="44.8546" lon="4.32976">
        <ele>925.9</ele>
        <time>2021-07-02T13:01:56Z</time>
      </trkpt>
      <trkpt lat="44.85459" lon="4.32974">
        <ele>925.94</ele>
        <time>2021-07-02T13:01:58Z</time>
      </trkpt>
      <trkpt lat="44.85459" lon="4.32967">
        <ele>927.64</ele>
        <time>2021-07-02T13:03:01Z</time>
      </trkpt>
      <trkpt lat="44.85459" lon="4.32969">
        <ele>928.32</ele>
        <time>2021-07-02T13:03:16Z</time>
      </trkpt>
      <trkpt lat="44.85461" lon="4.32973">
        <ele>928.95</ele>
        <time>2021-07-02T13:03:32Z</time>
      </trkpt>
      <trkpt lat="44.85463" lon="4.32975">
        <ele>929.21</ele>
        <time>2021-07-02T13:03:59Z</time>
      </trkpt>
      <trkpt lat="44.85466" lon="4.32976">
        <ele>929.58</ele>
        <time>2021-07-02T13:04:08Z</time>
      </trkpt>
      <trkpt lat="44.85468" lon="4.32976">
        <ele>929.67</ele>
        <time>2021-07-02T13:04:10Z</time>
      </trkpt>
      <trkpt lat="44.85468" lon="4.32976">
        <ele>930.82</ele>
        <time>2021-07-02T13:04:49Z</time>
      </trkpt>
      <trkpt lat="44.85466" lon="4.32975">
        <ele>931.15</ele>
        <time>2021-07-02T13:04:55Z</time>
      </trkpt>
      <trkpt lat="44.85464" lon="4.32974">
        <ele>931.21</ele>
        <time>2021-07-02T13:04:56Z</time>
      </trkpt>
      <trkpt lat="44.85464" lon="4.32972">
        <ele>931.71</ele>
        <time>2021-07-02T13:05:09Z</time>
      </trkpt>
      <trkpt lat="44.85464" lon="4.32974">
        <ele>932.01</ele>
        <time>2021-07-02T13:05:16Z</time>
      </trkpt>
      <trkpt lat="44.85464" lon="4.32971">
        <ele>932.18</ele>
        <time>2021-07-02T13:05:23Z</time>
      </trkpt>
      <trkpt lat="44.85466" lon="4.32968">
        <ele>932.26</ele>
        <time>2021-07-02T13:05:25Z</time>
      </trkpt>
      <trkpt lat="44.85467" lon="4.32965">
        <ele>932.33</ele>
        <time>2021-07-02T13:05:27Z</time>
      </trkpt>
      <trkpt lat="44.85469" lon="4.32962">
        <ele>932.4</ele>
        <time>2021-07-02T13:05:29Z</time>
      </trkpt>
      <trkpt lat="44.85472" lon="4.32961">
        <ele>932.43</ele>
        <time>2021-07-02T13:05:30Z</time>
      </trkpt>
      <trkpt lat="44.85475" lon="4.32959">
        <ele>932.54</ele>
        <time>2021-07-02T13:05:33Z</time>
      </trkpt>
      <trkpt lat="44.85477" lon="4.32958">
        <ele>932.65</ele>
        <time>2021-07-02T13:05:36Z</time>
      </trkpt>
      <trkpt lat="44.8548" lon="4.32955">
        <ele>932.76</ele>
        <time>2021-07-02T13:05:39Z</time>
      </trkpt>
      <trkpt lat="44.85483" lon="4.32954">
        <ele>932.83</ele>
        <time>2021-07-02T13:05:41Z</time>
      </trkpt>
      <trkpt lat="44.85486" lon="4.32954">
        <ele>932.93</ele>
        <time>2021-07-02T13:05:44Z</time>
      </trkpt>
      <trkpt lat="44.85488" lon="4.3295">
        <ele>933.13</ele>
        <time>2021-07-02T13:05:49Z</time>
      </trkpt>
      <trkpt lat="44.8549" lon="4.32948">
        <ele>933.38</ele>
        <time>2021-07-02T13:05:56Z</time>
      </trkpt>
      <trkpt lat="44.85493" lon="4.32947">
        <ele>933.58</ele>
        <time>2021-07-02T13:06:02Z</time>
      </trkpt>
      <trkpt lat="44.85497" lon="4.32946">
        <ele>933.77</ele>
        <time>2021-07-02T13:06:05Z</time>
      </trkpt>
      <trkpt lat="44.855" lon="4.32945">
        <ele>933.9</ele>
        <time>2021-07-02T13:06:07Z</time>
      </trkpt>
      <trkpt lat="44.85502" lon="4.32944">
        <ele>933.97</ele>
        <time>2021-07-02T13:06:08Z</time>
      </trkpt>
      <trkpt lat="44.85504" lon="4.32943">
        <ele>934.04</ele>
        <time>2021-07-02T13:06:09Z</time>
      </trkpt>
      <trkpt lat="44.85506" lon="4.32944">
        <ele>934.11</ele>
        <time>2021-07-02T13:06:10Z</time>
      </trkpt>
      <trkpt lat="44.85509" lon="4.32944">
        <ele>934.27</ele>
        <time>2021-07-02T13:06:12Z</time>
      </trkpt>
      <trkpt lat="44.8551" lon="4.32944">
        <ele>934.36</ele>
        <time>2021-07-02T13:06:13Z</time>
      </trkpt>
      <trkpt lat="44.85512" lon="4.32944">
        <ele>934.46</ele>
        <time>2021-07-02T13:06:14Z</time>
      </trkpt>
      <trkpt lat="44.85515" lon="4.32944">
        <ele>934.66</ele>
        <time>2021-07-02T13:06:16Z</time>
      </trkpt>
      <trkpt lat="44.85517" lon="4.32943">
        <ele>934.78</ele>
        <time>2021-07-02T13:06:17Z</time>
      </trkpt>
      <trkpt lat="44.85519" lon="4.32942">
        <ele>934.9</ele>
        <time>2021-07-02T13:06:18Z</time>
      </trkpt>
      <trkpt lat="44.85521" lon="4.3294">
        <ele>935.18</ele>
        <time>2021-07-02T13:06:20Z</time>
      </trkpt>
      <trkpt lat="44.85523" lon="4.32938">
        <ele>935.79</ele>
        <time>2021-07-02T13:06:24Z</time>
      </trkpt>
      <trkpt lat="44.85526" lon="4.32936">
        <ele>936.35</ele>
        <time>2021-07-02T13:06:34Z</time>
      </trkpt>
      <trkpt lat="44.85528" lon="4.32937">
        <ele>936.99</ele>
        <time>2021-07-02T13:06:37Z</time>
      </trkpt>
      <trkpt lat="44.8553" lon="4.32937">
        <ele>937.87</ele>
        <time>2021-07-02T13:06:41Z</time>
      </trkpt>
      <trkpt lat="44.85532" lon="4.32936">
        <ele>939.33</ele>
        <time>2021-07-02T13:06:53Z</time>
      </trkpt>
      <trkpt lat="44.85534" lon="4.32942">
        <ele>941.9</ele>
        <time>2021-07-02T13:07:21Z</time>
      </trkpt>
      <trkpt lat="44.85535" lon="4.32944">
        <ele>943.01</ele>
        <time>2021-07-02T13:07:26Z</time>
      </trkpt>
      <trkpt lat="44.85535" lon="4.32946">
        <ele>945.64</ele>
        <time>2021-07-02T13:08:12Z</time>
      </trkpt>
      <trkpt lat="44.85532" lon="4.32948">
        <ele>949.78</ele>
        <time>2021-07-02T13:08:48Z</time>
      </trkpt>
      <trkpt lat="44.8553" lon="4.32945">
        <ele>950.55</ele>
        <time>2021-07-02T13:08:50Z</time>
      </trkpt>
      <trkpt lat="44.85529" lon="4.32942">
        <ele>951.29</ele>
        <time>2021-07-02T13:08:52Z</time>
      </trkpt>
      <trkpt lat="44.85528" lon="4.32938">
        <ele>952.36</ele>
        <time>2021-07-02T13:08:55Z</time>
      </trkpt>
      <trkpt lat="44.85526" lon="4.32935">
        <ele>953.37</ele>
        <time>2021-07-02T13:08:58Z</time>
      </trkpt>
      <trkpt lat="44.85525" lon="4.32932">
        <ele>954.33</ele>
        <time>2021-07-02T13:09:01Z</time>
      </trkpt>
      <trkpt lat="44.85524" lon="4.3293">
        <ele>954.93</ele>
        <time>2021-07-02T13:09:03Z</time>
      </trkpt>
      <trkpt lat="44.85522" lon="4.32927">
        <ele>956.08</ele>
        <time>2021-07-02T13:09:07Z</time>
      </trkpt>
      <trkpt lat="44.8552" lon="4.32923">
        <ele>956.61</ele>
        <time>2021-07-02T13:09:09Z</time>
      </trkpt>
      <trkpt lat="44.85518" lon="4.3292">
        <ele>957.62</ele>
        <time>2021-07-02T13:09:13Z</time>
      </trkpt>
      <trkpt lat="44.85515" lon="4.32917">
        <ele>958.09</ele>
        <time>2021-07-02T13:09:15Z</time>
      </trkpt>
      <trkpt lat="44.85513" lon="4.32915">
        <ele>958.54</ele>
        <time>2021-07-02T13:09:17Z</time>
      </trkpt>
      <trkpt lat="44.85511" lon="4.32912">
        <ele>958.98</ele>
        <time>2021-07-02T13:09:19Z</time>
      </trkpt>
      <trkpt lat="44.85509" lon="4.32909">
        <ele>959.6</ele>
        <time>2021-07-02T13:09:22Z</time>
      </trkpt>
      <trkpt lat="44.85508" lon="4.32905">
        <ele>960.39</ele>
        <time>2021-07-02T13:09:27Z</time>
      </trkpt>
      <trkpt lat="44.85506" lon="4.32903">
        <ele>960.93</ele>
        <time>2021-07-02T13:09:30Z</time>
      </trkpt>
      <trkpt lat="44.85505" lon="4.32901">
        <ele>961.1</ele>
        <time>2021-07-02T13:09:31Z</time>
      </trkpt>
      <trkpt lat="44.85504" lon="4.32898">
        <ele>961.6</ele>
        <time>2021-07-02T13:09:34Z</time>
      </trkpt>
      <trkpt lat="44.85503" lon="4.32895">
        <ele>961.91</ele>
        <time>2021-07-02T13:09:36Z</time>
      </trkpt>
      <trkpt lat="44.85502" lon="4.32891">
        <ele>962.21</ele>
        <time>2021-07-02T13:09:38Z</time>
      </trkpt>
      <trkpt lat="44.85501" lon="4.32887">
        <ele>962.64</ele>
        <time>2021-07-02T13:09:41Z</time>
      </trkpt>
      <trkpt lat="44.85499" lon="4.32883">
        <ele>963.05</ele>
        <time>2021-07-02T13:09:44Z</time>
      </trkpt>
      <trkpt lat="44.85498" lon="4.32881">
        <ele>963.3</ele>
        <time>2021-07-02T13:09:46Z</time>
      </trkpt>
      <trkpt lat="44.85496" lon="4.32879">
        <ele>963.43</ele>
        <time>2021-07-02T13:09:47Z</time>
      </trkpt>
      <trkpt lat="44.85495" lon="4.32875">
        <ele>963.55</ele>
        <time>2021-07-02T13:09:48Z</time>
      </trkpt>
      <trkpt lat="44.85494" lon="4.32872">
        <ele>963.67</ele>
        <time>2021-07-02T13:09:49Z</time>
      </trkpt>
      <trkpt lat="44.85492" lon="4.32868">
        <ele>963.9</ele>
        <time>2021-07-02T13:09:51Z</time>
      </trkpt>
      <trkpt lat="44.85492" lon="4.32865">
        <ele>964.13</ele>
        <time>2021-07-02T13:09:53Z</time>
      </trkpt>
      <trkpt lat="44.8549" lon="4.32861">
        <ele>964.35</ele>
        <time>2021-07-02T13:09:55Z</time>
      </trkpt>
      <trkpt lat="44.8549" lon="4.32858">
        <ele>964.56</ele>
        <time>2021-07-02T13:09:57Z</time>
      </trkpt>
      <trkpt lat="44.8549" lon="4.32854">
        <ele>964.96</ele>
        <time>2021-07-02T13:10:01Z</time>
      </trkpt>
      <trkpt lat="44.85489" lon="4.3285">
        <ele>965.41</ele>
        <time>2021-07-02T13:10:06Z</time>
      </trkpt>
      <trkpt lat="44.85488" lon="4.32848">
        <ele>965.75</ele>
        <time>2021-07-02T13:10:10Z</time>
      </trkpt>
      <trkpt lat="44.85486" lon="4.32845">
        <ele>965.98</ele>
        <time>2021-07-02T13:10:13Z</time>
      </trkpt>
      <trkpt lat="44.85486" lon="4.32841">
        <ele>966.13</ele>
        <time>2021-07-02T13:10:15Z</time>
      </trkpt>
      <trkpt lat="44.85486" lon="4.32839">
        <ele>966.27</ele>
        <time>2021-07-02T13:10:17Z</time>
      </trkpt>
      <trkpt lat="44.85486" lon="4.32835">
        <ele>966.41</ele>
        <time>2021-07-02T13:10:19Z</time>
      </trkpt>
      <trkpt lat="44.85486" lon="4.32832">
        <ele>966.96</ele>
        <time>2021-07-02T13:10:37Z</time>
      </trkpt>
      <trkpt lat="44.85483" lon="4.32829">
        <ele>967.15</ele>
        <time>2021-07-02T13:10:40Z</time>
      </trkpt>
      <trkpt lat="44.85483" lon="4.32826">
        <ele>967.27</ele>
        <time>2021-07-02T13:10:42Z</time>
      </trkpt>
      <trkpt lat="44.85481" lon="4.32822">
        <ele>967.38</ele>
        <time>2021-07-02T13:10:44Z</time>
      </trkpt>
      <trkpt lat="44.85481" lon="4.32819">
        <ele>967.5</ele>
        <time>2021-07-02T13:10:46Z</time>
      </trkpt>
      <trkpt lat="44.8548" lon="4.32815">
        <ele>967.61</ele>
        <time>2021-07-02T13:10:48Z</time>
      </trkpt>
      <trkpt lat="44.8548" lon="4.32812">
        <ele>967.77</ele>
        <time>2021-07-02T13:10:51Z</time>
      </trkpt>
      <trkpt lat="44.8548" lon="4.32809">
        <ele>967.87</ele>
        <time>2021-07-02T13:10:53Z</time>
      </trkpt>
      <trkpt lat="44.8548" lon="4.32806">
        <ele>967.92</ele>
        <time>2021-07-02T13:10:54Z</time>
      </trkpt>
      <trkpt lat="44.8548" lon="4.32802">
        <ele>968.02</ele>
        <time>2021-07-02T13:10:56Z</time>
      </trkpt>
      <trkpt lat="44.8548" lon="4.32798">
        <ele>968.12</ele>
        <time>2021-07-02T13:10:58Z</time>
      </trkpt>
      <trkpt lat="44.8548" lon="4.32795">
        <ele>968.21</ele>
        <time>2021-07-02T13:11:00Z</time>
      </trkpt>
      <trkpt lat="44.85479" lon="4.32791">
        <ele>968.34</ele>
        <time>2021-07-02T13:11:03Z</time>
      </trkpt>
      <trkpt lat="44.85479" lon="4.32788">
        <ele>968.43</ele>
        <time>2021-07-02T13:11:05Z</time>
      </trkpt>
      <trkpt lat="44.85478" lon="4.32784">
        <ele>968.55</ele>
        <time>2021-07-02T13:11:08Z</time>
      </trkpt>
      <trkpt lat="44.85477" lon="4.32781">
        <ele>968.63</ele>
        <time>2021-07-02T13:11:10Z</time>
      </trkpt>
      <trkpt lat="44.85478" lon="4.32778">
        <ele>968.71</ele>
        <time>2021-07-02T13:11:15Z</time>
      </trkpt>
      <trkpt lat="44.85479" lon="4.32775">
        <ele>968.85</ele>
        <time>2021-07-02T13:11:29Z</time>
      </trkpt>
      <trkpt lat="44.85481" lon="4.32773">
        <ele>968.97</ele>
        <time>2021-07-02T13:11:33Z</time>
      </trkpt>
      <trkpt lat="44.85481" lon="4.3277">
        <ele>969.02</ele>
        <time>2021-07-02T13:11:35Z</time>
      </trkpt>
      <trkpt lat="44.85483" lon="4.32769">
        <ele>969.14</ele>
        <time>2021-07-02T13:11:41Z</time>
      </trkpt>
      <trkpt lat="44.85485" lon="4.32769">
        <ele>969.18</ele>
        <time>2021-07-02T13:11:43Z</time>
      </trkpt>
      <trkpt lat="44.85487" lon="4.32769">
        <ele>969.24</ele>
        <time>2021-07-02T13:12:01Z</time>
      </trkpt>
      <trkpt lat="44.8549" lon="4.32769">
        <ele>969.34</ele>
        <time>2021-07-02T13:12:06Z</time>
      </trkpt>
      <trkpt lat="44.85493" lon="4.3277">
        <ele>969.39</ele>
        <time>2021-07-02T13:12:08Z</time>
      </trkpt>
      <trkpt lat="44.85495" lon="4.32771">
        <ele>969.44</ele>
        <time>2021-07-02T13:12:10Z</time>
      </trkpt>
      <trkpt lat="44.85499" lon="4.32772">
        <ele>969.5</ele>
        <time>2021-07-02T13:12:12Z</time>
      </trkpt>
      <trkpt lat="44.85501" lon="4.32771">
        <ele>969.52</ele>
        <time>2021-07-02T13:12:13Z</time>
      </trkpt>
      <trkpt lat="44.85504" lon="4.32772">
        <ele>969.57</ele>
        <time>2021-07-02T13:12:16Z</time>
      </trkpt>
      <trkpt lat="44.85506" lon="4.32772">
        <ele>969.66</ele>
        <time>2021-07-02T13:12:26Z</time>
      </trkpt>
      <trkpt lat="44.85508" lon="4.32772">
        <ele>969.73</ele>
        <time>2021-07-02T13:12:53Z</time>
      </trkpt>
      <trkpt lat="44.8551" lon="4.32772">
        <ele>969.8</ele>
        <time>2021-07-02T13:13:02Z</time>
      </trkpt>
      <trkpt lat="44.85513" lon="4.32772">
        <ele>969.81</ele>
        <time>2021-07-02T13:13:03Z</time>
      </trkpt>
      <trkpt lat="44.85515" lon="4.32772">
        <ele>969.83</ele>
        <time>2021-07-02T13:13:04Z</time>
      </trkpt>
      <trkpt lat="44.85518" lon="4.32771">
        <ele>969.87</ele>
        <time>2021-07-02T13:13:06Z</time>
      </trkpt>
      <trkpt lat="44.8552" lon="4.32771">
        <ele>969.89</ele>
        <time>2021-07-02T13:13:07Z</time>
      </trkpt>
      <trkpt lat="44.85522" lon="4.3277">
        <ele>969.94</ele>
        <time>2021-07-02T13:13:09Z</time>
      </trkpt>
      <trkpt lat="44.85525" lon="4.32771">
        <ele>970</ele>
        <time>2021-07-02T13:13:11Z</time>
      </trkpt>
      <trkpt lat="44.85528" lon="4.32771">
        <ele>970.05</ele>
        <time>2021-07-02T13:13:13Z</time>
      </trkpt>
      <trkpt lat="44.85531" lon="4.32771">
        <ele>970.11</ele>
        <time>2021-07-02T13:13:15Z</time>
      </trkpt>
      <trkpt lat="44.85533" lon="4.32772">
        <ele>970.17</ele>
        <time>2021-07-02T13:13:17Z</time>
      </trkpt>
      <trkpt lat="44.85535" lon="4.32772">
        <ele>970.23</ele>
        <time>2021-07-02T13:13:19Z</time>
      </trkpt>
      <trkpt lat="44.85538" lon="4.32772">
        <ele>970.35</ele>
        <time>2021-07-02T13:13:23Z</time>
      </trkpt>
      <trkpt lat="44.8554" lon="4.32773">
        <ele>970.42</ele>
        <time>2021-07-02T13:13:27Z</time>
      </trkpt>
      <trkpt lat="44.85542" lon="4.32773">
        <ele>970.66</ele>
        <time>2021-07-02T13:13:52Z</time>
      </trkpt>
      <trkpt lat="44.85544" lon="4.32773">
        <ele>970.72</ele>
        <time>2021-07-02T13:13:53Z</time>
      </trkpt>
      <trkpt lat="44.85547" lon="4.32773">
        <ele>970.83</ele>
        <time>2021-07-02T13:13:55Z</time>
      </trkpt>
      <trkpt lat="44.8555" lon="4.32773">
        <ele>970.94</ele>
        <time>2021-07-02T13:13:57Z</time>
      </trkpt>
      <trkpt lat="44.85552" lon="4.32772">
        <ele>971.05</ele>
        <time>2021-07-02T13:13:59Z</time>
      </trkpt>
      <trkpt lat="44.85554" lon="4.3277">
        <ele>971.22</ele>
        <time>2021-07-02T13:14:04Z</time>
      </trkpt>
      <trkpt lat="44.85554" lon="4.32768">
        <ele>971.56</ele>
        <time>2021-07-02T13:14:23Z</time>
      </trkpt>
      <trkpt lat="44.85556" lon="4.32768">
        <ele>971.97</ele>
        <time>2021-07-02T13:14:37Z</time>
      </trkpt>
      <trkpt lat="44.85559" lon="4.32769">
        <ele>972.11</ele>
        <time>2021-07-02T13:14:39Z</time>
      </trkpt>
      <trkpt lat="44.85562" lon="4.32768">
        <ele>972.24</ele>
        <time>2021-07-02T13:14:41Z</time>
      </trkpt>
      <trkpt lat="44.85564" lon="4.32766">
        <ele>972.43</ele>
        <time>2021-07-02T13:14:44Z</time>
      </trkpt>
      <trkpt lat="44.85566" lon="4.32765">
        <ele>972.56</ele>
        <time>2021-07-02T13:14:46Z</time>
      </trkpt>
      <trkpt lat="44.85568" lon="4.32765">
        <ele>972.74</ele>
        <time>2021-07-02T13:14:49Z</time>
      </trkpt>
      <trkpt lat="44.8557" lon="4.32764">
        <ele>972.91</ele>
        <time>2021-07-02T13:14:52Z</time>
      </trkpt>
      <trkpt lat="44.85572" lon="4.3276">
        <ele>973.02</ele>
        <time>2021-07-02T13:14:54Z</time>
      </trkpt>
      <trkpt lat="44.85574" lon="4.32758">
        <ele>973.19</ele>
        <time>2021-07-02T13:14:57Z</time>
      </trkpt>
      <trkpt lat="44.85576" lon="4.32756">
        <ele>973.39</ele>
        <time>2021-07-02T13:15:01Z</time>
      </trkpt>
      <trkpt lat="44.85578" lon="4.32755">
        <ele>973.49</ele>
        <time>2021-07-02T13:15:03Z</time>
      </trkpt>
      <trkpt lat="44.8558" lon="4.32754">
        <ele>973.62</ele>
        <time>2021-07-02T13:15:06Z</time>
      </trkpt>
      <trkpt lat="44.85583" lon="4.32754">
        <ele>973.79</ele>
        <time>2021-07-02T13:15:10Z</time>
      </trkpt>
      <trkpt lat="44.85586" lon="4.32752">
        <ele>973.91</ele>
        <time>2021-07-02T13:15:13Z</time>
      </trkpt>
      <trkpt lat="44.85588" lon="4.32752">
        <ele>973.99</ele>
        <time>2021-07-02T13:15:15Z</time>
      </trkpt>
      <trkpt lat="44.8559" lon="4.32751">
        <ele>974.06</ele>
        <time>2021-07-02T13:15:17Z</time>
      </trkpt>
      <trkpt lat="44.85593" lon="4.3275">
        <ele>974.21</ele>
        <time>2021-07-02T13:15:21Z</time>
      </trkpt>
      <trkpt lat="44.85595" lon="4.32751">
        <ele>974.38</ele>
        <time>2021-07-02T13:15:26Z</time>
      </trkpt>
      <trkpt lat="44.85599" lon="4.3275">
        <ele>974.47</ele>
        <time>2021-07-02T13:15:29Z</time>
      </trkpt>
      <trkpt lat="44.85602" lon="4.3275">
        <ele>974.57</ele>
        <time>2021-07-02T13:15:32Z</time>
      </trkpt>
      <trkpt lat="44.85605" lon="4.3275">
        <ele>974.63</ele>
        <time>2021-07-02T13:15:34Z</time>
      </trkpt>
      <trkpt lat="44.85608" lon="4.3275">
        <ele>974.68</ele>
        <time>2021-07-02T13:15:36Z</time>
      </trkpt>
      <trkpt lat="44.85611" lon="4.32749">
        <ele>974.79</ele>
        <time>2021-07-02T13:15:40Z</time>
      </trkpt>
      <trkpt lat="44.85614" lon="4.3275">
        <ele>974.91</ele>
        <time>2021-07-02T13:15:45Z</time>
      </trkpt>
      <trkpt lat="44.85617" lon="4.32749">
        <ele>974.98</ele>
        <time>2021-07-02T13:15:48Z</time>
      </trkpt>
      <trkpt lat="44.85619" lon="4.32748">
        <ele>975.06</ele>
        <time>2021-07-02T13:15:52Z</time>
      </trkpt>
      <trkpt lat="44.85622" lon="4.32749">
        <ele>975.1</ele>
        <time>2021-07-02T13:16:04Z</time>
      </trkpt>
      <trkpt lat="44.85625" lon="4.32748">
        <ele>975.26</ele>
        <time>2021-07-02T13:16:16Z</time>
      </trkpt>
      <trkpt lat="44.85627" lon="4.32747">
        <ele>975.42</ele>
        <time>2021-07-02T13:16:20Z</time>
      </trkpt>
      <trkpt lat="44.85625" lon="4.32746">
        <ele>975.74</ele>
        <time>2021-07-02T13:16:48Z</time>
      </trkpt>
      <trkpt lat="44.85623" lon="4.32743">
        <ele>975.86</ele>
        <time>2021-07-02T13:16:51Z</time>
      </trkpt>
      <trkpt lat="44.85621" lon="4.3274">
        <ele>975.94</ele>
        <time>2021-07-02T13:16:53Z</time>
      </trkpt>
      <trkpt lat="44.85623" lon="4.32736">
        <ele>976.16</ele>
        <time>2021-07-02T13:17:00Z</time>
      </trkpt>
      <trkpt lat="44.85624" lon="4.32734">
        <ele>976.34</ele>
        <time>2021-07-02T13:17:06Z</time>
      </trkpt>
      <trkpt lat="44.85627" lon="4.32735">
        <ele>976.45</ele>
        <time>2021-07-02T13:17:12Z</time>
      </trkpt>
      <trkpt lat="44.85629" lon="4.32734">
        <ele>976.53</ele>
        <time>2021-07-02T13:17:15Z</time>
      </trkpt>
      <trkpt lat="44.85631" lon="4.32731">
        <ele>976.58</ele>
        <time>2021-07-02T13:17:17Z</time>
      </trkpt>
      <trkpt lat="44.85632" lon="4.32727">
        <ele>976.65</ele>
        <time>2021-07-02T13:17:20Z</time>
      </trkpt>
      <trkpt lat="44.85634" lon="4.32724">
        <ele>976.73</ele>
        <time>2021-07-02T13:17:24Z</time>
      </trkpt>
      <trkpt lat="44.85635" lon="4.32722">
        <ele>976.81</ele>
        <time>2021-07-02T13:17:28Z</time>
      </trkpt>
      <trkpt lat="44.85638" lon="4.3272">
        <ele>976.88</ele>
        <time>2021-07-02T13:17:32Z</time>
      </trkpt>
      <trkpt lat="44.8564" lon="4.32719">
        <ele>976.91</ele>
        <time>2021-07-02T13:17:34Z</time>
      </trkpt>
      <trkpt lat="44.85643" lon="4.32718">
        <ele>976.96</ele>
        <time>2021-07-02T13:17:38Z</time>
      </trkpt>
      <trkpt lat="44.85644" lon="4.32717">
        <ele>977.04</ele>
        <time>2021-07-02T13:17:44Z</time>
      </trkpt>
      <trkpt lat="44.85646" lon="4.32713">
        <ele>977.06</ele>
        <time>2021-07-02T13:17:46Z</time>
      </trkpt>
      <trkpt lat="44.85648" lon="4.32711">
        <ele>977.08</ele>
        <time>2021-07-02T13:17:47Z</time>
      </trkpt>
      <trkpt lat="44.8565" lon="4.32708">
        <ele>977.11</ele>
        <time>2021-07-02T13:17:50Z</time>
      </trkpt>
      <trkpt lat="44.85652" lon="4.32705">
        <ele>977.15</ele>
        <time>2021-07-02T13:17:53Z</time>
      </trkpt>
      <trkpt lat="44.85653" lon="4.32703">
        <ele>977.16</ele>
        <time>2021-07-02T13:17:54Z</time>
      </trkpt>
      <trkpt lat="44.85654" lon="4.32701">
        <ele>977.18</ele>
        <time>2021-07-02T13:17:56Z</time>
      </trkpt>
      <trkpt lat="44.85656" lon="4.32699">
        <ele>977.21</ele>
        <time>2021-07-02T13:17:59Z</time>
      </trkpt>
      <trkpt lat="44.85659" lon="4.32698">
        <ele>977.24</ele>
        <time>2021-07-02T13:18:02Z</time>
      </trkpt>
      <trkpt lat="44.85662" lon="4.32698">
        <ele>977.26</ele>
        <time>2021-07-02T13:18:05Z</time>
      </trkpt>
      <trkpt lat="44.85664" lon="4.32696">
        <ele>977.27</ele>
        <time>2021-07-02T13:18:06Z</time>
      </trkpt>
      <trkpt lat="44.85667" lon="4.32696">
        <ele>977.28</ele>
        <time>2021-07-02T13:18:08Z</time>
      </trkpt>
      <trkpt lat="44.85669" lon="4.32693">
        <ele>977.29</ele>
        <time>2021-07-02T13:18:09Z</time>
      </trkpt>
      <trkpt lat="44.85671" lon="4.32691">
        <ele>977.37</ele>
        <time>2021-07-02T13:18:25Z</time>
      </trkpt>
      <trkpt lat="44.85674" lon="4.32691">
        <ele>977.39</ele>
        <time>2021-07-02T13:18:27Z</time>
      </trkpt>
      <trkpt lat="44.85676" lon="4.3269">
        <ele>977.4</ele>
        <time>2021-07-02T13:18:29Z</time>
      </trkpt>
      <trkpt lat="44.85679" lon="4.3269">
        <ele>977.41</ele>
        <time>2021-07-02T13:18:31Z</time>
      </trkpt>
      <trkpt lat="44.85682" lon="4.32689">
        <ele>977.44</ele>
        <time>2021-07-02T13:18:38Z</time>
      </trkpt>
      <trkpt lat="44.85685" lon="4.32689">
        <ele>977.46</ele>
        <time>2021-07-02T13:18:42Z</time>
      </trkpt>
      <trkpt lat="44.85687" lon="4.32688">
        <ele>977.47</ele>
        <time>2021-07-02T13:18:45Z</time>
      </trkpt>
      <trkpt lat="44.85689" lon="4.32687">
        <ele>977.48</ele>
        <time>2021-07-02T13:18:47Z</time>
      </trkpt>
      <trkpt lat="44.8569" lon="4.32684">
        <ele>977.49</ele>
        <time>2021-07-02T13:18:49Z</time>
      </trkpt>
      <trkpt lat="44.85691" lon="4.32681">
        <ele>977.49</ele>
        <time>2021-07-02T13:18:51Z</time>
      </trkpt>
      <trkpt lat="44.85692" lon="4.32678">
        <ele>977.5</ele>
        <time>2021-07-02T13:18:53Z</time>
      </trkpt>
      <trkpt lat="44.85693" lon="4.32675">
        <ele>977.51</ele>
        <time>2021-07-02T13:18:55Z</time>
      </trkpt>
      <trkpt lat="44.85694" lon="4.32672">
        <ele>977.52</ele>
        <time>2021-07-02T13:18:57Z</time>
      </trkpt>
      <trkpt lat="44.85695" lon="4.32668">
        <ele>977.53</ele>
        <time>2021-07-02T13:19:00Z</time>
      </trkpt>
      <trkpt lat="44.85696" lon="4.32665">
        <ele>977.54</ele>
        <time>2021-07-02T13:19:02Z</time>
      </trkpt>
      <trkpt lat="44.85697" lon="4.32662">
        <ele>977.54</ele>
        <time>2021-07-02T13:19:03Z</time>
      </trkpt>
      <trkpt lat="44.85697" lon="4.32659">
        <ele>977.56</ele>
        <time>2021-07-02T13:19:06Z</time>
      </trkpt>
      <trkpt lat="44.85697" lon="4.32655">
        <ele>977.57</ele>
        <time>2021-07-02T13:19:09Z</time>
      </trkpt>
      <trkpt lat="44.85699" lon="4.32654">
        <ele>977.58</ele>
        <time>2021-07-02T13:19:12Z</time>
      </trkpt>
      <trkpt lat="44.857" lon="4.32651">
        <ele>977.59</ele>
        <time>2021-07-02T13:19:14Z</time>
      </trkpt>
      <trkpt lat="44.85701" lon="4.32648">
        <ele>977.6</ele>
        <time>2021-07-02T13:19:17Z</time>
      </trkpt>
      <trkpt lat="44.85703" lon="4.32646">
        <ele>977.6</ele>
        <time>2021-07-02T13:19:19Z</time>
      </trkpt>
      <trkpt lat="44.85704" lon="4.32643">
        <ele>977.61</ele>
        <time>2021-07-02T13:19:21Z</time>
      </trkpt>
      <trkpt lat="44.85705" lon="4.32639">
        <ele>977.61</ele>
        <time>2021-07-02T13:19:24Z</time>
      </trkpt>
      <trkpt lat="44.85706" lon="4.32635">
        <ele>977.61</ele>
        <time>2021-07-02T13:19:26Z</time>
      </trkpt>
      <trkpt lat="44.85707" lon="4.32633">
        <ele>977.62</ele>
        <time>2021-07-02T13:19:27Z</time>
      </trkpt>
      <trkpt lat="44.85708" lon="4.3263">
        <ele>977.62</ele>
        <time>2021-07-02T13:19:28Z</time>
      </trkpt>
      <trkpt lat="44.85711" lon="4.32627">
        <ele>977.63</ele>
        <time>2021-07-02T13:19:30Z</time>
      </trkpt>
      <trkpt lat="44.85713" lon="4.32624">
        <ele>977.64</ele>
        <time>2021-07-02T13:19:32Z</time>
      </trkpt>
      <trkpt lat="44.85713" lon="4.32621">
        <ele>977.66</ele>
        <time>2021-07-02T13:19:35Z</time>
      </trkpt>
      <trkpt lat="44.85714" lon="4.32617">
        <ele>977.68</ele>
        <time>2021-07-02T13:19:38Z</time>
      </trkpt>
      <trkpt lat="44.85716" lon="4.32613">
        <ele>977.71</ele>
        <time>2021-07-02T13:19:41Z</time>
      </trkpt>
      <trkpt lat="44.85718" lon="4.3261">
        <ele>977.73</ele>
        <time>2021-07-02T13:19:44Z</time>
      </trkpt>
      <trkpt lat="44.85719" lon="4.32606">
        <ele>977.77</ele>
        <time>2021-07-02T13:19:48Z</time>
      </trkpt>
      <trkpt lat="44.8572" lon="4.32603">
        <ele>977.81</ele>
        <time>2021-07-02T13:19:52Z</time>
      </trkpt>
      <trkpt lat="44.85721" lon="4.326">
        <ele>977.83</ele>
        <time>2021-07-02T13:19:54Z</time>
      </trkpt>
      <trkpt lat="44.85723" lon="4.32598">
        <ele>977.85</ele>
        <time>2021-07-02T13:19:57Z</time>
      </trkpt>
      <trkpt lat="44.85725" lon="4.32597">
        <ele>977.86</ele>
        <time>2021-07-02T13:19:59Z</time>
      </trkpt>
      <trkpt lat="44.85727" lon="4.32594">
        <ele>977.88</ele>
        <time>2021-07-02T13:20:01Z</time>
      </trkpt>
      <trkpt lat="44.85727" lon="4.32589">
        <ele>977.89</ele>
        <time>2021-07-02T13:20:03Z</time>
      </trkpt>
      <trkpt lat="44.85729" lon="4.32587">
        <ele>977.9</ele>
        <time>2021-07-02T13:20:05Z</time>
      </trkpt>
      <trkpt lat="44.8573" lon="4.32582">
        <ele>977.92</ele>
        <time>2021-07-02T13:20:08Z</time>
      </trkpt>
      <trkpt lat="44.85733" lon="4.32578">
        <ele>977.93</ele>
        <time>2021-07-02T13:20:10Z</time>
      </trkpt>
      <trkpt lat="44.85735" lon="4.32577">
        <ele>977.94</ele>
        <time>2021-07-02T13:20:13Z</time>
      </trkpt>
      <trkpt lat="44.85736" lon="4.32573">
        <ele>977.96</ele>
        <time>2021-07-02T13:20:16Z</time>
      </trkpt>
      <trkpt lat="44.85737" lon="4.32571">
        <ele>977.99</ele>
        <time>2021-07-02T13:20:24Z</time>
      </trkpt>
      <trkpt lat="44.85739" lon="4.32568">
        <ele>978.03</ele>
        <time>2021-07-02T13:20:30Z</time>
      </trkpt>
      <trkpt lat="44.8574" lon="4.32564">
        <ele>978.04</ele>
        <time>2021-07-02T13:20:32Z</time>
      </trkpt>
      <trkpt lat="44.85741" lon="4.3256">
        <ele>978.06</ele>
        <time>2021-07-02T13:20:36Z</time>
      </trkpt>
      <trkpt lat="44.85741" lon="4.32557">
        <ele>978.07</ele>
        <time>2021-07-02T13:20:37Z</time>
      </trkpt>
      <trkpt lat="44.85742" lon="4.32552">
        <ele>978.08</ele>
        <time>2021-07-02T13:20:40Z</time>
      </trkpt>
      <trkpt lat="44.85743" lon="4.32548">
        <ele>978.09</ele>
        <time>2021-07-02T13:20:42Z</time>
      </trkpt>
      <trkpt lat="44.85743" lon="4.32545">
        <ele>978.11</ele>
        <time>2021-07-02T13:20:44Z</time>
      </trkpt>
      <trkpt lat="44.85744" lon="4.32542">
        <ele>978.12</ele>
        <time>2021-07-02T13:20:46Z</time>
      </trkpt>
      <trkpt lat="44.85747" lon="4.32538">
        <ele>978.13</ele>
        <time>2021-07-02T13:20:47Z</time>
      </trkpt>
      <trkpt lat="44.85747" lon="4.32534">
        <ele>978.17</ele>
        <time>2021-07-02T13:20:52Z</time>
      </trkpt>
      <trkpt lat="44.85752" lon="4.32535">
        <ele>978.18</ele>
        <time>2021-07-02T13:20:54Z</time>
      </trkpt>
      <trkpt lat="44.85754" lon="4.32535">
        <ele>978.19</ele>
        <time>2021-07-02T13:20:55Z</time>
      </trkpt>
      <trkpt lat="44.85756" lon="4.32533">
        <ele>978.19</ele>
        <time>2021-07-02T13:20:56Z</time>
      </trkpt>
      <trkpt lat="44.85758" lon="4.32532">
        <ele>978.2</ele>
        <time>2021-07-02T13:20:57Z</time>
      </trkpt>
      <trkpt lat="44.85759" lon="4.32529">
        <ele>978.21</ele>
        <time>2021-07-02T13:20:59Z</time>
      </trkpt>
      <trkpt lat="44.85759" lon="4.32525">
        <ele>978.22</ele>
        <time>2021-07-02T13:21:02Z</time>
      </trkpt>
      <trkpt lat="44.8576" lon="4.32522">
        <ele>978.23</ele>
        <time>2021-07-02T13:21:03Z</time>
      </trkpt>
      <trkpt lat="44.85761" lon="4.32519">
        <ele>978.23</ele>
        <time>2021-07-02T13:21:04Z</time>
      </trkpt>
      <trkpt lat="44.8576" lon="4.32516">
        <ele>978.24</ele>
        <time>2021-07-02T13:21:06Z</time>
      </trkpt>
      <trkpt lat="44.85761" lon="4.32514">
        <ele>978.25</ele>
        <time>2021-07-02T13:21:09Z</time>
      </trkpt>
      <trkpt lat="44.85763" lon="4.32511">
        <ele>978.26</ele>
        <time>2021-07-02T13:21:11Z</time>
      </trkpt>
      <trkpt lat="44.85766" lon="4.32507">
        <ele>978.28</ele>
        <time>2021-07-02T13:21:15Z</time>
      </trkpt>
      <trkpt lat="44.85768" lon="4.32505">
        <ele>978.3</ele>
        <time>2021-07-02T13:21:18Z</time>
      </trkpt>
      <trkpt lat="44.85769" lon="4.32503">
        <ele>978.31</ele>
        <time>2021-07-02T13:21:20Z</time>
      </trkpt>
      <trkpt lat="44.8577" lon="4.325">
        <ele>978.32</ele>
        <time>2021-07-02T13:21:22Z</time>
      </trkpt>
      <trkpt lat="44.85771" lon="4.32497">
        <ele>978.33</ele>
        <time>2021-07-02T13:21:26Z</time>
      </trkpt>
      <trkpt lat="44.85772" lon="4.32493">
        <ele>978.35</ele>
        <time>2021-07-02T13:21:29Z</time>
      </trkpt>
      <trkpt lat="44.85774" lon="4.32491">
        <ele>978.37</ele>
        <time>2021-07-02T13:21:31Z</time>
      </trkpt>
      <trkpt lat="44.85775" lon="4.32488">
        <ele>978.4</ele>
        <time>2021-07-02T13:21:36Z</time>
      </trkpt>
      <trkpt lat="44.85776" lon="4.32485">
        <ele>978.43</ele>
        <time>2021-07-02T13:21:39Z</time>
      </trkpt>
      <trkpt lat="44.85777" lon="4.32482">
        <ele>978.46</ele>
        <time>2021-07-02T13:21:43Z</time>
      </trkpt>
      <trkpt lat="44.85776" lon="4.32478">
        <ele>978.48</ele>
        <time>2021-07-02T13:21:46Z</time>
      </trkpt>
      <trkpt lat="44.85777" lon="4.32474">
        <ele>978.51</ele>
        <time>2021-07-02T13:21:50Z</time>
      </trkpt>
      <trkpt lat="44.85777" lon="4.32471">
        <ele>978.52</ele>
        <time>2021-07-02T13:21:52Z</time>
      </trkpt>
      <trkpt lat="44.85779" lon="4.32468">
        <ele>978.54</ele>
        <time>2021-07-02T13:21:54Z</time>
      </trkpt>
      <trkpt lat="44.8578" lon="4.32463">
        <ele>978.58</ele>
        <time>2021-07-02T13:21:59Z</time>
      </trkpt>
      <trkpt lat="44.85781" lon="4.32459">
        <ele>978.6</ele>
        <time>2021-07-02T13:22:01Z</time>
      </trkpt>
      <trkpt lat="44.85783" lon="4.32456">
        <ele>978.61</ele>
        <time>2021-07-02T13:22:02Z</time>
      </trkpt>
      <trkpt lat="44.85785" lon="4.32454">
        <ele>978.62</ele>
        <time>2021-07-02T13:22:03Z</time>
      </trkpt>
      <trkpt lat="44.85786" lon="4.32452">
        <ele>978.67</ele>
        <time>2021-07-02T13:22:08Z</time>
      </trkpt>
      <trkpt lat="44.85788" lon="4.32449">
        <ele>978.69</ele>
        <time>2021-07-02T13:22:10Z</time>
      </trkpt>
      <trkpt lat="44.85789" lon="4.32446">
        <ele>978.73</ele>
        <time>2021-07-02T13:22:13Z</time>
      </trkpt>
      <trkpt lat="44.8579" lon="4.32442">
        <ele>978.75</ele>
        <time>2021-07-02T13:22:15Z</time>
      </trkpt>
      <trkpt lat="44.85792" lon="4.32439">
        <ele>978.79</ele>
        <time>2021-07-02T13:22:18Z</time>
      </trkpt>
      <trkpt lat="44.85792" lon="4.32436">
        <ele>978.8</ele>
        <time>2021-07-02T13:22:19Z</time>
      </trkpt>
      <trkpt lat="44.85794" lon="4.32433">
        <ele>978.82</ele>
        <time>2021-07-02T13:22:21Z</time>
      </trkpt>
      <trkpt lat="44.85795" lon="4.32432">
        <ele>978.88</ele>
        <time>2021-07-02T13:22:25Z</time>
      </trkpt>
      <trkpt lat="44.85796" lon="4.32429">
        <ele>978.92</ele>
        <time>2021-07-02T13:22:28Z</time>
      </trkpt>
      <trkpt lat="44.85797" lon="4.32424">
        <ele>978.98</ele>
        <time>2021-07-02T13:22:32Z</time>
      </trkpt>
      <trkpt lat="44.85798" lon="4.32421">
        <ele>979.02</ele>
        <time>2021-07-02T13:22:35Z</time>
      </trkpt>
      <trkpt lat="44.858" lon="4.32423">
        <ele>979.13</ele>
        <time>2021-07-02T13:22:59Z</time>
      </trkpt>
      <trkpt lat="44.85799" lon="4.32419">
        <ele>979.24</ele>
        <time>2021-07-02T13:23:20Z</time>
      </trkpt>
      <trkpt lat="44.85799" lon="4.32416">
        <ele>979.42</ele>
        <time>2021-07-02T13:23:29Z</time>
      </trkpt>
      <trkpt lat="44.85799" lon="4.32413">
        <ele>979.48</ele>
        <time>2021-07-02T13:23:32Z</time>
      </trkpt>
      <trkpt lat="44.858" lon="4.32409">
        <ele>979.53</ele>
        <time>2021-07-02T13:23:35Z</time>
      </trkpt>
      <trkpt lat="44.85801" lon="4.32405">
        <ele>979.57</ele>
        <time>2021-07-02T13:23:37Z</time>
      </trkpt>
      <trkpt lat="44.85802" lon="4.32401">
        <ele>979.65</ele>
        <time>2021-07-02T13:23:46Z</time>
      </trkpt>
      <trkpt lat="44.85801" lon="4.32397">
        <ele>979.7</ele>
        <time>2021-07-02T13:23:49Z</time>
      </trkpt>
      <trkpt lat="44.85802" lon="4.32394">
        <ele>979.84</ele>
        <time>2021-07-02T13:24:00Z</time>
      </trkpt>
      <trkpt lat="44.85803" lon="4.32392">
        <ele>979.9</ele>
        <time>2021-07-02T13:24:04Z</time>
      </trkpt>
      <trkpt lat="44.85804" lon="4.32389">
        <ele>979.92</ele>
        <time>2021-07-02T13:24:05Z</time>
      </trkpt>
      <trkpt lat="44.85804" lon="4.32386">
        <ele>979.94</ele>
        <time>2021-07-02T13:24:07Z</time>
      </trkpt>
      <trkpt lat="44.85806" lon="4.32383">
        <ele>979.97</ele>
        <time>2021-07-02T13:24:09Z</time>
      </trkpt>
      <trkpt lat="44.85806" lon="4.32379">
        <ele>980.01</ele>
        <time>2021-07-02T13:24:12Z</time>
      </trkpt>
      <trkpt lat="44.85808" lon="4.32378">
        <ele>980.04</ele>
        <time>2021-07-02T13:24:14Z</time>
      </trkpt>
      <trkpt lat="44.85809" lon="4.32375">
        <ele>980.08</ele>
        <time>2021-07-02T13:24:17Z</time>
      </trkpt>
      <trkpt lat="44.85809" lon="4.32373">
        <ele>980.1</ele>
        <time>2021-07-02T13:24:19Z</time>
      </trkpt>
      <trkpt lat="44.8581" lon="4.32368">
        <ele>980.12</ele>
        <time>2021-07-02T13:24:21Z</time>
      </trkpt>
      <trkpt lat="44.85811" lon="4.32366">
        <ele>980.14</ele>
        <time>2021-07-02T13:24:23Z</time>
      </trkpt>
      <trkpt lat="44.85812" lon="4.32363">
        <ele>980.22</ele>
        <time>2021-07-02T13:24:29Z</time>
      </trkpt>
      <trkpt lat="44.85812" lon="4.32359">
        <ele>980.24</ele>
        <time>2021-07-02T13:24:31Z</time>
      </trkpt>
      <trkpt lat="44.85812" lon="4.32356">
        <ele>980.26</ele>
        <time>2021-07-02T13:24:33Z</time>
      </trkpt>
      <trkpt lat="44.85813" lon="4.32351">
        <ele>980.29</ele>
        <time>2021-07-02T13:24:35Z</time>
      </trkpt>
      <trkpt lat="44.85814" lon="4.3235">
        <ele>980.33</ele>
        <time>2021-07-02T13:24:38Z</time>
      </trkpt>
      <trkpt lat="44.85816" lon="4.32346">
        <ele>980.39</ele>
        <time>2021-07-02T13:24:43Z</time>
      </trkpt>
      <trkpt lat="44.85816" lon="4.32343">
        <ele>980.42</ele>
        <time>2021-07-02T13:24:45Z</time>
      </trkpt>
      <trkpt lat="44.85816" lon="4.32339">
        <ele>980.48</ele>
        <time>2021-07-02T13:24:50Z</time>
      </trkpt>
      <trkpt lat="44.85816" lon="4.32336">
        <ele>980.52</ele>
        <time>2021-07-02T13:25:08Z</time>
      </trkpt>
      <trkpt lat="44.8582" lon="4.32337">
        <ele>980.63</ele>
        <time>2021-07-02T13:25:34Z</time>
      </trkpt>
      <trkpt lat="44.85823" lon="4.32342">
        <ele>981.61</ele>
        <time>2021-07-02T13:27:22Z</time>
      </trkpt>
      <trkpt lat="44.85822" lon="4.32343">
        <ele>981.89</ele>
        <time>2021-07-02T13:27:26Z</time>
      </trkpt>
      <trkpt lat="44.85819" lon="4.32345">
        <ele>982.08</ele>
        <time>2021-07-02T13:27:29Z</time>
      </trkpt>
      <trkpt lat="44.85817" lon="4.32347">
        <ele>982.27</ele>
        <time>2021-07-02T13:27:32Z</time>
      </trkpt>
      <trkpt lat="44.85815" lon="4.32349">
        <ele>982.39</ele>
        <time>2021-07-02T13:27:34Z</time>
      </trkpt>
      <trkpt lat="44.85814" lon="4.32353">
        <ele>982.62</ele>
        <time>2021-07-02T13:27:38Z</time>
      </trkpt>
      <trkpt lat="44.85812" lon="4.32356">
        <ele>982.73</ele>
        <time>2021-07-02T13:27:40Z</time>
      </trkpt>
      <trkpt lat="44.8581" lon="4.32358">
        <ele>982.84</ele>
        <time>2021-07-02T13:27:42Z</time>
      </trkpt>
      <trkpt lat="44.85809" lon="4.3236">
        <ele>982.89</ele>
        <time>2021-07-02T13:27:43Z</time>
      </trkpt>
      <trkpt lat="44.85806" lon="4.32364">
        <ele>982.99</ele>
        <time>2021-07-02T13:27:45Z</time>
      </trkpt>
      <trkpt lat="44.85804" lon="4.32367">
        <ele>983.1</ele>
        <time>2021-07-02T13:27:47Z</time>
      </trkpt>
      <trkpt lat="44.85802" lon="4.32369">
        <ele>983.24</ele>
        <time>2021-07-02T13:27:50Z</time>
      </trkpt>
      <trkpt lat="44.85801" lon="4.32372">
        <ele>983.43</ele>
        <time>2021-07-02T13:27:54Z</time>
      </trkpt>
      <trkpt lat="44.858" lon="4.32375">
        <ele>983.57</ele>
        <time>2021-07-02T13:27:57Z</time>
      </trkpt>
      <trkpt lat="44.85799" lon="4.32378">
        <ele>983.73</ele>
        <time>2021-07-02T13:28:07Z</time>
      </trkpt>
      <trkpt lat="44.85798" lon="4.32375">
        <ele>983.95</ele>
        <time>2021-07-02T13:28:13Z</time>
      </trkpt>
      <trkpt lat="44.85797" lon="4.32372">
        <ele>984.07</ele>
        <time>2021-07-02T13:28:16Z</time>
      </trkpt>
      <trkpt lat="44.85795" lon="4.32367">
        <ele>984.16</ele>
        <time>2021-07-02T13:28:18Z</time>
      </trkpt>
      <trkpt lat="44.85795" lon="4.32363">
        <ele>984.24</ele>
        <time>2021-07-02T13:28:20Z</time>
      </trkpt>
      <trkpt lat="44.85794" lon="4.32361">
        <ele>984.32</ele>
        <time>2021-07-02T13:28:22Z</time>
      </trkpt>
      <trkpt lat="44.85795" lon="4.32358">
        <ele>984.44</ele>
        <time>2021-07-02T13:28:25Z</time>
      </trkpt>
      <trkpt lat="44.85795" lon="4.32354">
        <ele>984.52</ele>
        <time>2021-07-02T13:28:27Z</time>
      </trkpt>
      <trkpt lat="44.85796" lon="4.32349">
        <ele>984.63</ele>
        <time>2021-07-02T13:28:30Z</time>
      </trkpt>
      <trkpt lat="44.85796" lon="4.32347">
        <ele>984.71</ele>
        <time>2021-07-02T13:28:32Z</time>
      </trkpt>
      <trkpt lat="44.85795" lon="4.32343">
        <ele>984.79</ele>
        <time>2021-07-02T13:28:34Z</time>
      </trkpt>
      <trkpt lat="44.85794" lon="4.32341">
        <ele>984.9</ele>
        <time>2021-07-02T13:28:38Z</time>
      </trkpt>
      <trkpt lat="44.85795" lon="4.32338">
        <ele>984.98</ele>
        <time>2021-07-02T13:28:40Z</time>
      </trkpt>
      <trkpt lat="44.85796" lon="4.32335">
        <ele>985.12</ele>
        <time>2021-07-02T13:28:44Z</time>
      </trkpt>
      <trkpt lat="44.85797" lon="4.32332">
        <ele>985.34</ele>
        <time>2021-07-02T13:28:50Z</time>
      </trkpt>
      <trkpt lat="44.85798" lon="4.32328">
        <ele>985.48</ele>
        <time>2021-07-02T13:28:54Z</time>
      </trkpt>
      <trkpt lat="44.85799" lon="4.32325">
        <ele>985.55</ele>
        <time>2021-07-02T13:28:56Z</time>
      </trkpt>
      <trkpt lat="44.858" lon="4.32322">
        <ele>985.61</ele>
        <time>2021-07-02T13:28:58Z</time>
      </trkpt>
      <trkpt lat="44.85801" lon="4.32318">
        <ele>985.71</ele>
        <time>2021-07-02T13:29:01Z</time>
      </trkpt>
      <trkpt lat="44.85802" lon="4.32315">
        <ele>985.77</ele>
        <time>2021-07-02T13:29:03Z</time>
      </trkpt>
      <trkpt lat="44.85802" lon="4.32312">
        <ele>985.84</ele>
        <time>2021-07-02T13:29:05Z</time>
      </trkpt>
      <trkpt lat="44.85804" lon="4.3231">
        <ele>985.87</ele>
        <time>2021-07-02T13:29:06Z</time>
      </trkpt>
      <trkpt lat="44.85806" lon="4.32308">
        <ele>985.94</ele>
        <time>2021-07-02T13:29:08Z</time>
      </trkpt>
      <trkpt lat="44.85808" lon="4.32307">
        <ele>986.02</ele>
        <time>2021-07-02T13:29:10Z</time>
      </trkpt>
      <trkpt lat="44.8581" lon="4.32304">
        <ele>986.15</ele>
        <time>2021-07-02T13:29:13Z</time>
      </trkpt>
      <trkpt lat="44.85811" lon="4.32301">
        <ele>986.25</ele>
        <time>2021-07-02T13:29:15Z</time>
      </trkpt>
      <trkpt lat="44.85813" lon="4.32299">
        <ele>986.34</ele>
        <time>2021-07-02T13:29:17Z</time>
      </trkpt>
      <trkpt lat="44.85815" lon="4.32296">
        <ele>986.44</ele>
        <time>2021-07-02T13:29:19Z</time>
      </trkpt>
      <trkpt lat="44.85816" lon="4.32294">
        <ele>986.54</ele>
        <time>2021-07-02T13:29:21Z</time>
      </trkpt>
      <trkpt lat="44.85818" lon="4.32291">
        <ele>986.64</ele>
        <time>2021-07-02T13:29:23Z</time>
      </trkpt>
      <trkpt lat="44.85815" lon="4.32291">
        <ele>986.75</ele>
        <time>2021-07-02T13:29:26Z</time>
      </trkpt>
      <trkpt lat="44.85813" lon="4.32291">
        <ele>986.75</ele>
        <time>2021-07-02T13:29:27Z</time>
      </trkpt>
      <trkpt lat="44.85813" lon="4.32287">
        <ele>986.91</ele>
        <time>2021-07-02T13:29:32Z</time>
      </trkpt>
      <trkpt lat="44.85814" lon="4.32284">
        <ele>986.96</ele>
        <time>2021-07-02T13:29:33Z</time>
      </trkpt>
      <trkpt lat="44.85817" lon="4.32281">
        <ele>987.05</ele>
        <time>2021-07-02T13:29:35Z</time>
      </trkpt>
      <trkpt lat="44.85818" lon="4.32282">
        <ele>987.1</ele>
        <time>2021-07-02T13:29:36Z</time>
      </trkpt>
      <trkpt lat="44.8582" lon="4.32279">
        <ele>987.23</ele>
        <time>2021-07-02T13:29:39Z</time>
      </trkpt>
      <trkpt lat="44.8582" lon="4.32276">
        <ele>987.52</ele>
        <time>2021-07-02T13:29:46Z</time>
      </trkpt>
      <trkpt lat="44.85822" lon="4.32274">
        <ele>987.67</ele>
        <time>2021-07-02T13:29:50Z</time>
      </trkpt>
      <trkpt lat="44.85822" lon="4.3227">
        <ele>987.75</ele>
        <time>2021-07-02T13:29:52Z</time>
      </trkpt>
      <trkpt lat="44.85824" lon="4.32266">
        <ele>987.86</ele>
        <time>2021-07-02T13:29:55Z</time>
      </trkpt>
      <trkpt lat="44.85824" lon="4.32262">
        <ele>988.02</ele>
        <time>2021-07-02T13:29:59Z</time>
      </trkpt>
      <trkpt lat="44.85826" lon="4.32261">
        <ele>988.1</ele>
        <time>2021-07-02T13:30:01Z</time>
      </trkpt>
      <trkpt lat="44.85827" lon="4.32258">
        <ele>988.18</ele>
        <time>2021-07-02T13:30:03Z</time>
      </trkpt>
      <trkpt lat="44.85828" lon="4.32255">
        <ele>988.26</ele>
        <time>2021-07-02T13:30:05Z</time>
      </trkpt>
      <trkpt lat="44.8583" lon="4.32252">
        <ele>988.36</ele>
        <time>2021-07-02T13:30:07Z</time>
      </trkpt>
      <trkpt lat="44.85832" lon="4.32248">
        <ele>988.45</ele>
        <time>2021-07-02T13:30:09Z</time>
      </trkpt>
      <trkpt lat="44.85834" lon="4.32244">
        <ele>988.6</ele>
        <time>2021-07-02T13:30:12Z</time>
      </trkpt>
      <trkpt lat="44.85836" lon="4.32241">
        <ele>988.71</ele>
        <time>2021-07-02T13:30:14Z</time>
      </trkpt>
      <trkpt lat="44.85838" lon="4.3224">
        <ele>988.82</ele>
        <time>2021-07-02T13:30:16Z</time>
      </trkpt>
      <trkpt lat="44.85839" lon="4.32236">
        <ele>988.99</ele>
        <time>2021-07-02T13:30:19Z</time>
      </trkpt>
      <trkpt lat="44.85838" lon="4.32233">
        <ele>989.22</ele>
        <time>2021-07-02T13:30:23Z</time>
      </trkpt>
      <trkpt lat="44.85837" lon="4.32235">
        <ele>989.56</ele>
        <time>2021-07-02T13:30:31Z</time>
      </trkpt>
      <trkpt lat="44.85835" lon="4.32237">
        <ele>989.77</ele>
        <time>2021-07-02T13:30:35Z</time>
      </trkpt>
      <trkpt lat="44.85833" lon="4.32239">
        <ele>989.92</ele>
        <time>2021-07-02T13:30:38Z</time>
      </trkpt>
      <trkpt lat="44.8583" lon="4.32241">
        <ele>990.13</ele>
        <time>2021-07-02T13:30:42Z</time>
      </trkpt>
      <trkpt lat="44.85828" lon="4.32243">
        <ele>990.23</ele>
        <time>2021-07-02T13:30:44Z</time>
      </trkpt>
      <trkpt lat="44.85827" lon="4.32244">
        <ele>990.33</ele>
        <time>2021-07-02T13:30:46Z</time>
      </trkpt>
      <trkpt lat="44.85824" lon="4.32245">
        <ele>990.43</ele>
        <time>2021-07-02T13:30:48Z</time>
      </trkpt>
      <trkpt lat="44.85822" lon="4.32248">
        <ele>990.57</ele>
        <time>2021-07-02T13:30:51Z</time>
      </trkpt>
      <trkpt lat="44.85822" lon="4.32251">
        <ele>990.61</ele>
        <time>2021-07-02T13:30:52Z</time>
      </trkpt>
      <trkpt lat="44.85821" lon="4.32254">
        <ele>990.7</ele>
        <time>2021-07-02T13:30:54Z</time>
      </trkpt>
      <trkpt lat="44.85819" lon="4.32257">
        <ele>990.79</ele>
        <time>2021-07-02T13:30:56Z</time>
      </trkpt>
      <trkpt lat="44.85816" lon="4.3226">
        <ele>990.87</ele>
        <time>2021-07-02T13:30:58Z</time>
      </trkpt>
      <trkpt lat="44.85814" lon="4.3226">
        <ele>990.97</ele>
        <time>2021-07-02T13:31:01Z</time>
      </trkpt>
      <trkpt lat="44.85811" lon="4.32258">
        <ele>991.09</ele>
        <time>2021-07-02T13:31:04Z</time>
      </trkpt>
      <trkpt lat="44.8581" lon="4.32256">
        <ele>991.14</ele>
        <time>2021-07-02T13:31:05Z</time>
      </trkpt>
      <trkpt lat="44.85809" lon="4.32252">
        <ele>991.22</ele>
        <time>2021-07-02T13:31:07Z</time>
      </trkpt>
      <trkpt lat="44.85807" lon="4.32249">
        <ele>991.39</ele>
        <time>2021-07-02T13:31:11Z</time>
      </trkpt>
      <trkpt lat="44.85808" lon="4.32245">
        <ele>991.63</ele>
        <time>2021-07-02T13:31:18Z</time>
      </trkpt>
      <trkpt lat="44.8581" lon="4.32241">
        <ele>991.74</ele>
        <time>2021-07-02T13:31:21Z</time>
      </trkpt>
      <trkpt lat="44.85811" lon="4.32239">
        <ele>991.78</ele>
        <time>2021-07-02T13:31:22Z</time>
      </trkpt>
      <trkpt lat="44.85813" lon="4.32237">
        <ele>991.86</ele>
        <time>2021-07-02T13:31:25Z</time>
      </trkpt>
      <trkpt lat="44.85814" lon="4.32232">
        <ele>991.97</ele>
        <time>2021-07-02T13:31:28Z</time>
      </trkpt>
      <trkpt lat="44.85815" lon="4.3223">
        <ele>992.01</ele>
        <time>2021-07-02T13:31:30Z</time>
      </trkpt>
      <trkpt lat="44.85817" lon="4.32227">
        <ele>992.23</ele>
        <time>2021-07-02T13:31:36Z</time>
      </trkpt>
      <trkpt lat="44.85818" lon="4.32225">
        <ele>992.31</ele>
        <time>2021-07-02T13:31:38Z</time>
      </trkpt>
      <trkpt lat="44.85819" lon="4.32222">
        <ele>992.47</ele>
        <time>2021-07-02T13:31:42Z</time>
      </trkpt>
      <trkpt lat="44.8582" lon="4.32219">
        <ele>992.51</ele>
        <time>2021-07-02T13:31:43Z</time>
      </trkpt>
      <trkpt lat="44.85821" lon="4.32216">
        <ele>992.6</ele>
        <time>2021-07-02T13:31:45Z</time>
      </trkpt>
      <trkpt lat="44.85823" lon="4.32214">
        <ele>992.73</ele>
        <time>2021-07-02T13:31:48Z</time>
      </trkpt>
      <trkpt lat="44.85825" lon="4.32212">
        <ele>992.83</ele>
        <time>2021-07-02T13:31:50Z</time>
      </trkpt>
      <trkpt lat="44.85827" lon="4.3221">
        <ele>992.98</ele>
        <time>2021-07-02T13:31:53Z</time>
      </trkpt>
      <trkpt lat="44.85829" lon="4.32207">
        <ele>993.2</ele>
        <time>2021-07-02T13:31:57Z</time>
      </trkpt>
      <trkpt lat="44.85831" lon="4.32204">
        <ele>993.31</ele>
        <time>2021-07-02T13:31:59Z</time>
      </trkpt>
      <trkpt lat="44.85834" lon="4.322">
        <ele>993.42</ele>
        <time>2021-07-02T13:32:01Z</time>
      </trkpt>
      <trkpt lat="44.85836" lon="4.32197">
        <ele>993.53</ele>
        <time>2021-07-02T13:32:03Z</time>
      </trkpt>
      <trkpt lat="44.85838" lon="4.32195">
        <ele>993.64</ele>
        <time>2021-07-02T13:32:05Z</time>
      </trkpt>
      <trkpt lat="44.8584" lon="4.32193">
        <ele>993.75</ele>
        <time>2021-07-02T13:32:07Z</time>
      </trkpt>
      <trkpt lat="44.85842" lon="4.3219">
        <ele>993.91</ele>
        <time>2021-07-02T13:32:10Z</time>
      </trkpt>
      <trkpt lat="44.85844" lon="4.32188">
        <ele>994.07</ele>
        <time>2021-07-02T13:32:13Z</time>
      </trkpt>
      <trkpt lat="44.85846" lon="4.32188">
        <ele>994.17</ele>
        <time>2021-07-02T13:32:15Z</time>
      </trkpt>
      <trkpt lat="44.85849" lon="4.32187">
        <ele>994.28</ele>
        <time>2021-07-02T13:32:17Z</time>
      </trkpt>
      <trkpt lat="44.85851" lon="4.32187">
        <ele>994.34</ele>
        <time>2021-07-02T13:32:18Z</time>
      </trkpt>
      <trkpt lat="44.85854" lon="4.32187">
        <ele>994.46</ele>
        <time>2021-07-02T13:32:20Z</time>
      </trkpt>
      <trkpt lat="44.85857" lon="4.32187">
        <ele>994.6</ele>
        <time>2021-07-02T13:32:22Z</time>
      </trkpt>
      <trkpt lat="44.8586" lon="4.32188">
        <ele>994.74</ele>
        <time>2021-07-02T13:32:24Z</time>
      </trkpt>
      <trkpt lat="44.85863" lon="4.32188">
        <ele>994.95</ele>
        <time>2021-07-02T13:32:27Z</time>
      </trkpt>
      <trkpt lat="44.85865" lon="4.32187">
        <ele>995.17</ele>
        <time>2021-07-02T13:32:30Z</time>
      </trkpt>
      <trkpt lat="44.85868" lon="4.32186">
        <ele>995.33</ele>
        <time>2021-07-02T13:32:32Z</time>
      </trkpt>
      <trkpt lat="44.8587" lon="4.32186">
        <ele>995.48</ele>
        <time>2021-07-02T13:32:34Z</time>
      </trkpt>
      <trkpt lat="44.85873" lon="4.32186">
        <ele>995.65</ele>
        <time>2021-07-02T13:32:36Z</time>
      </trkpt>
      <trkpt lat="44.85876" lon="4.32186">
        <ele>995.81</ele>
        <time>2021-07-02T13:32:38Z</time>
      </trkpt>
      <trkpt lat="44.85878" lon="4.32186">
        <ele>995.9</ele>
        <time>2021-07-02T13:32:39Z</time>
      </trkpt>
      <trkpt lat="44.8588" lon="4.32186">
        <ele>996.07</ele>
        <time>2021-07-02T13:32:41Z</time>
      </trkpt>
      <trkpt lat="44.85883" lon="4.32186">
        <ele>996.25</ele>
        <time>2021-07-02T13:32:43Z</time>
      </trkpt>
      <trkpt lat="44.85887" lon="4.32185">
        <ele>996.61</ele>
        <time>2021-07-02T13:32:47Z</time>
      </trkpt>
      <trkpt lat="44.85889" lon="4.32185">
        <ele>996.8</ele>
        <time>2021-07-02T13:32:49Z</time>
      </trkpt>
      <trkpt lat="44.85891" lon="4.32185">
        <ele>997.09</ele>
        <time>2021-07-02T13:32:52Z</time>
      </trkpt>
      <trkpt lat="44.85893" lon="4.32186">
        <ele>997.18</ele>
        <time>2021-07-02T13:33:00Z</time>
      </trkpt>
      <trkpt lat="44.85895" lon="4.32188">
        <ele>997.56</ele>
        <time>2021-07-02T13:33:08Z</time>
      </trkpt>
      <trkpt lat="44.85898" lon="4.32189">
        <ele>997.86</ele>
        <time>2021-07-02T13:33:10Z</time>
      </trkpt>
      <trkpt lat="44.85901" lon="4.32191">
        <ele>999.05</ele>
        <time>2021-07-02T13:33:18Z</time>
      </trkpt>
      <trkpt lat="44.85903" lon="4.32194">
        <ele>999.49</ele>
        <time>2021-07-02T13:33:21Z</time>
      </trkpt>
      <trkpt lat="44.85904" lon="4.32196">
        <ele>999.91</ele>
        <time>2021-07-02T13:33:24Z</time>
      </trkpt>
      <trkpt lat="44.85906" lon="4.32196">
        <ele>1000.43</ele>
        <time>2021-07-02T13:33:43Z</time>
      </trkpt>
      <trkpt lat="44.8591" lon="4.322">
        <ele>1001.74</ele>
        <time>2021-07-02T13:34:06Z</time>
      </trkpt>
      <trkpt lat="44.8591" lon="4.32205">
        <ele>1002.23</ele>
        <time>2021-07-02T13:34:09Z</time>
      </trkpt>
      <trkpt lat="44.85912" lon="4.32207">
        <ele>1002.39</ele>
        <time>2021-07-02T13:34:10Z</time>
      </trkpt>
      <trkpt lat="44.85913" lon="4.32209">
        <ele>1002.7</ele>
        <time>2021-07-02T13:34:12Z</time>
      </trkpt>
      <trkpt lat="44.85915" lon="4.32212">
        <ele>1003.15</ele>
        <time>2021-07-02T13:34:15Z</time>
      </trkpt>
      <trkpt lat="44.85917" lon="4.32215">
        <ele>1003.73</ele>
        <time>2021-07-02T13:34:19Z</time>
      </trkpt>
      <trkpt lat="44.85919" lon="4.32219">
        <ele>1004.27</ele>
        <time>2021-07-02T13:34:23Z</time>
      </trkpt>
      <trkpt lat="44.8592" lon="4.32221">
        <ele>1004.66</ele>
        <time>2021-07-02T13:34:26Z</time>
      </trkpt>
      <trkpt lat="44.85922" lon="4.32223">
        <ele>1005.16</ele>
        <time>2021-07-02T13:34:30Z</time>
      </trkpt>
      <trkpt lat="44.85923" lon="4.32227">
        <ele>1005.51</ele>
        <time>2021-07-02T13:34:33Z</time>
      </trkpt>
      <trkpt lat="44.85925" lon="4.3223">
        <ele>1005.91</ele>
        <time>2021-07-02T13:34:39Z</time>
      </trkpt>
      <trkpt lat="44.85927" lon="4.32231">
        <ele>1006.64</ele>
        <time>2021-07-02T13:34:45Z</time>
      </trkpt>
      <trkpt lat="44.85929" lon="4.32233">
        <ele>1007.14</ele>
        <time>2021-07-02T13:34:49Z</time>
      </trkpt>
      <trkpt lat="44.85931" lon="4.32236">
        <ele>1007.5</ele>
        <time>2021-07-02T13:34:52Z</time>
      </trkpt>
      <trkpt lat="44.85932" lon="4.32238">
        <ele>1007.73</ele>
        <time>2021-07-02T13:34:54Z</time>
      </trkpt>
      <trkpt lat="44.85933" lon="4.32241">
        <ele>1007.96</ele>
        <time>2021-07-02T13:34:56Z</time>
      </trkpt>
      <trkpt lat="44.85936" lon="4.32245">
        <ele>1008.31</ele>
        <time>2021-07-02T13:34:59Z</time>
      </trkpt>
      <trkpt lat="44.85937" lon="4.32249">
        <ele>1008.55</ele>
        <time>2021-07-02T13:35:01Z</time>
      </trkpt>
      <trkpt lat="44.85938" lon="4.32253">
        <ele>1008.79</ele>
        <time>2021-07-02T13:35:03Z</time>
      </trkpt>
      <trkpt lat="44.85939" lon="4.32256">
        <ele>1008.91</ele>
        <time>2021-07-02T13:35:04Z</time>
      </trkpt>
      <trkpt lat="44.8594" lon="4.32259">
        <ele>1009.04</ele>
        <time>2021-07-02T13:35:05Z</time>
      </trkpt>
      <trkpt lat="44.8594" lon="4.32262">
        <ele>1009.18</ele>
        <time>2021-07-02T13:35:06Z</time>
      </trkpt>
      <trkpt lat="44.85939" lon="4.32265">
        <ele>1009.44</ele>
        <time>2021-07-02T13:35:08Z</time>
      </trkpt>
      <trkpt lat="44.85939" lon="4.32268">
        <ele>1009.85</ele>
        <time>2021-07-02T13:35:11Z</time>
      </trkpt>
      <trkpt lat="44.85939" lon="4.32272">
        <ele>1010.11</ele>
        <time>2021-07-02T13:35:13Z</time>
      </trkpt>
      <trkpt lat="44.85939" lon="4.32267">
        <ele>1011.51</ele>
        <time>2021-07-02T13:35:56Z</time>
      </trkpt>
      <trkpt lat="44.85939" lon="4.32264">
        <ele>1011.81</ele>
        <time>2021-07-02T13:35:58Z</time>
      </trkpt>
      <trkpt lat="44.85939" lon="4.3226">
        <ele>1012.53</ele>
        <time>2021-07-02T13:36:03Z</time>
      </trkpt>
      <trkpt lat="44.8594" lon="4.32256">
        <ele>1012.94</ele>
        <time>2021-07-02T13:36:06Z</time>
      </trkpt>
      <trkpt lat="44.85939" lon="4.32253">
        <ele>1013.08</ele>
        <time>2021-07-02T13:36:07Z</time>
      </trkpt>
      <trkpt lat="44.85939" lon="4.32249">
        <ele>1013.35</ele>
        <time>2021-07-02T13:36:09Z</time>
      </trkpt>
      <trkpt lat="44.85938" lon="4.32245">
        <ele>1013.61</ele>
        <time>2021-07-02T13:36:11Z</time>
      </trkpt>
      <trkpt lat="44.85937" lon="4.32242">
        <ele>1013.87</ele>
        <time>2021-07-02T13:36:13Z</time>
      </trkpt>
      <trkpt lat="44.85936" lon="4.32239">
        <ele>1014.13</ele>
        <time>2021-07-02T13:36:15Z</time>
      </trkpt>
      <trkpt lat="44.85935" lon="4.32235">
        <ele>1014.51</ele>
        <time>2021-07-02T13:36:18Z</time>
      </trkpt>
      <trkpt lat="44.85934" lon="4.32232">
        <ele>1014.76</ele>
        <time>2021-07-02T13:36:20Z</time>
      </trkpt>
      <trkpt lat="44.85935" lon="4.3223">
        <ele>1015.01</ele>
        <time>2021-07-02T13:36:22Z</time>
      </trkpt>
      <trkpt lat="44.85934" lon="4.32225">
        <ele>1015.27</ele>
        <time>2021-07-02T13:36:24Z</time>
      </trkpt>
      <trkpt lat="44.85935" lon="4.32222">
        <ele>1015.65</ele>
        <time>2021-07-02T13:36:27Z</time>
      </trkpt>
      <trkpt lat="44.85935" lon="4.3222">
        <ele>1015.9</ele>
        <time>2021-07-02T13:36:29Z</time>
      </trkpt>
      <trkpt lat="44.85934" lon="4.32216">
        <ele>1016.27</ele>
        <time>2021-07-02T13:36:32Z</time>
      </trkpt>
      <trkpt lat="44.85934" lon="4.32211">
        <ele>1016.64</ele>
        <time>2021-07-02T13:36:35Z</time>
      </trkpt>
      <trkpt lat="44.85933" lon="4.32208">
        <ele>1016.88</ele>
        <time>2021-07-02T13:36:37Z</time>
      </trkpt>
      <trkpt lat="44.85933" lon="4.32206">
        <ele>1017.13</ele>
        <time>2021-07-02T13:36:39Z</time>
      </trkpt>
      <trkpt lat="44.85933" lon="4.32203">
        <ele>1017.37</ele>
        <time>2021-07-02T13:36:41Z</time>
      </trkpt>
      <trkpt lat="44.85931" lon="4.322">
        <ele>1017.74</ele>
        <time>2021-07-02T13:36:44Z</time>
      </trkpt>
      <trkpt lat="44.8593" lon="4.32197">
        <ele>1018.09</ele>
        <time>2021-07-02T13:36:47Z</time>
      </trkpt>
      <trkpt lat="44.85929" lon="4.32194">
        <ele>1018.2</ele>
        <time>2021-07-02T13:36:48Z</time>
      </trkpt>
      <trkpt lat="44.85928" lon="4.32191">
        <ele>1018.43</ele>
        <time>2021-07-02T13:36:50Z</time>
      </trkpt>
      <trkpt lat="44.85926" lon="4.32189">
        <ele>1018.66</ele>
        <time>2021-07-02T13:36:52Z</time>
      </trkpt>
      <trkpt lat="44.85926" lon="4.32186">
        <ele>1018.89</ele>
        <time>2021-07-02T13:36:54Z</time>
      </trkpt>
      <trkpt lat="44.85925" lon="4.32182">
        <ele>1019.12</ele>
        <time>2021-07-02T13:36:56Z</time>
      </trkpt>
      <trkpt lat="44.85924" lon="4.32179">
        <ele>1019.35</ele>
        <time>2021-07-02T13:36:58Z</time>
      </trkpt>
      <trkpt lat="44.85923" lon="4.32177">
        <ele>1019.57</ele>
        <time>2021-07-02T13:37:00Z</time>
      </trkpt>
      <trkpt lat="44.85922" lon="4.32172">
        <ele>1019.91</ele>
        <time>2021-07-02T13:37:03Z</time>
      </trkpt>
      <trkpt lat="44.85922" lon="4.32169">
        <ele>1020.24</ele>
        <time>2021-07-02T13:37:06Z</time>
      </trkpt>
      <trkpt lat="44.85921" lon="4.32166">
        <ele>1020.46</ele>
        <time>2021-07-02T13:37:08Z</time>
      </trkpt>
      <trkpt lat="44.85921" lon="4.32163">
        <ele>1020.67</ele>
        <time>2021-07-02T13:37:10Z</time>
      </trkpt>
      <trkpt lat="44.8592" lon="4.32159">
        <ele>1020.89</ele>
        <time>2021-07-02T13:37:12Z</time>
      </trkpt>
      <trkpt lat="44.85919" lon="4.32156">
        <ele>1021.11</ele>
        <time>2021-07-02T13:37:14Z</time>
      </trkpt>
      <trkpt lat="44.85918" lon="4.32154">
        <ele>1021.32</ele>
        <time>2021-07-02T13:37:16Z</time>
      </trkpt>
      <trkpt lat="44.85917" lon="4.32151">
        <ele>1021.54</ele>
        <time>2021-07-02T13:37:18Z</time>
      </trkpt>
      <trkpt lat="44.85916" lon="4.32148">
        <ele>1021.75</ele>
        <time>2021-07-02T13:37:20Z</time>
      </trkpt>
      <trkpt lat="44.85915" lon="4.32144">
        <ele>1022.07</ele>
        <time>2021-07-02T13:37:23Z</time>
      </trkpt>
      <trkpt lat="44.85914" lon="4.32141">
        <ele>1022.4</ele>
        <time>2021-07-02T13:37:26Z</time>
      </trkpt>
      <trkpt lat="44.85913" lon="4.32137">
        <ele>1022.92</ele>
        <time>2021-07-02T13:37:31Z</time>
      </trkpt>
      <trkpt lat="44.85913" lon="4.32134">
        <ele>1023.34</ele>
        <time>2021-07-02T13:37:35Z</time>
      </trkpt>
      <trkpt lat="44.85912" lon="4.3213">
        <ele>1023.44</ele>
        <time>2021-07-02T13:37:36Z</time>
      </trkpt>
      <trkpt lat="44.85911" lon="4.32126">
        <ele>1023.65</ele>
        <time>2021-07-02T13:37:38Z</time>
      </trkpt>
      <trkpt lat="44.85909" lon="4.32123">
        <ele>1023.86</ele>
        <time>2021-07-02T13:37:40Z</time>
      </trkpt>
      <trkpt lat="44.85908" lon="4.32121">
        <ele>1023.98</ele>
        <time>2021-07-02T13:37:43Z</time>
      </trkpt>
      <trkpt lat="44.85906" lon="4.32118">
        <ele>1024.41</ele>
        <time>2021-07-02T13:37:48Z</time>
      </trkpt>
      <trkpt lat="44.85907" lon="4.32114">
        <ele>1024.82</ele>
        <time>2021-07-02T13:37:52Z</time>
      </trkpt>
      <trkpt lat="44.85908" lon="4.32111">
        <ele>1025.26</ele>
        <time>2021-07-02T13:37:59Z</time>
      </trkpt>
      <trkpt lat="44.85907" lon="4.32116">
        <ele>1026.16</ele>
        <time>2021-07-02T13:38:32Z</time>
      </trkpt>
      <trkpt lat="44.85909" lon="4.32119">
        <ele>1026.36</ele>
        <time>2021-07-02T13:38:34Z</time>
      </trkpt>
      <trkpt lat="44.8591" lon="4.32122">
        <ele>1026.55</ele>
        <time>2021-07-02T13:38:36Z</time>
      </trkpt>
      <trkpt lat="44.8591" lon="4.32125">
        <ele>1026.75</ele>
        <time>2021-07-02T13:38:38Z</time>
      </trkpt>
      <trkpt lat="44.8591" lon="4.32129">
        <ele>1027.02</ele>
        <time>2021-07-02T13:38:41Z</time>
      </trkpt>
      <trkpt lat="44.85911" lon="4.32133">
        <ele>1027.21</ele>
        <time>2021-07-02T13:38:43Z</time>
      </trkpt>
      <trkpt lat="44.85911" lon="4.32136">
        <ele>1027.39</ele>
        <time>2021-07-02T13:38:45Z</time>
      </trkpt>
      <trkpt lat="44.85912" lon="4.32139">
        <ele>1027.56</ele>
        <time>2021-07-02T13:38:47Z</time>
      </trkpt>
      <trkpt lat="44.85913" lon="4.32143">
        <ele>1027.82</ele>
        <time>2021-07-02T13:38:50Z</time>
      </trkpt>
      <trkpt lat="44.85913" lon="4.32146">
        <ele>1027.98</ele>
        <time>2021-07-02T13:38:52Z</time>
      </trkpt>
      <trkpt lat="44.85914" lon="4.32149">
        <ele>1028.14</ele>
        <time>2021-07-02T13:38:54Z</time>
      </trkpt>
      <trkpt lat="44.85915" lon="4.32152">
        <ele>1028.3</ele>
        <time>2021-07-02T13:38:56Z</time>
      </trkpt>
      <trkpt lat="44.85916" lon="4.32156">
        <ele>1028.37</ele>
        <time>2021-07-02T13:38:57Z</time>
      </trkpt>
      <trkpt lat="44.85917" lon="4.32159">
        <ele>1028.52</ele>
        <time>2021-07-02T13:38:59Z</time>
      </trkpt>
      <trkpt lat="44.85919" lon="4.32164">
        <ele>1028.74</ele>
        <time>2021-07-02T13:39:02Z</time>
      </trkpt>
      <trkpt lat="44.8592" lon="4.32168">
        <ele>1028.89</ele>
        <time>2021-07-02T13:39:04Z</time>
      </trkpt>
      <trkpt lat="44.85921" lon="4.32172">
        <ele>1029.03</ele>
        <time>2021-07-02T13:39:06Z</time>
      </trkpt>
      <trkpt lat="44.85923" lon="4.32175">
        <ele>1029.16</ele>
        <time>2021-07-02T13:39:08Z</time>
      </trkpt>
      <trkpt lat="44.85924" lon="4.32179">
        <ele>1029.3</ele>
        <time>2021-07-02T13:39:10Z</time>
      </trkpt>
      <trkpt lat="44.85925" lon="4.32181">
        <ele>1029.43</ele>
        <time>2021-07-02T13:39:12Z</time>
      </trkpt>
      <trkpt lat="44.85926" lon="4.32184">
        <ele>1029.57</ele>
        <time>2021-07-02T13:39:14Z</time>
      </trkpt>
      <trkpt lat="44.85927" lon="4.32187">
        <ele>1029.7</ele>
        <time>2021-07-02T13:39:16Z</time>
      </trkpt>
      <trkpt lat="44.85927" lon="4.3219">
        <ele>1029.82</ele>
        <time>2021-07-02T13:39:18Z</time>
      </trkpt>
      <trkpt lat="44.85928" lon="4.32194">
        <ele>1029.95</ele>
        <time>2021-07-02T13:39:20Z</time>
      </trkpt>
      <trkpt lat="44.85929" lon="4.32197">
        <ele>1030.07</ele>
        <time>2021-07-02T13:39:22Z</time>
      </trkpt>
      <trkpt lat="44.8593" lon="4.322">
        <ele>1030.2</ele>
        <time>2021-07-02T13:39:24Z</time>
      </trkpt>
      <trkpt lat="44.85931" lon="4.32202">
        <ele>1030.32</ele>
        <time>2021-07-02T13:39:26Z</time>
      </trkpt>
      <trkpt lat="44.85933" lon="4.32205">
        <ele>1030.44</ele>
        <time>2021-07-02T13:39:28Z</time>
      </trkpt>
      <trkpt lat="44.85934" lon="4.32209">
        <ele>1030.56</ele>
        <time>2021-07-02T13:39:30Z</time>
      </trkpt>
      <trkpt lat="44.85935" lon="4.32212">
        <ele>1030.67</ele>
        <time>2021-07-02T13:39:32Z</time>
      </trkpt>
      <trkpt lat="44.85936" lon="4.32214">
        <ele>1030.79</ele>
        <time>2021-07-02T13:39:34Z</time>
      </trkpt>
      <trkpt lat="44.85937" lon="4.32217">
        <ele>1030.9</ele>
        <time>2021-07-02T13:39:36Z</time>
      </trkpt>
      <trkpt lat="44.85939" lon="4.32219">
        <ele>1031.01</ele>
        <time>2021-07-02T13:39:38Z</time>
      </trkpt>
      <trkpt lat="44.8594" lon="4.32222">
        <ele>1031.17</ele>
        <time>2021-07-02T13:39:41Z</time>
      </trkpt>
      <trkpt lat="44.85941" lon="4.32225">
        <ele>1031.28</ele>
        <time>2021-07-02T13:39:43Z</time>
      </trkpt>
      <trkpt lat="44.85942" lon="4.32229">
        <ele>1031.48</ele>
        <time>2021-07-02T13:39:47Z</time>
      </trkpt>
      <trkpt lat="44.85943" lon="4.32233">
        <ele>1031.61</ele>
        <time>2021-07-02T13:39:50Z</time>
      </trkpt>
      <trkpt lat="44.85943" lon="4.32237">
        <ele>1031.7</ele>
        <time>2021-07-02T13:39:52Z</time>
      </trkpt>
      <trkpt lat="44.85944" lon="4.3224">
        <ele>1031.79</ele>
        <time>2021-07-02T13:39:54Z</time>
      </trkpt>
      <trkpt lat="44.85944" lon="4.32244">
        <ele>1031.87</ele>
        <time>2021-07-02T13:39:56Z</time>
      </trkpt>
      <trkpt lat="44.85944" lon="4.32248">
        <ele>1031.95</ele>
        <time>2021-07-02T13:39:58Z</time>
      </trkpt>
      <trkpt lat="44.85945" lon="4.32252">
        <ele>1032.03</ele>
        <time>2021-07-02T13:40:00Z</time>
      </trkpt>
      <trkpt lat="44.85945" lon="4.32256">
        <ele>1032.11</ele>
        <time>2021-07-02T13:40:02Z</time>
      </trkpt>
      <trkpt lat="44.85944" lon="4.32261">
        <ele>1032.18</ele>
        <time>2021-07-02T13:40:04Z</time>
      </trkpt>
      <trkpt lat="44.85944" lon="4.32265">
        <ele>1032.25</ele>
        <time>2021-07-02T13:40:06Z</time>
      </trkpt>
      <trkpt lat="44.85943" lon="4.32269">
        <ele>1032.32</ele>
        <time>2021-07-02T13:40:08Z</time>
      </trkpt>
      <trkpt lat="44.85943" lon="4.32272">
        <ele>1032.39</ele>
        <time>2021-07-02T13:40:10Z</time>
      </trkpt>
      <trkpt lat="44.85943" lon="4.32276">
        <ele>1032.45</ele>
        <time>2021-07-02T13:40:12Z</time>
      </trkpt>
      <trkpt lat="44.85943" lon="4.32278">
        <ele>1032.51</ele>
        <time>2021-07-02T13:40:14Z</time>
      </trkpt>
      <trkpt lat="44.85943" lon="4.32282">
        <ele>1032.57</ele>
        <time>2021-07-02T13:40:16Z</time>
      </trkpt>
      <trkpt lat="44.85944" lon="4.32286">
        <ele>1032.63</ele>
        <time>2021-07-02T13:40:18Z</time>
      </trkpt>
      <trkpt lat="44.85944" lon="4.32289">
        <ele>1032.68</ele>
        <time>2021-07-02T13:40:20Z</time>
      </trkpt>
      <trkpt lat="44.85945" lon="4.32293">
        <ele>1032.71</ele>
        <time>2021-07-02T13:40:21Z</time>
      </trkpt>
      <trkpt lat="44.85945" lon="4.32296">
        <ele>1032.77</ele>
        <time>2021-07-02T13:40:23Z</time>
      </trkpt>
      <trkpt lat="44.85946" lon="4.323">
        <ele>1032.85</ele>
        <time>2021-07-02T13:40:26Z</time>
      </trkpt>
      <trkpt lat="44.85947" lon="4.32303">
        <ele>1032.9</ele>
        <time>2021-07-02T13:40:28Z</time>
      </trkpt>
      <trkpt lat="44.85948" lon="4.32307">
        <ele>1032.95</ele>
        <time>2021-07-02T13:40:30Z</time>
      </trkpt>
      <trkpt lat="44.85949" lon="4.3231">
        <ele>1032.99</ele>
        <time>2021-07-02T13:40:32Z</time>
      </trkpt>
      <trkpt lat="44.8595" lon="4.32313">
        <ele>1033.04</ele>
        <time>2021-07-02T13:40:34Z</time>
      </trkpt>
      <trkpt lat="44.85951" lon="4.32316">
        <ele>1033.08</ele>
        <time>2021-07-02T13:40:36Z</time>
      </trkpt>
      <trkpt lat="44.85951" lon="4.32319">
        <ele>1033.13</ele>
        <time>2021-07-02T13:40:38Z</time>
      </trkpt>
      <trkpt lat="44.85952" lon="4.32323">
        <ele>1033.17</ele>
        <time>2021-07-02T13:40:40Z</time>
      </trkpt>
      <trkpt lat="44.85953" lon="4.32326">
        <ele>1033.21</ele>
        <time>2021-07-02T13:40:42Z</time>
      </trkpt>
      <trkpt lat="44.85953" lon="4.3233">
        <ele>1033.26</ele>
        <time>2021-07-02T13:40:44Z</time>
      </trkpt>
      <trkpt lat="44.85953" lon="4.32333">
        <ele>1033.3</ele>
        <time>2021-07-02T13:40:46Z</time>
      </trkpt>
      <trkpt lat="44.85954" lon="4.32337">
        <ele>1033.35</ele>
        <time>2021-07-02T13:40:48Z</time>
      </trkpt>
      <trkpt lat="44.85954" lon="4.32341">
        <ele>1033.39</ele>
        <time>2021-07-02T13:40:50Z</time>
      </trkpt>
      <trkpt lat="44.85955" lon="4.32345">
        <ele>1033.44</ele>
        <time>2021-07-02T13:40:52Z</time>
      </trkpt>
      <trkpt lat="44.85955" lon="4.32348">
        <ele>1033.48</ele>
        <time>2021-07-02T13:40:54Z</time>
      </trkpt>
      <trkpt lat="44.85956" lon="4.3235">
        <ele>1033.51</ele>
        <time>2021-07-02T13:40:55Z</time>
      </trkpt>
      <trkpt lat="44.85957" lon="4.32353">
        <ele>1033.55</ele>
        <time>2021-07-02T13:40:57Z</time>
      </trkpt>
      <trkpt lat="44.85957" lon="4.32356">
        <ele>1033.57</ele>
        <time>2021-07-02T13:40:58Z</time>
      </trkpt>
      <trkpt lat="44.85958" lon="4.32359">
        <ele>1033.62</ele>
        <time>2021-07-02T13:41:00Z</time>
      </trkpt>
      <trkpt lat="44.85959" lon="4.32362">
        <ele>1033.67</ele>
        <time>2021-07-02T13:41:02Z</time>
      </trkpt>
      <trkpt lat="44.85959" lon="4.32365">
        <ele>1033.71</ele>
        <time>2021-07-02T13:41:04Z</time>
      </trkpt>
      <trkpt lat="44.8596" lon="4.32368">
        <ele>1033.76</ele>
        <time>2021-07-02T13:41:06Z</time>
      </trkpt>
      <trkpt lat="44.85963" lon="4.32373">
        <ele>1033.8</ele>
        <time>2021-07-02T13:41:08Z</time>
      </trkpt>
      <trkpt lat="44.85964" lon="4.32377">
        <ele>1033.84</ele>
        <time>2021-07-02T13:41:10Z</time>
      </trkpt>
      <trkpt lat="44.85966" lon="4.32381">
        <ele>1033.89</ele>
        <time>2021-07-02T13:41:12Z</time>
      </trkpt>
      <trkpt lat="44.85967" lon="4.32384">
        <ele>1033.91</ele>
        <time>2021-07-02T13:41:13Z</time>
      </trkpt>
      <trkpt lat="44.85968" lon="4.32386">
        <ele>1033.94</ele>
        <time>2021-07-02T13:41:14Z</time>
      </trkpt>
      <trkpt lat="44.85969" lon="4.3239">
        <ele>1033.98</ele>
        <time>2021-07-02T13:41:16Z</time>
      </trkpt>
      <trkpt lat="44.8597" lon="4.32393">
        <ele>1034.03</ele>
        <time>2021-07-02T13:41:18Z</time>
      </trkpt>
      <trkpt lat="44.85972" lon="4.32396">
        <ele>1034.08</ele>
        <time>2021-07-02T13:41:20Z</time>
      </trkpt>
      <trkpt lat="44.85972" lon="4.324">
        <ele>1034.12</ele>
        <time>2021-07-02T13:41:22Z</time>
      </trkpt>
      <trkpt lat="44.85974" lon="4.32403">
        <ele>1034.17</ele>
        <time>2021-07-02T13:41:24Z</time>
      </trkpt>
      <trkpt lat="44.85975" lon="4.32406">
        <ele>1034.21</ele>
        <time>2021-07-02T13:41:26Z</time>
      </trkpt>
      <trkpt lat="44.85976" lon="4.32409">
        <ele>1034.26</ele>
        <time>2021-07-02T13:41:28Z</time>
      </trkpt>
      <trkpt lat="44.85978" lon="4.32412">
        <ele>1034.31</ele>
        <time>2021-07-02T13:41:30Z</time>
      </trkpt>
      <trkpt lat="44.85979" lon="4.32415">
        <ele>1034.35</ele>
        <time>2021-07-02T13:41:32Z</time>
      </trkpt>
      <trkpt lat="44.85981" lon="4.32417">
        <ele>1034.4</ele>
        <time>2021-07-02T13:41:34Z</time>
      </trkpt>
      <trkpt lat="44.85982" lon="4.32419">
        <ele>1034.44</ele>
        <time>2021-07-02T13:41:36Z</time>
      </trkpt>
      <trkpt lat="44.85983" lon="4.32423">
        <ele>1034.51</ele>
        <time>2021-07-02T13:41:39Z</time>
      </trkpt>
      <trkpt lat="44.85984" lon="4.32426">
        <ele>1034.57</ele>
        <time>2021-07-02T13:41:41Z</time>
      </trkpt>
      <trkpt lat="44.85985" lon="4.3243">
        <ele>1034.63</ele>
        <time>2021-07-02T13:41:44Z</time>
      </trkpt>
      <trkpt lat="44.85986" lon="4.32433">
        <ele>1034.7</ele>
        <time>2021-07-02T13:41:48Z</time>
      </trkpt>
      <trkpt lat="44.85989" lon="4.32436">
        <ele>1034.75</ele>
        <time>2021-07-02T13:41:51Z</time>
      </trkpt>
      <trkpt lat="44.85989" lon="4.32439">
        <ele>1034.78</ele>
        <time>2021-07-02T13:41:53Z</time>
      </trkpt>
      <trkpt lat="44.8599" lon="4.32444">
        <ele>1034.81</ele>
        <time>2021-07-02T13:41:55Z</time>
      </trkpt>
      <trkpt lat="44.8599" lon="4.32447">
        <ele>1034.82</ele>
        <time>2021-07-02T13:41:56Z</time>
      </trkpt>
      <trkpt lat="44.85991" lon="4.32451">
        <ele>1034.84</ele>
        <time>2021-07-02T13:41:58Z</time>
      </trkpt>
      <trkpt lat="44.85991" lon="4.32456">
        <ele>1034.87</ele>
        <time>2021-07-02T13:42:00Z</time>
      </trkpt>
      <trkpt lat="44.85992" lon="4.3246">
        <ele>1034.9</ele>
        <time>2021-07-02T13:42:02Z</time>
      </trkpt>
      <trkpt lat="44.85993" lon="4.32464">
        <ele>1034.92</ele>
        <time>2021-07-02T13:42:04Z</time>
      </trkpt>
      <trkpt lat="44.85993" lon="4.32467">
        <ele>1034.95</ele>
        <time>2021-07-02T13:42:06Z</time>
      </trkpt>
      <trkpt lat="44.85993" lon="4.3247">
        <ele>1034.97</ele>
        <time>2021-07-02T13:42:08Z</time>
      </trkpt>
      <trkpt lat="44.85993" lon="4.32473">
        <ele>1034.99</ele>
        <time>2021-07-02T13:42:10Z</time>
      </trkpt>
      <trkpt lat="44.85992" lon="4.32476">
        <ele>1035.02</ele>
        <time>2021-07-02T13:42:12Z</time>
      </trkpt>
      <trkpt lat="44.85991" lon="4.32479">
        <ele>1035.04</ele>
        <time>2021-07-02T13:42:14Z</time>
      </trkpt>
      <trkpt lat="44.8599" lon="4.32484">
        <ele>1035.06</ele>
        <time>2021-07-02T13:42:16Z</time>
      </trkpt>
      <trkpt lat="44.85989" lon="4.32488">
        <ele>1035.08</ele>
        <time>2021-07-02T13:42:18Z</time>
      </trkpt>
      <trkpt lat="44.85989" lon="4.32492">
        <ele>1035.1</ele>
        <time>2021-07-02T13:42:20Z</time>
      </trkpt>
      <trkpt lat="44.85988" lon="4.32496">
        <ele>1035.12</ele>
        <time>2021-07-02T13:42:22Z</time>
      </trkpt>
      <trkpt lat="44.85987" lon="4.32499">
        <ele>1035.14</ele>
        <time>2021-07-02T13:42:24Z</time>
      </trkpt>
      <trkpt lat="44.85987" lon="4.32502">
        <ele>1035.16</ele>
        <time>2021-07-02T13:42:26Z</time>
      </trkpt>
      <trkpt lat="44.85987" lon="4.32506">
        <ele>1035.19</ele>
        <time>2021-07-02T13:42:29Z</time>
      </trkpt>
      <trkpt lat="44.85986" lon="4.32509">
        <ele>1035.2</ele>
        <time>2021-07-02T13:42:31Z</time>
      </trkpt>
      <trkpt lat="44.85986" lon="4.32512">
        <ele>1035.22</ele>
        <time>2021-07-02T13:42:33Z</time>
      </trkpt>
      <trkpt lat="44.85987" lon="4.32515">
        <ele>1035.23</ele>
        <time>2021-07-02T13:42:35Z</time>
      </trkpt>
      <trkpt lat="44.85987" lon="4.3252">
        <ele>1035.25</ele>
        <time>2021-07-02T13:42:37Z</time>
      </trkpt>
      <trkpt lat="44.85988" lon="4.32523">
        <ele>1035.26</ele>
        <time>2021-07-02T13:42:39Z</time>
      </trkpt>
      <trkpt lat="44.85989" lon="4.32526">
        <ele>1035.28</ele>
        <time>2021-07-02T13:42:41Z</time>
      </trkpt>
      <trkpt lat="44.8599" lon="4.3253">
        <ele>1035.29</ele>
        <time>2021-07-02T13:42:43Z</time>
      </trkpt>
      <trkpt lat="44.85991" lon="4.32534">
        <ele>1035.31</ele>
        <time>2021-07-02T13:42:46Z</time>
      </trkpt>
      <trkpt lat="44.8599" lon="4.32538">
        <ele>1035.32</ele>
        <time>2021-07-02T13:42:48Z</time>
      </trkpt>
      <trkpt lat="44.85989" lon="4.32542">
        <ele>1035.33</ele>
        <time>2021-07-02T13:42:50Z</time>
      </trkpt>
      <trkpt lat="44.85989" lon="4.32545">
        <ele>1035.34</ele>
        <time>2021-07-02T13:42:52Z</time>
      </trkpt>
      <trkpt lat="44.85989" lon="4.32548">
        <ele>1035.35</ele>
        <time>2021-07-02T13:42:54Z</time>
      </trkpt>
      <trkpt lat="44.85989" lon="4.32551">
        <ele>1035.36</ele>
        <time>2021-07-02T13:42:56Z</time>
      </trkpt>
      <trkpt lat="44.8599" lon="4.32555">
        <ele>1035.37</ele>
        <time>2021-07-02T13:42:58Z</time>
      </trkpt>
      <trkpt lat="44.8599" lon="4.32558">
        <ele>1035.38</ele>
        <time>2021-07-02T13:43:00Z</time>
      </trkpt>
      <trkpt lat="44.8599" lon="4.32561">
        <ele>1035.38</ele>
        <time>2021-07-02T13:43:02Z</time>
      </trkpt>
      <trkpt lat="44.85991" lon="4.32565">
        <ele>1035.4</ele>
        <time>2021-07-02T13:43:05Z</time>
      </trkpt>
      <trkpt lat="44.85992" lon="4.32568">
        <ele>1035.4</ele>
        <time>2021-07-02T13:43:07Z</time>
      </trkpt>
      <trkpt lat="44.85992" lon="4.32571">
        <ele>1035.41</ele>
        <time>2021-07-02T13:43:09Z</time>
      </trkpt>
      <trkpt lat="44.85992" lon="4.32574">
        <ele>1035.42</ele>
        <time>2021-07-02T13:43:11Z</time>
      </trkpt>
      <trkpt lat="44.85991" lon="4.32578">
        <ele>1035.43</ele>
        <time>2021-07-02T13:43:13Z</time>
      </trkpt>
      <trkpt lat="44.85991" lon="4.32583">
        <ele>1035.44</ele>
        <time>2021-07-02T13:43:15Z</time>
      </trkpt>
      <trkpt lat="44.85991" lon="4.32587">
        <ele>1035.45</ele>
        <time>2021-07-02T13:43:17Z</time>
      </trkpt>
      <trkpt lat="44.85991" lon="4.3259">
        <ele>1035.46</ele>
        <time>2021-07-02T13:43:19Z</time>
      </trkpt>
      <trkpt lat="44.85991" lon="4.32594">
        <ele>1035.47</ele>
        <time>2021-07-02T13:43:21Z</time>
      </trkpt>
      <trkpt lat="44.85991" lon="4.32598">
        <ele>1035.48</ele>
        <time>2021-07-02T13:43:23Z</time>
      </trkpt>
      <trkpt lat="44.85991" lon="4.32601">
        <ele>1035.48</ele>
        <time>2021-07-02T13:43:24Z</time>
      </trkpt>
      <trkpt lat="44.85991" lon="4.32603">
        <ele>1035.48</ele>
        <time>2021-07-02T13:43:25Z</time>
      </trkpt>
      <trkpt lat="44.85992" lon="4.32606">
        <ele>1035.49</ele>
        <time>2021-07-02T13:43:27Z</time>
      </trkpt>
      <trkpt lat="44.85993" lon="4.32608">
        <ele>1035.5</ele>
        <time>2021-07-02T13:43:29Z</time>
      </trkpt>
      <trkpt lat="44.85994" lon="4.32611">
        <ele>1035.51</ele>
        <time>2021-07-02T13:43:31Z</time>
      </trkpt>
      <trkpt lat="44.85994" lon="4.32615">
        <ele>1035.51</ele>
        <time>2021-07-02T13:43:33Z</time>
      </trkpt>
      <trkpt lat="44.85994" lon="4.32619">
        <ele>1035.52</ele>
        <time>2021-07-02T13:43:35Z</time>
      </trkpt>
      <trkpt lat="44.85995" lon="4.32623">
        <ele>1035.53</ele>
        <time>2021-07-02T13:43:37Z</time>
      </trkpt>
      <trkpt lat="44.85995" lon="4.32626">
        <ele>1035.53</ele>
        <time>2021-07-02T13:43:39Z</time>
      </trkpt>
      <trkpt lat="44.85996" lon="4.32631">
        <ele>1035.54</ele>
        <time>2021-07-02T13:43:42Z</time>
      </trkpt>
      <trkpt lat="44.85996" lon="4.32635">
        <ele>1035.55</ele>
        <time>2021-07-02T13:43:44Z</time>
      </trkpt>
      <trkpt lat="44.85997" lon="4.32637">
        <ele>1035.55</ele>
        <time>2021-07-02T13:43:45Z</time>
      </trkpt>
      <trkpt lat="44.85997" lon="4.32641">
        <ele>1035.56</ele>
        <time>2021-07-02T13:43:47Z</time>
      </trkpt>
      <trkpt lat="44.85998" lon="4.32644">
        <ele>1035.57</ele>
        <time>2021-07-02T13:43:49Z</time>
      </trkpt>
      <trkpt lat="44.85999" lon="4.32647">
        <ele>1035.57</ele>
        <time>2021-07-02T13:43:51Z</time>
      </trkpt>
      <trkpt lat="44.86001" lon="4.32649">
        <ele>1035.57</ele>
        <time>2021-07-02T13:43:53Z</time>
      </trkpt>
      <trkpt lat="44.86002" lon="4.32652">
        <ele>1035.58</ele>
        <time>2021-07-02T13:43:55Z</time>
      </trkpt>
      <trkpt lat="44.86004" lon="4.32655">
        <ele>1035.58</ele>
        <time>2021-07-02T13:43:57Z</time>
      </trkpt>
      <trkpt lat="44.86006" lon="4.32658">
        <ele>1035.59</ele>
        <time>2021-07-02T13:43:59Z</time>
      </trkpt>
      <trkpt lat="44.86008" lon="4.32661">
        <ele>1035.59</ele>
        <time>2021-07-02T13:44:01Z</time>
      </trkpt>
      <trkpt lat="44.8601" lon="4.32663">
        <ele>1035.59</ele>
        <time>2021-07-02T13:44:03Z</time>
      </trkpt>
      <trkpt lat="44.86013" lon="4.32666">
        <ele>1035.6</ele>
        <time>2021-07-02T13:44:05Z</time>
      </trkpt>
      <trkpt lat="44.86015" lon="4.32668">
        <ele>1035.6</ele>
        <time>2021-07-02T13:44:07Z</time>
      </trkpt>
      <trkpt lat="44.86017" lon="4.32671">
        <ele>1035.6</ele>
        <time>2021-07-02T13:44:09Z</time>
      </trkpt>
      <trkpt lat="44.86019" lon="4.32674">
        <ele>1035.6</ele>
        <time>2021-07-02T13:44:11Z</time>
      </trkpt>
      <trkpt lat="44.8602" lon="4.32677">
        <ele>1035.6</ele>
        <time>2021-07-02T13:44:13Z</time>
      </trkpt>
      <trkpt lat="44.86022" lon="4.32681">
        <ele>1035.6</ele>
        <time>2021-07-02T13:44:15Z</time>
      </trkpt>
      <trkpt lat="44.86023" lon="4.32684">
        <ele>1035.61</ele>
        <time>2021-07-02T13:44:17Z</time>
      </trkpt>
      <trkpt lat="44.86024" lon="4.32687">
        <ele>1035.61</ele>
        <time>2021-07-02T13:44:19Z</time>
      </trkpt>
      <trkpt lat="44.86026" lon="4.3269">
        <ele>1035.61</ele>
        <time>2021-07-02T13:44:21Z</time>
      </trkpt>
      <trkpt lat="44.86028" lon="4.32692">
        <ele>1035.61</ele>
        <time>2021-07-02T13:44:23Z</time>
      </trkpt>
      <trkpt lat="44.86029" lon="4.32695">
        <ele>1035.62</ele>
        <time>2021-07-02T13:44:25Z</time>
      </trkpt>
      <trkpt lat="44.86031" lon="4.32697">
        <ele>1035.62</ele>
        <time>2021-07-02T13:44:27Z</time>
      </trkpt>
      <trkpt lat="44.86033" lon="4.327">
        <ele>1035.62</ele>
        <time>2021-07-02T13:44:29Z</time>
      </trkpt>
      <trkpt lat="44.86035" lon="4.32704">
        <ele>1035.63</ele>
        <time>2021-07-02T13:44:32Z</time>
      </trkpt>
      <trkpt lat="44.86037" lon="4.32706">
        <ele>1035.63</ele>
        <time>2021-07-02T13:44:34Z</time>
      </trkpt>
      <trkpt lat="44.86038" lon="4.32709">
        <ele>1035.63</ele>
        <time>2021-07-02T13:44:36Z</time>
      </trkpt>
      <trkpt lat="44.8604" lon="4.32711">
        <ele>1035.64</ele>
        <time>2021-07-02T13:44:38Z</time>
      </trkpt>
      <trkpt lat="44.86041" lon="4.32714">
        <ele>1035.64</ele>
        <time>2021-07-02T13:44:40Z</time>
      </trkpt>
      <trkpt lat="44.86043" lon="4.32716">
        <ele>1035.64</ele>
        <time>2021-07-02T13:44:42Z</time>
      </trkpt>
      <trkpt lat="44.86045" lon="4.32719">
        <ele>1035.65</ele>
        <time>2021-07-02T13:44:44Z</time>
      </trkpt>
      <trkpt lat="44.86046" lon="4.3272">
        <ele>1035.65</ele>
        <time>2021-07-02T13:44:46Z</time>
      </trkpt>
      <trkpt lat="44.86047" lon="4.32723">
        <ele>1035.65</ele>
        <time>2021-07-02T13:44:48Z</time>
      </trkpt>
      <trkpt lat="44.86048" lon="4.32726">
        <ele>1035.65</ele>
        <time>2021-07-02T13:44:50Z</time>
      </trkpt>
      <trkpt lat="44.86049" lon="4.32729">
        <ele>1035.65</ele>
        <time>2021-07-02T13:44:52Z</time>
      </trkpt>
      <trkpt lat="44.8605" lon="4.32733">
        <ele>1035.65</ele>
        <time>2021-07-02T13:44:54Z</time>
      </trkpt>
      <trkpt lat="44.86051" lon="4.32736">
        <ele>1035.65</ele>
        <time>2021-07-02T13:44:56Z</time>
      </trkpt>
      <trkpt lat="44.86051" lon="4.32738">
        <ele>1035.65</ele>
        <time>2021-07-02T13:44:58Z</time>
      </trkpt>
      <trkpt lat="44.86053" lon="4.32742">
        <ele>1035.65</ele>
        <time>2021-07-02T13:45:00Z</time>
      </trkpt>
      <trkpt lat="44.86054" lon="4.32745">
        <ele>1035.65</ele>
        <time>2021-07-02T13:45:02Z</time>
      </trkpt>
      <trkpt lat="44.86055" lon="4.32748">
        <ele>1035.65</ele>
        <time>2021-07-02T13:45:04Z</time>
      </trkpt>
      <trkpt lat="44.86056" lon="4.32751">
        <ele>1035.65</ele>
        <time>2021-07-02T13:45:06Z</time>
      </trkpt>
      <trkpt lat="44.86058" lon="4.32754">
        <ele>1035.64</ele>
        <time>2021-07-02T13:45:08Z</time>
      </trkpt>
      <trkpt lat="44.86059" lon="4.32757">
        <ele>1035.64</ele>
        <time>2021-07-02T13:45:09Z</time>
      </trkpt>
      <trkpt lat="44.86061" lon="4.3276">
        <ele>1035.63</ele>
        <time>2021-07-02T13:45:11Z</time>
      </trkpt>
      <trkpt lat="44.86062" lon="4.32763">
        <ele>1035.63</ele>
        <time>2021-07-02T13:45:13Z</time>
      </trkpt>
      <trkpt lat="44.86063" lon="4.32765">
        <ele>1035.62</ele>
        <time>2021-07-02T13:45:14Z</time>
      </trkpt>
      <trkpt lat="44.86064" lon="4.32769">
        <ele>1035.61</ele>
        <time>2021-07-02T13:45:16Z</time>
      </trkpt>
      <trkpt lat="44.86066" lon="4.32772">
        <ele>1035.6</ele>
        <time>2021-07-02T13:45:18Z</time>
      </trkpt>
      <trkpt lat="44.86068" lon="4.32775">
        <ele>1035.59</ele>
        <time>2021-07-02T13:45:20Z</time>
      </trkpt>
      <trkpt lat="44.86068" lon="4.32777">
        <ele>1035.59</ele>
        <time>2021-07-02T13:45:21Z</time>
      </trkpt>
      <trkpt lat="44.86071" lon="4.3278">
        <ele>1035.58</ele>
        <time>2021-07-02T13:45:23Z</time>
      </trkpt>
      <trkpt lat="44.86072" lon="4.32783">
        <ele>1035.57</ele>
        <time>2021-07-02T13:45:25Z</time>
      </trkpt>
      <trkpt lat="44.86074" lon="4.32785">
        <ele>1035.56</ele>
        <time>2021-07-02T13:45:27Z</time>
      </trkpt>
      <trkpt lat="44.86076" lon="4.32788">
        <ele>1035.54</ele>
        <time>2021-07-02T13:45:30Z</time>
      </trkpt>
      <trkpt lat="44.86077" lon="4.32792">
        <ele>1035.53</ele>
        <time>2021-07-02T13:45:32Z</time>
      </trkpt>
      <trkpt lat="44.86078" lon="4.32795">
        <ele>1035.53</ele>
        <time>2021-07-02T13:45:34Z</time>
      </trkpt>
      <trkpt lat="44.86079" lon="4.328">
        <ele>1035.52</ele>
        <time>2021-07-02T13:45:36Z</time>
      </trkpt>
      <trkpt lat="44.86081" lon="4.32803">
        <ele>1035.51</ele>
        <time>2021-07-02T13:45:38Z</time>
      </trkpt>
      <trkpt lat="44.86082" lon="4.32805">
        <ele>1035.5</ele>
        <time>2021-07-02T13:45:40Z</time>
      </trkpt>
      <trkpt lat="44.86083" lon="4.32809">
        <ele>1035.49</ele>
        <time>2021-07-02T13:45:42Z</time>
      </trkpt>
      <trkpt lat="44.86083" lon="4.32813">
        <ele>1035.48</ele>
        <time>2021-07-02T13:45:44Z</time>
      </trkpt>
      <trkpt lat="44.86084" lon="4.32816">
        <ele>1035.47</ele>
        <time>2021-07-02T13:45:46Z</time>
      </trkpt>
      <trkpt lat="44.86084" lon="4.3282">
        <ele>1035.46</ele>
        <time>2021-07-02T13:45:48Z</time>
      </trkpt>
      <trkpt lat="44.86083" lon="4.32824">
        <ele>1035.45</ele>
        <time>2021-07-02T13:45:50Z</time>
      </trkpt>
      <trkpt lat="44.86083" lon="4.32827">
        <ele>1035.44</ele>
        <time>2021-07-02T13:45:52Z</time>
      </trkpt>
      <trkpt lat="44.86083" lon="4.3283">
        <ele>1035.42</ele>
        <time>2021-07-02T13:45:54Z</time>
      </trkpt>
      <trkpt lat="44.86084" lon="4.32834">
        <ele>1035.41</ele>
        <time>2021-07-02T13:45:57Z</time>
      </trkpt>
      <trkpt lat="44.86085" lon="4.32838">
        <ele>1035.39</ele>
        <time>2021-07-02T13:46:00Z</time>
      </trkpt>
      <trkpt lat="44.86086" lon="4.32842">
        <ele>1035.37</ele>
        <time>2021-07-02T13:46:02Z</time>
      </trkpt>
      <trkpt lat="44.86087" lon="4.32846">
        <ele>1035.36</ele>
        <time>2021-07-02T13:46:04Z</time>
      </trkpt>
      <trkpt lat="44.86088" lon="4.32848">
        <ele>1035.35</ele>
        <time>2021-07-02T13:46:06Z</time>
      </trkpt>
      <trkpt lat="44.86089" lon="4.32851">
        <ele>1035.33</ele>
        <time>2021-07-02T13:46:08Z</time>
      </trkpt>
      <trkpt lat="44.8609" lon="4.32854">
        <ele>1035.31</ele>
        <time>2021-07-02T13:46:10Z</time>
      </trkpt>
      <trkpt lat="44.86091" lon="4.32857">
        <ele>1035.29</ele>
        <time>2021-07-02T13:46:12Z</time>
      </trkpt>
      <trkpt lat="44.86093" lon="4.32861">
        <ele>1035.26</ele>
        <time>2021-07-02T13:46:14Z</time>
      </trkpt>
      <trkpt lat="44.86095" lon="4.32864">
        <ele>1035.24</ele>
        <time>2021-07-02T13:46:16Z</time>
      </trkpt>
      <trkpt lat="44.86097" lon="4.32867">
        <ele>1035.21</ele>
        <time>2021-07-02T13:46:18Z</time>
      </trkpt>
      <trkpt lat="44.86099" lon="4.3287">
        <ele>1035.19</ele>
        <time>2021-07-02T13:46:20Z</time>
      </trkpt>
      <trkpt lat="44.86101" lon="4.32872">
        <ele>1035.17</ele>
        <time>2021-07-02T13:46:22Z</time>
      </trkpt>
      <trkpt lat="44.86103" lon="4.32874">
        <ele>1035.14</ele>
        <time>2021-07-02T13:46:24Z</time>
      </trkpt>
      <trkpt lat="44.86104" lon="4.32878">
        <ele>1035.12</ele>
        <time>2021-07-02T13:46:26Z</time>
      </trkpt>
      <trkpt lat="44.86107" lon="4.3288">
        <ele>1035.1</ele>
        <time>2021-07-02T13:46:28Z</time>
      </trkpt>
      <trkpt lat="44.86109" lon="4.32882">
        <ele>1035.07</ele>
        <time>2021-07-02T13:46:30Z</time>
      </trkpt>
      <trkpt lat="44.86111" lon="4.32884">
        <ele>1035.05</ele>
        <time>2021-07-02T13:46:32Z</time>
      </trkpt>
      <trkpt lat="44.86113" lon="4.32885">
        <ele>1035.03</ele>
        <time>2021-07-02T13:46:34Z</time>
      </trkpt>
      <trkpt lat="44.86116" lon="4.32888">
        <ele>1035.01</ele>
        <time>2021-07-02T13:46:36Z</time>
      </trkpt>
      <trkpt lat="44.86118" lon="4.3289">
        <ele>1034.99</ele>
        <time>2021-07-02T13:46:38Z</time>
      </trkpt>
      <trkpt lat="44.86121" lon="4.32893">
        <ele>1034.97</ele>
        <time>2021-07-02T13:46:40Z</time>
      </trkpt>
      <trkpt lat="44.86123" lon="4.32895">
        <ele>1034.95</ele>
        <time>2021-07-02T13:46:42Z</time>
      </trkpt>
      <trkpt lat="44.86126" lon="4.32897">
        <ele>1034.93</ele>
        <time>2021-07-02T13:46:44Z</time>
      </trkpt>
      <trkpt lat="44.86127" lon="4.32899">
        <ele>1034.91</ele>
        <time>2021-07-02T13:46:46Z</time>
      </trkpt>
      <trkpt lat="44.8613" lon="4.32901">
        <ele>1034.89</ele>
        <time>2021-07-02T13:46:48Z</time>
      </trkpt>
      <trkpt lat="44.86132" lon="4.32903">
        <ele>1034.86</ele>
        <time>2021-07-02T13:46:50Z</time>
      </trkpt>
      <trkpt lat="44.86134" lon="4.32905">
        <ele>1034.84</ele>
        <time>2021-07-02T13:46:52Z</time>
      </trkpt>
      <trkpt lat="44.86137" lon="4.32907">
        <ele>1034.82</ele>
        <time>2021-07-02T13:46:54Z</time>
      </trkpt>
      <trkpt lat="44.86139" lon="4.32909">
        <ele>1034.8</ele>
        <time>2021-07-02T13:46:56Z</time>
      </trkpt>
      <trkpt lat="44.86142" lon="4.32912">
        <ele>1034.78</ele>
        <time>2021-07-02T13:46:58Z</time>
      </trkpt>
      <trkpt lat="44.86144" lon="4.32913">
        <ele>1034.75</ele>
        <time>2021-07-02T13:47:00Z</time>
      </trkpt>
      <trkpt lat="44.86147" lon="4.32916">
        <ele>1034.72</ele>
        <time>2021-07-02T13:47:03Z</time>
      </trkpt>
      <trkpt lat="44.86149" lon="4.32919">
        <ele>1034.69</ele>
        <time>2021-07-02T13:47:05Z</time>
      </trkpt>
      <trkpt lat="44.86151" lon="4.32921">
        <ele>1034.66</ele>
        <time>2021-07-02T13:47:07Z</time>
      </trkpt>
      <trkpt lat="44.86152" lon="4.32923">
        <ele>1034.64</ele>
        <time>2021-07-02T13:47:08Z</time>
      </trkpt>
      <trkpt lat="44.86153" lon="4.32925">
        <ele>1034.62</ele>
        <time>2021-07-02T13:47:09Z</time>
      </trkpt>
      <trkpt lat="44.86155" lon="4.32927">
        <ele>1034.59</ele>
        <time>2021-07-02T13:47:11Z</time>
      </trkpt>
      <trkpt lat="44.86157" lon="4.3293">
        <ele>1034.54</ele>
        <time>2021-07-02T13:47:14Z</time>
      </trkpt>
      <trkpt lat="44.86159" lon="4.32933">
        <ele>1034.5</ele>
        <time>2021-07-02T13:47:16Z</time>
      </trkpt>
      <trkpt lat="44.8616" lon="4.32935">
        <ele>1034.49</ele>
        <time>2021-07-02T13:47:17Z</time>
      </trkpt>
      <trkpt lat="44.86162" lon="4.32937">
        <ele>1034.45</ele>
        <time>2021-07-02T13:47:19Z</time>
      </trkpt>
      <trkpt lat="44.86165" lon="4.32939">
        <ele>1034.4</ele>
        <time>2021-07-02T13:47:22Z</time>
      </trkpt>
      <trkpt lat="44.86167" lon="4.32942">
        <ele>1034.36</ele>
        <time>2021-07-02T13:47:24Z</time>
      </trkpt>
      <trkpt lat="44.86169" lon="4.32944">
        <ele>1034.31</ele>
        <time>2021-07-02T13:47:27Z</time>
      </trkpt>
      <trkpt lat="44.86171" lon="4.32947">
        <ele>1034.27</ele>
        <time>2021-07-02T13:47:29Z</time>
      </trkpt>
      <trkpt lat="44.86173" lon="4.3295">
        <ele>1034.24</ele>
        <time>2021-07-02T13:47:31Z</time>
      </trkpt>
      <trkpt lat="44.86176" lon="4.32953">
        <ele>1034.21</ele>
        <time>2021-07-02T13:47:33Z</time>
      </trkpt>
      <trkpt lat="44.86177" lon="4.32956">
        <ele>1034.17</ele>
        <time>2021-07-02T13:47:35Z</time>
      </trkpt>
      <trkpt lat="44.86179" lon="4.32959">
        <ele>1034.14</ele>
        <time>2021-07-02T13:47:37Z</time>
      </trkpt>
      <trkpt lat="44.86179" lon="4.32962">
        <ele>1034.11</ele>
        <time>2021-07-02T13:47:39Z</time>
      </trkpt>
      <trkpt lat="44.8618" lon="4.32965">
        <ele>1034.07</ele>
        <time>2021-07-02T13:47:41Z</time>
      </trkpt>
      <trkpt lat="44.86181" lon="4.3297">
        <ele>1034.03</ele>
        <time>2021-07-02T13:47:43Z</time>
      </trkpt>
      <trkpt lat="44.86182" lon="4.32975">
        <ele>1034</ele>
        <time>2021-07-02T13:47:45Z</time>
      </trkpt>
      <trkpt lat="44.86183" lon="4.32979">
        <ele>1033.97</ele>
        <time>2021-07-02T13:47:47Z</time>
      </trkpt>
      <trkpt lat="44.86183" lon="4.32982">
        <ele>1033.94</ele>
        <time>2021-07-02T13:47:49Z</time>
      </trkpt>
      <trkpt lat="44.86184" lon="4.32986">
        <ele>1033.9</ele>
        <time>2021-07-02T13:47:51Z</time>
      </trkpt>
      <trkpt lat="44.86185" lon="4.32988">
        <ele>1033.87</ele>
        <time>2021-07-02T13:47:53Z</time>
      </trkpt>
      <trkpt lat="44.86187" lon="4.32992">
        <ele>1033.84</ele>
        <time>2021-07-02T13:47:55Z</time>
      </trkpt>
      <trkpt lat="44.86189" lon="4.32995">
        <ele>1033.8</ele>
        <time>2021-07-02T13:47:57Z</time>
      </trkpt>
      <trkpt lat="44.8619" lon="4.32998">
        <ele>1033.77</ele>
        <time>2021-07-02T13:47:59Z</time>
      </trkpt>
      <trkpt lat="44.86192" lon="4.33001">
        <ele>1033.74</ele>
        <time>2021-07-02T13:48:01Z</time>
      </trkpt>
      <trkpt lat="44.86193" lon="4.33003">
        <ele>1033.7</ele>
        <time>2021-07-02T13:48:03Z</time>
      </trkpt>
      <trkpt lat="44.86196" lon="4.33006">
        <ele>1033.67</ele>
        <time>2021-07-02T13:48:05Z</time>
      </trkpt>
      <trkpt lat="44.86199" lon="4.3301">
        <ele>1033.62</ele>
        <time>2021-07-02T13:48:08Z</time>
      </trkpt>
      <trkpt lat="44.862" lon="4.33013">
        <ele>1033.58</ele>
        <time>2021-07-02T13:48:10Z</time>
      </trkpt>
      <trkpt lat="44.86203" lon="4.33016">
        <ele>1033.55</ele>
        <time>2021-07-02T13:48:12Z</time>
      </trkpt>
      <trkpt lat="44.86205" lon="4.33018">
        <ele>1033.51</ele>
        <time>2021-07-02T13:48:14Z</time>
      </trkpt>
      <trkpt lat="44.86206" lon="4.33022">
        <ele>1033.47</ele>
        <time>2021-07-02T13:48:16Z</time>
      </trkpt>
      <trkpt lat="44.86208" lon="4.33025">
        <ele>1033.44</ele>
        <time>2021-07-02T13:48:18Z</time>
      </trkpt>
      <trkpt lat="44.86211" lon="4.33028">
        <ele>1033.4</ele>
        <time>2021-07-02T13:48:20Z</time>
      </trkpt>
      <trkpt lat="44.86213" lon="4.33029">
        <ele>1033.39</ele>
        <time>2021-07-02T13:48:21Z</time>
      </trkpt>
      <trkpt lat="44.86215" lon="4.33031">
        <ele>1033.35</ele>
        <time>2021-07-02T13:48:23Z</time>
      </trkpt>
      <trkpt lat="44.86217" lon="4.33033">
        <ele>1033.31</ele>
        <time>2021-07-02T13:48:25Z</time>
      </trkpt>
      <trkpt lat="44.86219" lon="4.33035">
        <ele>1033.28</ele>
        <time>2021-07-02T13:48:27Z</time>
      </trkpt>
      <trkpt lat="44.86222" lon="4.3304">
        <ele>1033.23</ele>
        <time>2021-07-02T13:48:29Z</time>
      </trkpt>
      <trkpt lat="44.86223" lon="4.33044">
        <ele>1033.17</ele>
        <time>2021-07-02T13:48:31Z</time>
      </trkpt>
      <trkpt lat="44.86223" lon="4.33047">
        <ele>1033.1</ele>
        <time>2021-07-02T13:48:33Z</time>
      </trkpt>
      <trkpt lat="44.86225" lon="4.33049">
        <ele>1033.06</ele>
        <time>2021-07-02T13:48:34Z</time>
      </trkpt>
      <trkpt lat="44.86226" lon="4.33053">
        <ele>1032.99</ele>
        <time>2021-07-02T13:48:36Z</time>
      </trkpt>
      <trkpt lat="44.86226" lon="4.33056">
        <ele>1032.92</ele>
        <time>2021-07-02T13:48:38Z</time>
      </trkpt>
      <trkpt lat="44.86226" lon="4.33059">
        <ele>1032.83</ele>
        <time>2021-07-02T13:48:40Z</time>
      </trkpt>
      <trkpt lat="44.86228" lon="4.33063">
        <ele>1032.75</ele>
        <time>2021-07-02T13:48:42Z</time>
      </trkpt>
      <trkpt lat="44.86227" lon="4.33067">
        <ele>1032.66</ele>
        <time>2021-07-02T13:48:44Z</time>
      </trkpt>
      <trkpt lat="44.86227" lon="4.33071">
        <ele>1032.56</ele>
        <time>2021-07-02T13:48:46Z</time>
      </trkpt>
      <trkpt lat="44.86227" lon="4.33075">
        <ele>1032.45</ele>
        <time>2021-07-02T13:48:48Z</time>
      </trkpt>
      <trkpt lat="44.86227" lon="4.33078">
        <ele>1032.34</ele>
        <time>2021-07-02T13:48:50Z</time>
      </trkpt>
      <trkpt lat="44.86226" lon="4.33081">
        <ele>1032.21</ele>
        <time>2021-07-02T13:48:52Z</time>
      </trkpt>
      <trkpt lat="44.86226" lon="4.33084">
        <ele>1032.08</ele>
        <time>2021-07-02T13:48:54Z</time>
      </trkpt>
      <trkpt lat="44.86224" lon="4.33086">
        <ele>1031.95</ele>
        <time>2021-07-02T13:48:56Z</time>
      </trkpt>
      <trkpt lat="44.86222" lon="4.33088">
        <ele>1031.83</ele>
        <time>2021-07-02T13:48:58Z</time>
      </trkpt>
      <trkpt lat="44.86221" lon="4.3309">
        <ele>1031.77</ele>
        <time>2021-07-02T13:48:59Z</time>
      </trkpt>
      <trkpt lat="44.8622" lon="4.33093">
        <ele>1031.64</ele>
        <time>2021-07-02T13:49:01Z</time>
      </trkpt>
      <trkpt lat="44.86218" lon="4.33098">
        <ele>1031.52</ele>
        <time>2021-07-02T13:49:03Z</time>
      </trkpt>
      <trkpt lat="44.86217" lon="4.33102">
        <ele>1031.39</ele>
        <time>2021-07-02T13:49:05Z</time>
      </trkpt>
      <trkpt lat="44.86216" lon="4.33105">
        <ele>1031.32</ele>
        <time>2021-07-02T13:49:06Z</time>
      </trkpt>
      <trkpt lat="44.86215" lon="4.33108">
        <ele>1031.19</ele>
        <time>2021-07-02T13:49:08Z</time>
      </trkpt>
      <trkpt lat="44.86213" lon="4.3311">
        <ele>1031.07</ele>
        <time>2021-07-02T13:49:10Z</time>
      </trkpt>
      <trkpt lat="44.86211" lon="4.33113">
        <ele>1030.94</ele>
        <time>2021-07-02T13:49:12Z</time>
      </trkpt>
      <trkpt lat="44.86209" lon="4.33116">
        <ele>1030.82</ele>
        <time>2021-07-02T13:49:14Z</time>
      </trkpt>
      <trkpt lat="44.86206" lon="4.33118">
        <ele>1030.7</ele>
        <time>2021-07-02T13:49:16Z</time>
      </trkpt>
      <trkpt lat="44.86204" lon="4.33122">
        <ele>1030.58</ele>
        <time>2021-07-02T13:49:18Z</time>
      </trkpt>
      <trkpt lat="44.86202" lon="4.33125">
        <ele>1030.46</ele>
        <time>2021-07-02T13:49:20Z</time>
      </trkpt>
      <trkpt lat="44.86199" lon="4.33127">
        <ele>1030.33</ele>
        <time>2021-07-02T13:49:22Z</time>
      </trkpt>
      <trkpt lat="44.86196" lon="4.33127">
        <ele>1030.21</ele>
        <time>2021-07-02T13:49:24Z</time>
      </trkpt>
      <trkpt lat="44.86193" lon="4.33128">
        <ele>1030.02</ele>
        <time>2021-07-02T13:49:27Z</time>
      </trkpt>
      <trkpt lat="44.86191" lon="4.33129">
        <ele>1029.89</ele>
        <time>2021-07-02T13:49:29Z</time>
      </trkpt>
      <trkpt lat="44.86189" lon="4.3313">
        <ele>1029.77</ele>
        <time>2021-07-02T13:49:31Z</time>
      </trkpt>
      <trkpt lat="44.86186" lon="4.33129">
        <ele>1029.65</ele>
        <time>2021-07-02T13:49:33Z</time>
      </trkpt>
      <trkpt lat="44.86185" lon="4.3313">
        <ele>1029.59</ele>
        <time>2021-07-02T13:49:34Z</time>
      </trkpt>
      <trkpt lat="44.86182" lon="4.33129">
        <ele>1029.47</ele>
        <time>2021-07-02T13:49:36Z</time>
      </trkpt>
      <trkpt lat="44.8618" lon="4.33126">
        <ele>1029.36</ele>
        <time>2021-07-02T13:49:38Z</time>
      </trkpt>
      <trkpt lat="44.86178" lon="4.33125">
        <ele>1029.2</ele>
        <time>2021-07-02T13:49:41Z</time>
      </trkpt>
      <trkpt lat="44.86176" lon="4.33124">
        <ele>1029.1</ele>
        <time>2021-07-02T13:49:43Z</time>
      </trkpt>
      <trkpt lat="44.86173" lon="4.33124">
        <ele>1028.99</ele>
        <time>2021-07-02T13:49:45Z</time>
      </trkpt>
      <trkpt lat="44.86171" lon="4.33124">
        <ele>1028.94</ele>
        <time>2021-07-02T13:49:46Z</time>
      </trkpt>
      <trkpt lat="44.86168" lon="4.33123">
        <ele>1028.83</ele>
        <time>2021-07-02T13:49:48Z</time>
      </trkpt>
      <trkpt lat="44.86166" lon="4.33122">
        <ele>1028.78</ele>
        <time>2021-07-02T13:49:49Z</time>
      </trkpt>
      <trkpt lat="44.86164" lon="4.33123">
        <ele>1028.62</ele>
        <time>2021-07-02T13:49:52Z</time>
      </trkpt>
      <trkpt lat="44.86161" lon="4.33124">
        <ele>1028.51</ele>
        <time>2021-07-02T13:49:54Z</time>
      </trkpt>
      <trkpt lat="44.86158" lon="4.33124">
        <ele>1028.4</ele>
        <time>2021-07-02T13:49:56Z</time>
      </trkpt>
      <trkpt lat="44.86155" lon="4.33125">
        <ele>1028.29</ele>
        <time>2021-07-02T13:49:58Z</time>
      </trkpt>
      <trkpt lat="44.86153" lon="4.33125">
        <ele>1028.23</ele>
        <time>2021-07-02T13:49:59Z</time>
      </trkpt>
      <trkpt lat="44.8615" lon="4.33125">
        <ele>1028.11</ele>
        <time>2021-07-02T13:50:01Z</time>
      </trkpt>
      <trkpt lat="44.86147" lon="4.33125">
        <ele>1027.98</ele>
        <time>2021-07-02T13:50:03Z</time>
      </trkpt>
      <trkpt lat="44.86145" lon="4.33125">
        <ele>1027.76</ele>
        <time>2021-07-02T13:50:06Z</time>
      </trkpt>
      <trkpt lat="44.86143" lon="4.33126">
        <ele>1027.34</ele>
        <time>2021-07-02T13:50:11Z</time>
      </trkpt>
      <trkpt lat="44.86141" lon="4.33127">
        <ele>1027.09</ele>
        <time>2021-07-02T13:50:14Z</time>
      </trkpt>
      <trkpt lat="44.86138" lon="4.33128">
        <ele>1026.75</ele>
        <time>2021-07-02T13:50:18Z</time>
      </trkpt>
      <trkpt lat="44.86135" lon="4.33128">
        <ele>1026.58</ele>
        <time>2021-07-02T13:50:20Z</time>
      </trkpt>
      <trkpt lat="44.86133" lon="4.3313">
        <ele>1026.4</ele>
        <time>2021-07-02T13:50:22Z</time>
      </trkpt>
      <trkpt lat="44.86129" lon="4.3313">
        <ele>1026.21</ele>
        <time>2021-07-02T13:50:24Z</time>
      </trkpt>
      <trkpt lat="44.86127" lon="4.33131">
        <ele>1026.01</ele>
        <time>2021-07-02T13:50:26Z</time>
      </trkpt>
      <trkpt lat="44.86125" lon="4.33132">
        <ele>1025.92</ele>
        <time>2021-07-02T13:50:27Z</time>
      </trkpt>
      <trkpt lat="44.86121" lon="4.33134">
        <ele>1025.62</ele>
        <time>2021-07-02T13:50:30Z</time>
      </trkpt>
      <trkpt lat="44.8612" lon="4.33136">
        <ele>1025.42</ele>
        <time>2021-07-02T13:50:32Z</time>
      </trkpt>
      <trkpt lat="44.86118" lon="4.33137">
        <ele>1025.21</ele>
        <time>2021-07-02T13:50:34Z</time>
      </trkpt>
      <trkpt lat="44.86117" lon="4.33139">
        <ele>1025</ele>
        <time>2021-07-02T13:50:36Z</time>
      </trkpt>
      <trkpt lat="44.86114" lon="4.3314">
        <ele>1024.67</ele>
        <time>2021-07-02T13:50:39Z</time>
      </trkpt>
      <trkpt lat="44.86112" lon="4.33142">
        <ele>1024.44</ele>
        <time>2021-07-02T13:50:41Z</time>
      </trkpt>
      <trkpt lat="44.86109" lon="4.33145">
        <ele>1024.2</ele>
        <time>2021-07-02T13:50:43Z</time>
      </trkpt>
      <trkpt lat="44.86106" lon="4.33146">
        <ele>1023.95</ele>
        <time>2021-07-02T13:50:45Z</time>
      </trkpt>
      <trkpt lat="44.86103" lon="4.33148">
        <ele>1023.71</ele>
        <time>2021-07-02T13:50:47Z</time>
      </trkpt>
      <trkpt lat="44.861" lon="4.33149">
        <ele>1023.46</ele>
        <time>2021-07-02T13:50:49Z</time>
      </trkpt>
      <trkpt lat="44.86098" lon="4.33152">
        <ele>1023.23</ele>
        <time>2021-07-02T13:50:51Z</time>
      </trkpt>
      <trkpt lat="44.86097" lon="4.33154">
        <ele>1022.99</ele>
        <time>2021-07-02T13:50:53Z</time>
      </trkpt>
      <trkpt lat="44.86093" lon="4.33157">
        <ele>1022.76</ele>
        <time>2021-07-02T13:50:55Z</time>
      </trkpt>
      <trkpt lat="44.86091" lon="4.33159">
        <ele>1022.54</ele>
        <time>2021-07-02T13:50:57Z</time>
      </trkpt>
      <trkpt lat="44.86089" lon="4.3316">
        <ele>1022.32</ele>
        <time>2021-07-02T13:50:59Z</time>
      </trkpt>
      <trkpt lat="44.86087" lon="4.33162">
        <ele>1022.11</ele>
        <time>2021-07-02T13:51:01Z</time>
      </trkpt>
      <trkpt lat="44.86086" lon="4.33166">
        <ele>1021.89</ele>
        <time>2021-07-02T13:51:03Z</time>
      </trkpt>
      <trkpt lat="44.86084" lon="4.33169">
        <ele>1021.67</ele>
        <time>2021-07-02T13:51:05Z</time>
      </trkpt>
      <trkpt lat="44.86082" lon="4.33172">
        <ele>1021.46</ele>
        <time>2021-07-02T13:51:07Z</time>
      </trkpt>
      <trkpt lat="44.86081" lon="4.33174">
        <ele>1021.25</ele>
        <time>2021-07-02T13:51:09Z</time>
      </trkpt>
      <trkpt lat="44.8608" lon="4.33177">
        <ele>1020.94</ele>
        <time>2021-07-02T13:51:12Z</time>
      </trkpt>
      <trkpt lat="44.86078" lon="4.33178">
        <ele>1020.73</ele>
        <time>2021-07-02T13:51:14Z</time>
      </trkpt>
      <trkpt lat="44.86076" lon="4.33181">
        <ele>1020.52</ele>
        <time>2021-07-02T13:51:16Z</time>
      </trkpt>
      <trkpt lat="44.86076" lon="4.33185">
        <ele>1020.32</ele>
        <time>2021-07-02T13:51:18Z</time>
      </trkpt>
      <trkpt lat="44.86076" lon="4.33189">
        <ele>1020.11</ele>
        <time>2021-07-02T13:51:20Z</time>
      </trkpt>
      <trkpt lat="44.86076" lon="4.33192">
        <ele>1019.91</ele>
        <time>2021-07-02T13:51:22Z</time>
      </trkpt>
      <trkpt lat="44.86075" lon="4.33195">
        <ele>1019.69</ele>
        <time>2021-07-02T13:51:24Z</time>
      </trkpt>
      <trkpt lat="44.86075" lon="4.33198">
        <ele>1019.33</ele>
        <time>2021-07-02T13:51:27Z</time>
      </trkpt>
      <trkpt lat="44.86075" lon="4.33202">
        <ele>1018.96</ele>
        <time>2021-07-02T13:51:30Z</time>
      </trkpt>
      <trkpt lat="44.86075" lon="4.33205">
        <ele>1018.7</ele>
        <time>2021-07-02T13:51:32Z</time>
      </trkpt>
      <trkpt lat="44.86073" lon="4.33208">
        <ele>1018.29</ele>
        <time>2021-07-02T13:51:35Z</time>
      </trkpt>
      <trkpt lat="44.8607" lon="4.3321">
        <ele>1018</ele>
        <time>2021-07-02T13:51:37Z</time>
      </trkpt>
      <trkpt lat="44.86068" lon="4.33211">
        <ele>1017.85</ele>
        <time>2021-07-02T13:51:38Z</time>
      </trkpt>
      <trkpt lat="44.86065" lon="4.33213">
        <ele>1017.56</ele>
        <time>2021-07-02T13:51:40Z</time>
      </trkpt>
      <trkpt lat="44.86063" lon="4.33215">
        <ele>1017.27</ele>
        <time>2021-07-02T13:51:42Z</time>
      </trkpt>
      <trkpt lat="44.86061" lon="4.33215">
        <ele>1017.12</ele>
        <time>2021-07-02T13:51:43Z</time>
      </trkpt>
      <trkpt lat="44.86058" lon="4.33216">
        <ele>1016.68</ele>
        <time>2021-07-02T13:51:46Z</time>
      </trkpt>
      <trkpt lat="44.86056" lon="4.33216">
        <ele>1016.4</ele>
        <time>2021-07-02T13:51:48Z</time>
      </trkpt>
      <trkpt lat="44.86052" lon="4.33215">
        <ele>1015.84</ele>
        <time>2021-07-02T13:51:52Z</time>
      </trkpt>
      <trkpt lat="44.8605" lon="4.33214">
        <ele>1015.56</ele>
        <time>2021-07-02T13:51:54Z</time>
      </trkpt>
      <trkpt lat="44.86046" lon="4.33209">
        <ele>1015.18</ele>
        <time>2021-07-02T13:52:01Z</time>
      </trkpt>
      <trkpt lat="44.86045" lon="4.33207">
        <ele>1015.03</ele>
        <time>2021-07-02T13:52:02Z</time>
      </trkpt>
      <trkpt lat="44.86043" lon="4.33207">
        <ele>1014.88</ele>
        <time>2021-07-02T13:52:03Z</time>
      </trkpt>
      <trkpt lat="44.8604" lon="4.33207">
        <ele>1014.59</ele>
        <time>2021-07-02T13:52:05Z</time>
      </trkpt>
      <trkpt lat="44.86038" lon="4.33206">
        <ele>1014.29</ele>
        <time>2021-07-02T13:52:07Z</time>
      </trkpt>
      <trkpt lat="44.86036" lon="4.33205">
        <ele>1014</ele>
        <time>2021-07-02T13:52:09Z</time>
      </trkpt>
      <trkpt lat="44.86035" lon="4.33205">
        <ele>1013.69</ele>
        <time>2021-07-02T13:52:11Z</time>
      </trkpt>
      <trkpt lat="44.86032" lon="4.33205">
        <ele>1013.24</ele>
        <time>2021-07-02T13:52:14Z</time>
      </trkpt>
      <trkpt lat="44.8603" lon="4.33205">
        <ele>1012.91</ele>
        <time>2021-07-02T13:52:17Z</time>
      </trkpt>
      <trkpt lat="44.86028" lon="4.33205">
        <ele>1011.92</ele>
        <time>2021-07-02T13:52:24Z</time>
      </trkpt>
      <trkpt lat="44.86026" lon="4.33205">
        <ele>1011.57</ele>
        <time>2021-07-02T13:52:26Z</time>
      </trkpt>
      <trkpt lat="44.86024" lon="4.33205">
        <ele>1011.23</ele>
        <time>2021-07-02T13:52:28Z</time>
      </trkpt>
      <trkpt lat="44.86022" lon="4.33205">
        <ele>1010.88</ele>
        <time>2021-07-02T13:52:30Z</time>
      </trkpt>
      <trkpt lat="44.86019" lon="4.33206">
        <ele>1010.52</ele>
        <time>2021-07-02T13:52:32Z</time>
      </trkpt>
      <trkpt lat="44.86017" lon="4.33206">
        <ele>1010.16</ele>
        <time>2021-07-02T13:52:34Z</time>
      </trkpt>
      <trkpt lat="44.86015" lon="4.33206">
        <ele>1009.79</ele>
        <time>2021-07-02T13:52:36Z</time>
      </trkpt>
      <trkpt lat="44.86012" lon="4.33208">
        <ele>1009.42</ele>
        <time>2021-07-02T13:52:38Z</time>
      </trkpt>
      <trkpt lat="44.8601" lon="4.33208">
        <ele>1009.03</ele>
        <time>2021-07-02T13:52:40Z</time>
      </trkpt>
      <trkpt lat="44.86007" lon="4.33208">
        <ele>1008.66</ele>
        <time>2021-07-02T13:52:42Z</time>
      </trkpt>
      <trkpt lat="44.86005" lon="4.33209">
        <ele>1008.27</ele>
        <time>2021-07-02T13:52:45Z</time>
      </trkpt>
      <trkpt lat="44.86003" lon="4.33211">
        <ele>1007.67</ele>
        <time>2021-07-02T13:52:51Z</time>
      </trkpt>
      <trkpt lat="44.86001" lon="4.33213">
        <ele>1007.31</ele>
        <time>2021-07-02T13:52:53Z</time>
      </trkpt>
      <trkpt lat="44.85999" lon="4.33215">
        <ele>1006.95</ele>
        <time>2021-07-02T13:52:55Z</time>
      </trkpt>
      <trkpt lat="44.85996" lon="4.33217">
        <ele>1006.61</ele>
        <time>2021-07-02T13:52:57Z</time>
      </trkpt>
      <trkpt lat="44.85994" lon="4.33219">
        <ele>1006.27</ele>
        <time>2021-07-02T13:52:59Z</time>
      </trkpt>
      <trkpt lat="44.85992" lon="4.33222">
        <ele>1005.94</ele>
        <time>2021-07-02T13:53:01Z</time>
      </trkpt>
      <trkpt lat="44.8599" lon="4.33224">
        <ele>1005.61</ele>
        <time>2021-07-02T13:53:03Z</time>
      </trkpt>
      <trkpt lat="44.85989" lon="4.33226">
        <ele>1005.45</ele>
        <time>2021-07-02T13:53:04Z</time>
      </trkpt>
      <trkpt lat="44.85986" lon="4.33228">
        <ele>1005.12</ele>
        <time>2021-07-02T13:53:06Z</time>
      </trkpt>
      <trkpt lat="44.85984" lon="4.33229">
        <ele>1004.8</ele>
        <time>2021-07-02T13:53:08Z</time>
      </trkpt>
      <trkpt lat="44.85982" lon="4.33231">
        <ele>1004.5</ele>
        <time>2021-07-02T13:53:10Z</time>
      </trkpt>
      <trkpt lat="44.85979" lon="4.33234">
        <ele>1004.04</ele>
        <time>2021-07-02T13:53:13Z</time>
      </trkpt>
      <trkpt lat="44.85977" lon="4.33234">
        <ele>1003.75</ele>
        <time>2021-07-02T13:53:15Z</time>
      </trkpt>
      <trkpt lat="44.85975" lon="4.33235">
        <ele>1003.44</ele>
        <time>2021-07-02T13:53:17Z</time>
      </trkpt>
      <trkpt lat="44.85972" lon="4.33237">
        <ele>1003.14</ele>
        <time>2021-07-02T13:53:19Z</time>
      </trkpt>
      <trkpt lat="44.8597" lon="4.33239">
        <ele>1002.81</ele>
        <time>2021-07-02T13:53:21Z</time>
      </trkpt>
      <trkpt lat="44.85968" lon="4.33238">
        <ele>1002.45</ele>
        <time>2021-07-02T13:53:25Z</time>
      </trkpt>
      <trkpt lat="44.85966" lon="4.33238">
        <ele>1001.89</ele>
        <time>2021-07-02T13:53:31Z</time>
      </trkpt>
      <trkpt lat="44.85964" lon="4.3324">
        <ele>1001.55</ele>
        <time>2021-07-02T13:53:33Z</time>
      </trkpt>
      <trkpt lat="44.85965" lon="4.33244">
        <ele>1001.2</ele>
        <time>2021-07-02T13:53:35Z</time>
      </trkpt>
      <trkpt lat="44.85966" lon="4.33247">
        <ele>1000.84</ele>
        <time>2021-07-02T13:53:37Z</time>
      </trkpt>
      <trkpt lat="44.85966" lon="4.3325">
        <ele>1000.48</ele>
        <time>2021-07-02T13:53:39Z</time>
      </trkpt>
      <trkpt lat="44.85964" lon="4.33252">
        <ele>1000.29</ele>
        <time>2021-07-02T13:53:40Z</time>
      </trkpt>
      <trkpt lat="44.85962" lon="4.33255">
        <ele>999.93</ele>
        <time>2021-07-02T13:53:42Z</time>
      </trkpt>
      <trkpt lat="44.8596" lon="4.33257">
        <ele>999.57</ele>
        <time>2021-07-02T13:53:44Z</time>
      </trkpt>
      <trkpt lat="44.85958" lon="4.33259">
        <ele>999.22</ele>
        <time>2021-07-02T13:53:46Z</time>
      </trkpt>
      <trkpt lat="44.85956" lon="4.3326">
        <ele>998.87</ele>
        <time>2021-07-02T13:53:48Z</time>
      </trkpt>
      <trkpt lat="44.85953" lon="4.33262">
        <ele>998.36</ele>
        <time>2021-07-02T13:53:51Z</time>
      </trkpt>
      <trkpt lat="44.8595" lon="4.33263">
        <ele>997.87</ele>
        <time>2021-07-02T13:53:54Z</time>
      </trkpt>
      <trkpt lat="44.85948" lon="4.33263">
        <ele>997.56</ele>
        <time>2021-07-02T13:53:56Z</time>
      </trkpt>
      <trkpt lat="44.85945" lon="4.33264">
        <ele>997.38</ele>
        <time>2021-07-02T13:53:58Z</time>
      </trkpt>
      <trkpt lat="44.85943" lon="4.3326">
        <ele>996.74</ele>
        <time>2021-07-02T13:54:03Z</time>
      </trkpt>
      <trkpt lat="44.85944" lon="4.33257">
        <ele>996.43</ele>
        <time>2021-07-02T13:54:05Z</time>
      </trkpt>
      <trkpt lat="44.85946" lon="4.33253">
        <ele>996.12</ele>
        <time>2021-07-02T13:54:07Z</time>
      </trkpt>
      <trkpt lat="44.85947" lon="4.3325">
        <ele>995.83</ele>
        <time>2021-07-02T13:54:09Z</time>
      </trkpt>
      <trkpt lat="44.85949" lon="4.33247">
        <ele>995.54</ele>
        <time>2021-07-02T13:54:11Z</time>
      </trkpt>
      <trkpt lat="44.8595" lon="4.33245">
        <ele>995.12</ele>
        <time>2021-07-02T13:54:14Z</time>
      </trkpt>
      <trkpt lat="44.85951" lon="4.33243">
        <ele>994.85</ele>
        <time>2021-07-02T13:54:16Z</time>
      </trkpt>
      <trkpt lat="44.85953" lon="4.33241">
        <ele>994.58</ele>
        <time>2021-07-02T13:54:18Z</time>
      </trkpt>
      <trkpt lat="44.85955" lon="4.33238">
        <ele>994.18</ele>
        <time>2021-07-02T13:54:21Z</time>
      </trkpt>
      <trkpt lat="44.85956" lon="4.33236">
        <ele>993.92</ele>
        <time>2021-07-02T13:54:23Z</time>
      </trkpt>
      <trkpt lat="44.85957" lon="4.33233">
        <ele>993.64</ele>
        <time>2021-07-02T13:54:25Z</time>
      </trkpt>
      <trkpt lat="44.85958" lon="4.3323">
        <ele>993.21</ele>
        <time>2021-07-02T13:54:28Z</time>
      </trkpt>
      <trkpt lat="44.85959" lon="4.33227">
        <ele>992.91</ele>
        <time>2021-07-02T13:54:30Z</time>
      </trkpt>
      <trkpt lat="44.85961" lon="4.33225">
        <ele>992.61</ele>
        <time>2021-07-02T13:54:32Z</time>
      </trkpt>
      <trkpt lat="44.85962" lon="4.33222">
        <ele>992.46</ele>
        <time>2021-07-02T13:54:33Z</time>
      </trkpt>
      <trkpt lat="44.85963" lon="4.33219">
        <ele>992.3</ele>
        <time>2021-07-02T13:54:34Z</time>
      </trkpt>
      <trkpt lat="44.85964" lon="4.33216">
        <ele>992.15</ele>
        <time>2021-07-02T13:54:35Z</time>
      </trkpt>
      <trkpt lat="44.85965" lon="4.33213">
        <ele>992</ele>
        <time>2021-07-02T13:54:36Z</time>
      </trkpt>
      <trkpt lat="44.85966" lon="4.33211">
        <ele>991.84</ele>
        <time>2021-07-02T13:54:37Z</time>
      </trkpt>
      <trkpt lat="44.85967" lon="4.33207">
        <ele>991.54</ele>
        <time>2021-07-02T13:54:39Z</time>
      </trkpt>
      <trkpt lat="44.85967" lon="4.33204">
        <ele>991.24</ele>
        <time>2021-07-02T13:54:41Z</time>
      </trkpt>
      <trkpt lat="44.85968" lon="4.33201">
        <ele>990.94</ele>
        <time>2021-07-02T13:54:43Z</time>
      </trkpt>
      <trkpt lat="44.8597" lon="4.33199">
        <ele>990.79</ele>
        <time>2021-07-02T13:54:44Z</time>
      </trkpt>
      <trkpt lat="44.85971" lon="4.33196">
        <ele>990.5</ele>
        <time>2021-07-02T13:54:46Z</time>
      </trkpt>
      <trkpt lat="44.85974" lon="4.33193">
        <ele>990.08</ele>
        <time>2021-07-02T13:54:49Z</time>
      </trkpt>
      <trkpt lat="44.85974" lon="4.33189">
        <ele>989.8</ele>
        <time>2021-07-02T13:54:51Z</time>
      </trkpt>
      <trkpt lat="44.85975" lon="4.33187">
        <ele>989.54</ele>
        <time>2021-07-02T13:54:53Z</time>
      </trkpt>
      <trkpt lat="44.85975" lon="4.33184">
        <ele>989.28</ele>
        <time>2021-07-02T13:54:55Z</time>
      </trkpt>
      <trkpt lat="44.85977" lon="4.3318">
        <ele>989.02</ele>
        <time>2021-07-02T13:54:57Z</time>
      </trkpt>
      <trkpt lat="44.8598" lon="4.33177">
        <ele>988.76</ele>
        <time>2021-07-02T13:54:59Z</time>
      </trkpt>
      <trkpt lat="44.8598" lon="4.33173">
        <ele>988.51</ele>
        <time>2021-07-02T13:55:01Z</time>
      </trkpt>
      <trkpt lat="44.85982" lon="4.3317">
        <ele>988.14</ele>
        <time>2021-07-02T13:55:05Z</time>
      </trkpt>
      <trkpt lat="44.85984" lon="4.33167">
        <ele>987.78</ele>
        <time>2021-07-02T13:55:08Z</time>
      </trkpt>
      <trkpt lat="44.85986" lon="4.33166">
        <ele>987.66</ele>
        <time>2021-07-02T13:55:09Z</time>
      </trkpt>
      <trkpt lat="44.85989" lon="4.33166">
        <ele>987.44</ele>
        <time>2021-07-02T13:55:11Z</time>
      </trkpt>
      <trkpt lat="44.85989" lon="4.33163">
        <ele>987.01</ele>
        <time>2021-07-02T13:55:15Z</time>
      </trkpt>
      <trkpt lat="44.85991" lon="4.3316">
        <ele>986.7</ele>
        <time>2021-07-02T13:55:18Z</time>
      </trkpt>
      <trkpt lat="44.85992" lon="4.33158">
        <ele>986.41</ele>
        <time>2021-07-02T13:55:21Z</time>
      </trkpt>
      <trkpt lat="44.85995" lon="4.33156">
        <ele>986.12</ele>
        <time>2021-07-02T13:55:24Z</time>
      </trkpt>
      <trkpt lat="44.85996" lon="4.33154">
        <ele>985.85</ele>
        <time>2021-07-02T13:55:27Z</time>
      </trkpt>
      <trkpt lat="44.85999" lon="4.33152">
        <ele>985.66</ele>
        <time>2021-07-02T13:55:29Z</time>
      </trkpt>
      <trkpt lat="44.86001" lon="4.33151">
        <ele>985.48</ele>
        <time>2021-07-02T13:55:31Z</time>
      </trkpt>
      <trkpt lat="44.86003" lon="4.33149">
        <ele>985.19</ele>
        <time>2021-07-02T13:55:34Z</time>
      </trkpt>
      <trkpt lat="44.86008" lon="4.33148">
        <ele>985</ele>
        <time>2021-07-02T13:55:36Z</time>
      </trkpt>
      <trkpt lat="44.86011" lon="4.33148">
        <ele>984.9</ele>
        <time>2021-07-02T13:55:37Z</time>
      </trkpt>
      <trkpt lat="44.86014" lon="4.33147">
        <ele>984.8</ele>
        <time>2021-07-02T13:55:38Z</time>
      </trkpt>
      <trkpt lat="44.86017" lon="4.33145">
        <ele>984.51</ele>
        <time>2021-07-02T13:55:41Z</time>
      </trkpt>
      <trkpt lat="44.86018" lon="4.33141">
        <ele>984.23</ele>
        <time>2021-07-02T13:55:44Z</time>
      </trkpt>
      <trkpt lat="44.86019" lon="4.33138">
        <ele>984.03</ele>
        <time>2021-07-02T13:55:46Z</time>
      </trkpt>
      <trkpt lat="44.8602" lon="4.33134">
        <ele>983.84</ele>
        <time>2021-07-02T13:55:48Z</time>
      </trkpt>
      <trkpt lat="44.86021" lon="4.33131">
        <ele>983.74</ele>
        <time>2021-07-02T13:55:49Z</time>
      </trkpt>
      <trkpt lat="44.86022" lon="4.33129">
        <ele>983.44</ele>
        <time>2021-07-02T13:55:52Z</time>
      </trkpt>
      <trkpt lat="44.86023" lon="4.33126">
        <ele>983.23</ele>
        <time>2021-07-02T13:55:54Z</time>
      </trkpt>
      <trkpt lat="44.86025" lon="4.33124">
        <ele>983.12</ele>
        <time>2021-07-02T13:55:55Z</time>
      </trkpt>
      <trkpt lat="44.86025" lon="4.3312">
        <ele>982.7</ele>
        <time>2021-07-02T13:55:59Z</time>
      </trkpt>
      <trkpt lat="44.86026" lon="4.33117">
        <ele>982.36</ele>
        <time>2021-07-02T13:56:02Z</time>
      </trkpt>
      <trkpt lat="44.86028" lon="4.33113">
        <ele>981.88</ele>
        <time>2021-07-02T13:56:06Z</time>
      </trkpt>
      <trkpt lat="44.8603" lon="4.33115">
        <ele>981.73</ele>
        <time>2021-07-02T13:56:09Z</time>
      </trkpt>
      <trkpt lat="44.86031" lon="4.33118">
        <ele>981.2</ele>
        <time>2021-07-02T13:56:16Z</time>
      </trkpt>
      <trkpt lat="44.86033" lon="4.33118">
        <ele>980.87</ele>
        <time>2021-07-02T13:56:18Z</time>
      </trkpt>
      <trkpt lat="44.86035" lon="4.33115">
        <ele>980.38</ele>
        <time>2021-07-02T13:56:21Z</time>
      </trkpt>
      <trkpt lat="44.86037" lon="4.33111">
        <ele>980.06</ele>
        <time>2021-07-02T13:56:24Z</time>
      </trkpt>
      <trkpt lat="44.86039" lon="4.33109">
        <ele>979.75</ele>
        <time>2021-07-02T13:56:26Z</time>
      </trkpt>
      <trkpt lat="44.86041" lon="4.33102">
        <ele>979.45</ele>
        <time>2021-07-02T13:56:28Z</time>
      </trkpt>
      <trkpt lat="44.86041" lon="4.33099">
        <ele>979.29</ele>
        <time>2021-07-02T13:56:29Z</time>
      </trkpt>
      <trkpt lat="44.86042" lon="4.33097">
        <ele>979</ele>
        <time>2021-07-02T13:56:31Z</time>
      </trkpt>
      <trkpt lat="44.86044" lon="4.33093">
        <ele>978.71</ele>
        <time>2021-07-02T13:56:33Z</time>
      </trkpt>
      <trkpt lat="44.86045" lon="4.3309">
        <ele>978.29</ele>
        <time>2021-07-02T13:56:36Z</time>
      </trkpt>
      <trkpt lat="44.86046" lon="4.33087">
        <ele>978.15</ele>
        <time>2021-07-02T13:56:37Z</time>
      </trkpt>
      <trkpt lat="44.86047" lon="4.33082">
        <ele>977.63</ele>
        <time>2021-07-02T13:56:41Z</time>
      </trkpt>
      <trkpt lat="44.86044" lon="4.33078">
        <ele>976.1</ele>
        <time>2021-07-02T13:56:54Z</time>
      </trkpt>
      <trkpt lat="44.86044" lon="4.33076">
        <ele>975.98</ele>
        <time>2021-07-02T13:56:55Z</time>
      </trkpt>
      <trkpt lat="44.86041" lon="4.33073">
        <ele>975.74</ele>
        <time>2021-07-02T13:56:57Z</time>
      </trkpt>
      <trkpt lat="44.86041" lon="4.33068">
        <ele>975.51</ele>
        <time>2021-07-02T13:56:59Z</time>
      </trkpt>
      <trkpt lat="44.86039" lon="4.33067">
        <ele>975.39</ele>
        <time>2021-07-02T13:57:00Z</time>
      </trkpt>
      <trkpt lat="44.86037" lon="4.33066">
        <ele>975.17</ele>
        <time>2021-07-02T13:57:02Z</time>
      </trkpt>
      <trkpt lat="44.86034" lon="4.33064">
        <ele>974.94</ele>
        <time>2021-07-02T13:57:04Z</time>
      </trkpt>
      <trkpt lat="44.86031" lon="4.33064">
        <ele>974.73</ele>
        <time>2021-07-02T13:57:06Z</time>
      </trkpt>
      <trkpt lat="44.86027" lon="4.33062">
        <ele>974.23</ele>
        <time>2021-07-02T13:57:11Z</time>
      </trkpt>
      <trkpt lat="44.86025" lon="4.33061">
        <ele>974.04</ele>
        <time>2021-07-02T13:57:13Z</time>
      </trkpt>
      <trkpt lat="44.86023" lon="4.3306">
        <ele>973.67</ele>
        <time>2021-07-02T13:57:17Z</time>
      </trkpt>
      <trkpt lat="44.8602" lon="4.3306">
        <ele>973.31</ele>
        <time>2021-07-02T13:57:21Z</time>
      </trkpt>
      <trkpt lat="44.86018" lon="4.33059">
        <ele>973.14</ele>
        <time>2021-07-02T13:57:23Z</time>
      </trkpt>
      <trkpt lat="44.86015" lon="4.33059">
        <ele>972.87</ele>
        <time>2021-07-02T13:57:26Z</time>
      </trkpt>
      <trkpt lat="44.86013" lon="4.33057">
        <ele>972.53</ele>
        <time>2021-07-02T13:57:30Z</time>
      </trkpt>
      <trkpt lat="44.86011" lon="4.33057">
        <ele>972.36</ele>
        <time>2021-07-02T13:57:32Z</time>
      </trkpt>
      <trkpt lat="44.86008" lon="4.33057">
        <ele>972.12</ele>
        <time>2021-07-02T13:57:35Z</time>
      </trkpt>
      <trkpt lat="44.86005" lon="4.33057">
        <ele>971.87</ele>
        <time>2021-07-02T13:57:38Z</time>
      </trkpt>
      <trkpt lat="44.86002" lon="4.33057">
        <ele>971.72</ele>
        <time>2021-07-02T13:57:40Z</time>
      </trkpt>
      <trkpt lat="44.86" lon="4.33056">
        <ele>971.64</ele>
        <time>2021-07-02T13:57:41Z</time>
      </trkpt>
      <trkpt lat="44.85997" lon="4.33054">
        <ele>971.48</ele>
        <time>2021-07-02T13:57:43Z</time>
      </trkpt>
      <trkpt lat="44.85996" lon="4.33052">
        <ele>971.33</ele>
        <time>2021-07-02T13:57:45Z</time>
      </trkpt>
      <trkpt lat="44.85994" lon="4.33051">
        <ele>971.18</ele>
        <time>2021-07-02T13:57:47Z</time>
      </trkpt>
      <trkpt lat="44.85991" lon="4.3305">
        <ele>971.02</ele>
        <time>2021-07-02T13:57:49Z</time>
      </trkpt>
      <trkpt lat="44.85989" lon="4.33048">
        <ele>970.86</ele>
        <time>2021-07-02T13:57:51Z</time>
      </trkpt>
      <trkpt lat="44.85986" lon="4.33048">
        <ele>970.7</ele>
        <time>2021-07-02T13:57:53Z</time>
      </trkpt>
      <trkpt lat="44.85983" lon="4.33047">
        <ele>970.54</ele>
        <time>2021-07-02T13:57:55Z</time>
      </trkpt>
      <trkpt lat="44.85981" lon="4.33047">
        <ele>970.46</ele>
        <time>2021-07-02T13:57:56Z</time>
      </trkpt>
      <trkpt lat="44.85979" lon="4.33047">
        <ele>970.3</ele>
        <time>2021-07-02T13:57:58Z</time>
      </trkpt>
      <trkpt lat="44.85974" lon="4.33047">
        <ele>969.33</ele>
        <time>2021-07-02T13:58:16Z</time>
      </trkpt>
      <trkpt lat="44.85971" lon="4.33045">
        <ele>968.76</ele>
        <time>2021-07-02T13:58:22Z</time>
      </trkpt>
      <trkpt lat="44.85968" lon="4.33042">
        <ele>968.56</ele>
        <time>2021-07-02T13:58:24Z</time>
      </trkpt>
      <trkpt lat="44.85966" lon="4.33041">
        <ele>968.46</ele>
        <time>2021-07-02T13:58:25Z</time>
      </trkpt>
      <trkpt lat="44.85964" lon="4.33039">
        <ele>968.36</ele>
        <time>2021-07-02T13:58:26Z</time>
      </trkpt>
      <trkpt lat="44.85962" lon="4.33038">
        <ele>968.25</ele>
        <time>2021-07-02T13:58:27Z</time>
      </trkpt>
      <trkpt lat="44.8596" lon="4.33038">
        <ele>968.04</ele>
        <time>2021-07-02T13:58:29Z</time>
      </trkpt>
      <trkpt lat="44.85956" lon="4.33036">
        <ele>967.47</ele>
        <time>2021-07-02T13:58:35Z</time>
      </trkpt>
      <trkpt lat="44.85955" lon="4.33035">
        <ele>967.35</ele>
        <time>2021-07-02T13:58:36Z</time>
      </trkpt>
      <trkpt lat="44.85953" lon="4.33033">
        <ele>967.23</ele>
        <time>2021-07-02T13:58:37Z</time>
      </trkpt>
      <trkpt lat="44.8595" lon="4.33031">
        <ele>966.87</ele>
        <time>2021-07-02T13:58:40Z</time>
      </trkpt>
      <trkpt lat="44.85947" lon="4.33029">
        <ele>966.38</ele>
        <time>2021-07-02T13:58:46Z</time>
      </trkpt>
      <trkpt lat="44.85945" lon="4.33028">
        <ele>966.15</ele>
        <time>2021-07-02T13:58:48Z</time>
      </trkpt>
      <trkpt lat="44.85943" lon="4.33025">
        <ele>965.8</ele>
        <time>2021-07-02T13:58:51Z</time>
      </trkpt>
      <trkpt lat="44.85942" lon="4.33022">
        <ele>965.57</ele>
        <time>2021-07-02T13:58:53Z</time>
      </trkpt>
      <trkpt lat="44.85941" lon="4.3302">
        <ele>965.34</ele>
        <time>2021-07-02T13:58:55Z</time>
      </trkpt>
      <trkpt lat="44.85939" lon="4.33017">
        <ele>965.11</ele>
        <time>2021-07-02T13:58:57Z</time>
      </trkpt>
      <trkpt lat="44.85938" lon="4.33012">
        <ele>964.89</ele>
        <time>2021-07-02T13:58:59Z</time>
      </trkpt>
      <trkpt lat="44.85937" lon="4.33009">
        <ele>964.55</ele>
        <time>2021-07-02T13:59:02Z</time>
      </trkpt>
      <trkpt lat="44.85935" lon="4.33006">
        <ele>964</ele>
        <time>2021-07-02T13:59:07Z</time>
      </trkpt>
      <trkpt lat="44.85934" lon="4.33003">
        <ele>963.79</ele>
        <time>2021-07-02T13:59:09Z</time>
      </trkpt>
      <trkpt lat="44.85933" lon="4.32999">
        <ele>963.58</ele>
        <time>2021-07-02T13:59:11Z</time>
      </trkpt>
      <trkpt lat="44.85931" lon="4.32995">
        <ele>963.38</ele>
        <time>2021-07-02T13:59:13Z</time>
      </trkpt>
      <trkpt lat="44.85929" lon="4.32992">
        <ele>963.06</ele>
        <time>2021-07-02T13:59:16Z</time>
      </trkpt>
      <trkpt lat="44.85928" lon="4.3299">
        <ele>962.85</ele>
        <time>2021-07-02T13:59:18Z</time>
      </trkpt>
      <trkpt lat="44.85926" lon="4.32988">
        <ele>962.64</ele>
        <time>2021-07-02T13:59:20Z</time>
      </trkpt>
      <trkpt lat="44.85925" lon="4.32985">
        <ele>962.43</ele>
        <time>2021-07-02T13:59:22Z</time>
      </trkpt>
      <trkpt lat="44.85925" lon="4.32982">
        <ele>962.22</ele>
        <time>2021-07-02T13:59:24Z</time>
      </trkpt>
      <trkpt lat="44.85924" lon="4.32979">
        <ele>962.02</ele>
        <time>2021-07-02T13:59:26Z</time>
      </trkpt>
      <trkpt lat="44.85923" lon="4.32975">
        <ele>961.81</ele>
        <time>2021-07-02T13:59:28Z</time>
      </trkpt>
      <trkpt lat="44.85922" lon="4.32972">
        <ele>961.61</ele>
        <time>2021-07-02T13:59:30Z</time>
      </trkpt>
      <trkpt lat="44.8592" lon="4.3297">
        <ele>961.41</ele>
        <time>2021-07-02T13:59:32Z</time>
      </trkpt>
      <trkpt lat="44.85919" lon="4.32967">
        <ele>961.2</ele>
        <time>2021-07-02T13:59:34Z</time>
      </trkpt>
      <trkpt lat="44.85917" lon="4.32965">
        <ele>961</ele>
        <time>2021-07-02T13:59:36Z</time>
      </trkpt>
      <trkpt lat="44.85916" lon="4.32962">
        <ele>960.79</ele>
        <time>2021-07-02T13:59:38Z</time>
      </trkpt>
      <trkpt lat="44.85914" lon="4.3296">
        <ele>960.58</ele>
        <time>2021-07-02T13:59:40Z</time>
      </trkpt>
      <trkpt lat="44.85913" lon="4.32957">
        <ele>960.36</ele>
        <time>2021-07-02T13:59:42Z</time>
      </trkpt>
      <trkpt lat="44.85912" lon="4.32954">
        <ele>960.14</ele>
        <time>2021-07-02T13:59:44Z</time>
      </trkpt>
      <trkpt lat="44.85911" lon="4.32951">
        <ele>959.92</ele>
        <time>2021-07-02T13:59:46Z</time>
      </trkpt>
      <trkpt lat="44.85909" lon="4.32948">
        <ele>959.7</ele>
        <time>2021-07-02T13:59:48Z</time>
      </trkpt>
      <trkpt lat="44.85907" lon="4.32945">
        <ele>959.47</ele>
        <time>2021-07-02T13:59:50Z</time>
      </trkpt>
      <trkpt lat="44.85906" lon="4.32942">
        <ele>959.25</ele>
        <time>2021-07-02T13:59:52Z</time>
      </trkpt>
      <trkpt lat="44.85905" lon="4.3294">
        <ele>959.14</ele>
        <time>2021-07-02T13:59:53Z</time>
      </trkpt>
      <trkpt lat="44.85903" lon="4.32936">
        <ele>958.91</ele>
        <time>2021-07-02T13:59:55Z</time>
      </trkpt>
      <trkpt lat="44.85901" lon="4.32933">
        <ele>958.57</ele>
        <time>2021-07-02T13:59:58Z</time>
      </trkpt>
      <trkpt lat="44.85899" lon="4.32931">
        <ele>958.34</ele>
        <time>2021-07-02T14:00:00Z</time>
      </trkpt>
      <trkpt lat="44.85896" lon="4.32929">
        <ele>958.11</ele>
        <time>2021-07-02T14:00:02Z</time>
      </trkpt>
      <trkpt lat="44.85893" lon="4.32926">
        <ele>957.89</ele>
        <time>2021-07-02T14:00:04Z</time>
      </trkpt>
      <trkpt lat="44.85891" lon="4.32922">
        <ele>957.66</ele>
        <time>2021-07-02T14:00:06Z</time>
      </trkpt>
      <trkpt lat="44.85889" lon="4.32919">
        <ele>957.44</ele>
        <time>2021-07-02T14:00:08Z</time>
      </trkpt>
      <trkpt lat="44.85887" lon="4.32918">
        <ele>957.21</ele>
        <time>2021-07-02T14:00:10Z</time>
      </trkpt>
      <trkpt lat="44.85887" lon="4.32915">
        <ele>956.99</ele>
        <time>2021-07-02T14:00:12Z</time>
      </trkpt>
      <trkpt lat="44.85884" lon="4.32912">
        <ele>956.65</ele>
        <time>2021-07-02T14:00:15Z</time>
      </trkpt>
      <trkpt lat="44.85883" lon="4.32909">
        <ele>956.32</ele>
        <time>2021-07-02T14:00:18Z</time>
      </trkpt>
      <trkpt lat="44.85881" lon="4.32906">
        <ele>955.98</ele>
        <time>2021-07-02T14:00:21Z</time>
      </trkpt>
      <trkpt lat="44.8588" lon="4.32903">
        <ele>955.76</ele>
        <time>2021-07-02T14:00:23Z</time>
      </trkpt>
      <trkpt lat="44.85879" lon="4.329">
        <ele>955.53</ele>
        <time>2021-07-02T14:00:25Z</time>
      </trkpt>
      <trkpt lat="44.85878" lon="4.32898">
        <ele>955.3</ele>
        <time>2021-07-02T14:00:27Z</time>
      </trkpt>
      <trkpt lat="44.85877" lon="4.32896">
        <ele>955.07</ele>
        <time>2021-07-02T14:00:29Z</time>
      </trkpt>
      <trkpt lat="44.85874" lon="4.32894">
        <ele>954.84</ele>
        <time>2021-07-02T14:00:31Z</time>
      </trkpt>
      <trkpt lat="44.85873" lon="4.32891">
        <ele>954.5</ele>
        <time>2021-07-02T14:00:34Z</time>
      </trkpt>
      <trkpt lat="44.85871" lon="4.32887">
        <ele>954.27</ele>
        <time>2021-07-02T14:00:36Z</time>
      </trkpt>
      <trkpt lat="44.8587" lon="4.32885">
        <ele>954.03</ele>
        <time>2021-07-02T14:00:38Z</time>
      </trkpt>
      <trkpt lat="44.85869" lon="4.32881">
        <ele>953.68</ele>
        <time>2021-07-02T14:00:41Z</time>
      </trkpt>
      <trkpt lat="44.85867" lon="4.32878">
        <ele>953.32</ele>
        <time>2021-07-02T14:00:44Z</time>
      </trkpt>
      <trkpt lat="44.85866" lon="4.32875">
        <ele>953.08</ele>
        <time>2021-07-02T14:00:46Z</time>
      </trkpt>
      <trkpt lat="44.85865" lon="4.32872">
        <ele>952.83</ele>
        <time>2021-07-02T14:00:48Z</time>
      </trkpt>
      <trkpt lat="44.85864" lon="4.32867">
        <ele>952.57</ele>
        <time>2021-07-02T14:00:50Z</time>
      </trkpt>
      <trkpt lat="44.85863" lon="4.32864">
        <ele>952.29</ele>
        <time>2021-07-02T14:00:52Z</time>
      </trkpt>
      <trkpt lat="44.85862" lon="4.32861">
        <ele>952.01</ele>
        <time>2021-07-02T14:00:54Z</time>
      </trkpt>
      <trkpt lat="44.85861" lon="4.32857">
        <ele>951.56</ele>
        <time>2021-07-02T14:00:57Z</time>
      </trkpt>
      <trkpt lat="44.85858" lon="4.32858">
        <ele>951.24</ele>
        <time>2021-07-02T14:00:59Z</time>
      </trkpt>
      <trkpt lat="44.85857" lon="4.32862">
        <ele>950.92</ele>
        <time>2021-07-02T14:01:01Z</time>
      </trkpt>
      <trkpt lat="44.85855" lon="4.32866">
        <ele>950.58</ele>
        <time>2021-07-02T14:01:03Z</time>
      </trkpt>
      <trkpt lat="44.85853" lon="4.3287">
        <ele>950.24</ele>
        <time>2021-07-02T14:01:05Z</time>
      </trkpt>
      <trkpt lat="44.85854" lon="4.32874">
        <ele>949.69</ele>
        <time>2021-07-02T14:01:08Z</time>
      </trkpt>
      <trkpt lat="44.85855" lon="4.32877">
        <ele>949.32</ele>
        <time>2021-07-02T14:01:10Z</time>
      </trkpt>
      <trkpt lat="44.85856" lon="4.3288">
        <ele>948.94</ele>
        <time>2021-07-02T14:01:12Z</time>
      </trkpt>
      <trkpt lat="44.85858" lon="4.32884">
        <ele>948.56</ele>
        <time>2021-07-02T14:01:14Z</time>
      </trkpt>
      <trkpt lat="44.8586" lon="4.32888">
        <ele>948.2</ele>
        <time>2021-07-02T14:01:16Z</time>
      </trkpt>
      <trkpt lat="44.85861" lon="4.32891">
        <ele>947.83</ele>
        <time>2021-07-02T14:01:18Z</time>
      </trkpt>
      <trkpt lat="44.85861" lon="4.32894">
        <ele>947.46</ele>
        <time>2021-07-02T14:01:20Z</time>
      </trkpt>
      <trkpt lat="44.85862" lon="4.32898">
        <ele>947.09</ele>
        <time>2021-07-02T14:01:22Z</time>
      </trkpt>
      <trkpt lat="44.85863" lon="4.32901">
        <ele>946.73</ele>
        <time>2021-07-02T14:01:24Z</time>
      </trkpt>
      <trkpt lat="44.85864" lon="4.32905">
        <ele>946</ele>
        <time>2021-07-02T14:01:28Z</time>
      </trkpt>
      <trkpt lat="44.85864" lon="4.32908">
        <ele>945.63</ele>
        <time>2021-07-02T14:01:30Z</time>
      </trkpt>
      <trkpt lat="44.85865" lon="4.32911">
        <ele>945.26</ele>
        <time>2021-07-02T14:01:32Z</time>
      </trkpt>
      <trkpt lat="44.85865" lon="4.32915">
        <ele>944.88</ele>
        <time>2021-07-02T14:01:34Z</time>
      </trkpt>
      <trkpt lat="44.85866" lon="4.32917">
        <ele>944.7</ele>
        <time>2021-07-02T14:01:35Z</time>
      </trkpt>
      <trkpt lat="44.85866" lon="4.32921">
        <ele>944.32</ele>
        <time>2021-07-02T14:01:37Z</time>
      </trkpt>
      <trkpt lat="44.85868" lon="4.32925">
        <ele>943.95</ele>
        <time>2021-07-02T14:01:39Z</time>
      </trkpt>
      <trkpt lat="44.85869" lon="4.32929">
        <ele>943.59</ele>
        <time>2021-07-02T14:01:41Z</time>
      </trkpt>
      <trkpt lat="44.8587" lon="4.32932">
        <ele>943.23</ele>
        <time>2021-07-02T14:01:43Z</time>
      </trkpt>
      <trkpt lat="44.85871" lon="4.32936">
        <ele>942.88</ele>
        <time>2021-07-02T14:01:45Z</time>
      </trkpt>
      <trkpt lat="44.85872" lon="4.32938">
        <ele>942.53</ele>
        <time>2021-07-02T14:01:47Z</time>
      </trkpt>
      <trkpt lat="44.85873" lon="4.32942">
        <ele>942.01</ele>
        <time>2021-07-02T14:01:50Z</time>
      </trkpt>
      <trkpt lat="44.85874" lon="4.32945">
        <ele>941.67</ele>
        <time>2021-07-02T14:01:52Z</time>
      </trkpt>
      <trkpt lat="44.85874" lon="4.32949">
        <ele>941.01</ele>
        <time>2021-07-02T14:01:56Z</time>
      </trkpt>
      <trkpt lat="44.85874" lon="4.32953">
        <ele>940.51</ele>
        <time>2021-07-02T14:01:59Z</time>
      </trkpt>
      <trkpt lat="44.85874" lon="4.32958">
        <ele>940.03</ele>
        <time>2021-07-02T14:02:02Z</time>
      </trkpt>
      <trkpt lat="44.85875" lon="4.3296">
        <ele>939.71</ele>
        <time>2021-07-02T14:02:04Z</time>
      </trkpt>
      <trkpt lat="44.85876" lon="4.32963">
        <ele>939.39</ele>
        <time>2021-07-02T14:02:06Z</time>
      </trkpt>
      <trkpt lat="44.85875" lon="4.32966">
        <ele>939.09</ele>
        <time>2021-07-02T14:02:08Z</time>
      </trkpt>
      <trkpt lat="44.85873" lon="4.32968">
        <ele>939.07</ele>
        <time>2021-07-02T14:02:09Z</time>
      </trkpt>
      <trkpt lat="44.8587" lon="4.32967">
        <ele>938.96</ele>
        <time>2021-07-02T14:02:16Z</time>
      </trkpt>
      <trkpt lat="44.85868" lon="4.32966">
        <ele>938.79</ele>
        <time>2021-07-02T14:02:26Z</time>
      </trkpt>
      <trkpt lat="44.85866" lon="4.32965">
        <ele>938.57</ele>
        <time>2021-07-02T14:02:38Z</time>
      </trkpt>
      <trkpt lat="44.85866" lon="4.32968">
        <ele>937.09</ele>
        <time>2021-07-02T14:03:23Z</time>
      </trkpt>
      <trkpt lat="44.85867" lon="4.32971">
        <ele>936.48</ele>
        <time>2021-07-02T14:03:26Z</time>
      </trkpt>
      <trkpt lat="44.85867" lon="4.32974">
        <ele>936.09</ele>
        <time>2021-07-02T14:03:28Z</time>
      </trkpt>
      <trkpt lat="44.85867" lon="4.32978">
        <ele>935.71</ele>
        <time>2021-07-02T14:03:30Z</time>
      </trkpt>
      <trkpt lat="44.85867" lon="4.32982">
        <ele>935.15</ele>
        <time>2021-07-02T14:03:33Z</time>
      </trkpt>
      <trkpt lat="44.85867" lon="4.32986">
        <ele>934.79</ele>
        <time>2021-07-02T14:03:35Z</time>
      </trkpt>
      <trkpt lat="44.85867" lon="4.32989">
        <ele>934.44</ele>
        <time>2021-07-02T14:03:37Z</time>
      </trkpt>
      <trkpt lat="44.85868" lon="4.32993">
        <ele>934.1</ele>
        <time>2021-07-02T14:03:39Z</time>
      </trkpt>
      <trkpt lat="44.85868" lon="4.32997">
        <ele>933.45</ele>
        <time>2021-07-02T14:03:43Z</time>
      </trkpt>
      <trkpt lat="44.85869" lon="4.33">
        <ele>932.99</ele>
        <time>2021-07-02T14:03:46Z</time>
      </trkpt>
      <trkpt lat="44.85871" lon="4.33004">
        <ele>932.55</ele>
        <time>2021-07-02T14:03:49Z</time>
      </trkpt>
      <trkpt lat="44.85872" lon="4.33008">
        <ele>932.26</ele>
        <time>2021-07-02T14:03:51Z</time>
      </trkpt>
      <trkpt lat="44.85873" lon="4.33012">
        <ele>931.98</ele>
        <time>2021-07-02T14:03:53Z</time>
      </trkpt>
      <trkpt lat="44.85874" lon="4.33015">
        <ele>931.44</ele>
        <time>2021-07-02T14:03:57Z</time>
      </trkpt>
      <trkpt lat="44.85876" lon="4.3302">
        <ele>931.04</ele>
        <time>2021-07-02T14:04:00Z</time>
      </trkpt>
      <trkpt lat="44.85877" lon="4.33021">
        <ele>930.91</ele>
        <time>2021-07-02T14:04:01Z</time>
      </trkpt>
      <trkpt lat="44.8588" lon="4.33026">
        <ele>930.65</ele>
        <time>2021-07-02T14:04:03Z</time>
      </trkpt>
      <trkpt lat="44.85881" lon="4.33028">
        <ele>930.52</ele>
        <time>2021-07-02T14:04:04Z</time>
      </trkpt>
      <trkpt lat="44.85881" lon="4.33031">
        <ele>930.26</ele>
        <time>2021-07-02T14:04:06Z</time>
      </trkpt>
      <trkpt lat="44.85881" lon="4.33034">
        <ele>930.01</ele>
        <time>2021-07-02T14:04:08Z</time>
      </trkpt>
      <trkpt lat="44.85881" lon="4.33038">
        <ele>929.75</ele>
        <time>2021-07-02T14:04:10Z</time>
      </trkpt>
      <trkpt lat="44.8588" lon="4.33043">
        <ele>929.49</ele>
        <time>2021-07-02T14:04:12Z</time>
      </trkpt>
      <trkpt lat="44.85879" lon="4.33045">
        <ele>929.37</ele>
        <time>2021-07-02T14:04:13Z</time>
      </trkpt>
      <trkpt lat="44.85879" lon="4.33048">
        <ele>929.23</ele>
        <time>2021-07-02T14:04:14Z</time>
      </trkpt>
      <trkpt lat="44.85878" lon="4.33051">
        <ele>929.1</ele>
        <time>2021-07-02T14:04:15Z</time>
      </trkpt>
      <trkpt lat="44.85877" lon="4.33056">
        <ele>928.84</ele>
        <time>2021-07-02T14:04:17Z</time>
      </trkpt>
      <trkpt lat="44.85877" lon="4.3306">
        <ele>928.57</ele>
        <time>2021-07-02T14:04:19Z</time>
      </trkpt>
      <trkpt lat="44.85878" lon="4.33064">
        <ele>928.14</ele>
        <time>2021-07-02T14:04:22Z</time>
      </trkpt>
      <trkpt lat="44.85877" lon="4.33067">
        <ele>927.71</ele>
        <time>2021-07-02T14:04:25Z</time>
      </trkpt>
      <trkpt lat="44.85875" lon="4.33069">
        <ele>927.42</ele>
        <time>2021-07-02T14:04:27Z</time>
      </trkpt>
      <trkpt lat="44.85872" lon="4.33068">
        <ele>926.63</ele>
        <time>2021-07-02T14:04:36Z</time>
      </trkpt>
      <trkpt lat="44.85871" lon="4.33066">
        <ele>926.48</ele>
        <time>2021-07-02T14:04:37Z</time>
      </trkpt>
      <trkpt lat="44.85868" lon="4.33062">
        <ele>926.19</ele>
        <time>2021-07-02T14:04:39Z</time>
      </trkpt>
      <trkpt lat="44.85866" lon="4.3306">
        <ele>925.91</ele>
        <time>2021-07-02T14:04:41Z</time>
      </trkpt>
      <trkpt lat="44.85865" lon="4.33057">
        <ele>925.51</ele>
        <time>2021-07-02T14:04:44Z</time>
      </trkpt>
      <trkpt lat="44.85863" lon="4.33055">
        <ele>925.37</ele>
        <time>2021-07-02T14:04:45Z</time>
      </trkpt>
      <trkpt lat="44.85862" lon="4.33053">
        <ele>925.11</ele>
        <time>2021-07-02T14:04:47Z</time>
      </trkpt>
      <trkpt lat="44.85859" lon="4.3305">
        <ele>924.86</ele>
        <time>2021-07-02T14:04:49Z</time>
      </trkpt>
      <trkpt lat="44.85858" lon="4.33048">
        <ele>924.73</ele>
        <time>2021-07-02T14:04:50Z</time>
      </trkpt>
      <trkpt lat="44.85856" lon="4.33047">
        <ele>924.61</ele>
        <time>2021-07-02T14:04:51Z</time>
      </trkpt>
      <trkpt lat="44.85855" lon="4.33044">
        <ele>924.36</ele>
        <time>2021-07-02T14:04:53Z</time>
      </trkpt>
      <trkpt lat="44.85853" lon="4.33041">
        <ele>924.12</ele>
        <time>2021-07-02T14:04:55Z</time>
      </trkpt>
      <trkpt lat="44.8585" lon="4.33038">
        <ele>923.88</ele>
        <time>2021-07-02T14:04:57Z</time>
      </trkpt>
      <trkpt lat="44.85848" lon="4.33036">
        <ele>923.65</ele>
        <time>2021-07-02T14:04:59Z</time>
      </trkpt>
      <trkpt lat="44.85846" lon="4.33033">
        <ele>923.42</ele>
        <time>2021-07-02T14:05:01Z</time>
      </trkpt>
      <trkpt lat="44.85842" lon="4.3303">
        <ele>923.09</ele>
        <time>2021-07-02T14:05:04Z</time>
      </trkpt>
      <trkpt lat="44.85841" lon="4.3303">
        <ele>922.98</ele>
        <time>2021-07-02T14:05:05Z</time>
      </trkpt>
      <trkpt lat="44.85838" lon="4.33029">
        <ele>922.87</ele>
        <time>2021-07-02T14:05:06Z</time>
      </trkpt>
      <trkpt lat="44.85836" lon="4.33026">
        <ele>922.66</ele>
        <time>2021-07-02T14:05:08Z</time>
      </trkpt>
      <trkpt lat="44.85834" lon="4.33024">
        <ele>922.45</ele>
        <time>2021-07-02T14:05:10Z</time>
      </trkpt>
      <trkpt lat="44.85832" lon="4.33021">
        <ele>922.25</ele>
        <time>2021-07-02T14:05:12Z</time>
      </trkpt>
      <trkpt lat="44.85833" lon="4.33017">
        <ele>921.88</ele>
        <time>2021-07-02T14:05:22Z</time>
      </trkpt>
      <trkpt lat="44.8583" lon="4.33016">
        <ele>921.68</ele>
        <time>2021-07-02T14:05:24Z</time>
      </trkpt>
      <trkpt lat="44.85828" lon="4.33016">
        <ele>921.48</ele>
        <time>2021-07-02T14:05:26Z</time>
      </trkpt>
      <trkpt lat="44.85826" lon="4.33017">
        <ele>920.87</ele>
        <time>2021-07-02T14:05:32Z</time>
      </trkpt>
      <trkpt lat="44.85827" lon="4.3302">
        <ele>920.66</ele>
        <time>2021-07-02T14:05:34Z</time>
      </trkpt>
      <trkpt lat="44.85828" lon="4.33022">
        <ele>920.46</ele>
        <time>2021-07-02T14:05:36Z</time>
      </trkpt>
      <trkpt lat="44.85829" lon="4.33024">
        <ele>920.36</ele>
        <time>2021-07-02T14:05:37Z</time>
      </trkpt>
      <trkpt lat="44.85831" lon="4.33027">
        <ele>920.27</ele>
        <time>2021-07-02T14:05:38Z</time>
      </trkpt>
      <trkpt lat="44.85833" lon="4.3303">
        <ele>919.98</ele>
        <time>2021-07-02T14:05:41Z</time>
      </trkpt>
      <trkpt lat="44.85836" lon="4.33032">
        <ele>919.79</ele>
        <time>2021-07-02T14:05:43Z</time>
      </trkpt>
      <trkpt lat="44.85837" lon="4.33034">
        <ele>919.7</ele>
        <time>2021-07-02T14:05:44Z</time>
      </trkpt>
      <trkpt lat="44.8584" lon="4.33037">
        <ele>919.44</ele>
        <time>2021-07-02T14:05:47Z</time>
      </trkpt>
      <trkpt lat="44.85842" lon="4.33039">
        <ele>919.26</ele>
        <time>2021-07-02T14:05:49Z</time>
      </trkpt>
      <trkpt lat="44.85844" lon="4.33043">
        <ele>919.1</ele>
        <time>2021-07-02T14:05:51Z</time>
      </trkpt>
      <trkpt lat="44.85846" lon="4.33046">
        <ele>919.02</ele>
        <time>2021-07-02T14:05:52Z</time>
      </trkpt>
      <trkpt lat="44.85848" lon="4.33048">
        <ele>918.93</ele>
        <time>2021-07-02T14:05:53Z</time>
      </trkpt>
      <trkpt lat="44.85851" lon="4.33052">
        <ele>918.77</ele>
        <time>2021-07-02T14:05:55Z</time>
      </trkpt>
      <trkpt lat="44.85852" lon="4.33054">
        <ele>918.7</ele>
        <time>2021-07-02T14:05:56Z</time>
      </trkpt>
      <trkpt lat="44.85852" lon="4.33057">
        <ele>918.46</ele>
        <time>2021-07-02T14:05:59Z</time>
      </trkpt>
      <trkpt lat="44.85853" lon="4.3306">
        <ele>918.31</ele>
        <time>2021-07-02T14:06:01Z</time>
      </trkpt>
      <trkpt lat="44.85854" lon="4.33063">
        <ele>918.16</ele>
        <time>2021-07-02T14:06:03Z</time>
      </trkpt>
      <trkpt lat="44.85855" lon="4.33066">
        <ele>918.02</ele>
        <time>2021-07-02T14:06:05Z</time>
      </trkpt>
      <trkpt lat="44.85856" lon="4.33071">
        <ele>917.74</ele>
        <time>2021-07-02T14:06:09Z</time>
      </trkpt>
      <trkpt lat="44.85857" lon="4.33074">
        <ele>917.6</ele>
        <time>2021-07-02T14:06:11Z</time>
      </trkpt>
      <trkpt lat="44.85857" lon="4.33078">
        <ele>917.46</ele>
        <time>2021-07-02T14:06:13Z</time>
      </trkpt>
      <trkpt lat="44.85858" lon="4.33082">
        <ele>917.33</ele>
        <time>2021-07-02T14:06:15Z</time>
      </trkpt>
      <trkpt lat="44.85858" lon="4.33085">
        <ele>917.2</ele>
        <time>2021-07-02T14:06:17Z</time>
      </trkpt>
      <trkpt lat="44.85858" lon="4.33088">
        <ele>917.13</ele>
        <time>2021-07-02T14:06:18Z</time>
      </trkpt>
      <trkpt lat="44.8586" lon="4.33091">
        <ele>917</ele>
        <time>2021-07-02T14:06:20Z</time>
      </trkpt>
      <trkpt lat="44.85861" lon="4.33095">
        <ele>916.88</ele>
        <time>2021-07-02T14:06:22Z</time>
      </trkpt>
      <trkpt lat="44.85862" lon="4.33098">
        <ele>916.75</ele>
        <time>2021-07-02T14:06:24Z</time>
      </trkpt>
      <trkpt lat="44.85863" lon="4.33103">
        <ele>916.62</ele>
        <time>2021-07-02T14:06:26Z</time>
      </trkpt>
      <trkpt lat="44.85864" lon="4.33106">
        <ele>916.48</ele>
        <time>2021-07-02T14:06:28Z</time>
      </trkpt>
      <trkpt lat="44.85864" lon="4.33108">
        <ele>916.34</ele>
        <time>2021-07-02T14:06:30Z</time>
      </trkpt>
      <trkpt lat="44.85864" lon="4.33112">
        <ele>916.26</ele>
        <time>2021-07-02T14:06:32Z</time>
      </trkpt>
      <trkpt lat="44.85863" lon="4.33114">
        <ele>916.1</ele>
        <time>2021-07-02T14:06:34Z</time>
      </trkpt>
      <trkpt lat="44.85861" lon="4.33118">
        <ele>915.93</ele>
        <time>2021-07-02T14:06:36Z</time>
      </trkpt>
      <trkpt lat="44.8586" lon="4.3312">
        <ele>915.76</ele>
        <time>2021-07-02T14:06:38Z</time>
      </trkpt>
      <trkpt lat="44.85858" lon="4.33121">
        <ele>915.58</ele>
        <time>2021-07-02T14:06:40Z</time>
      </trkpt>
      <trkpt lat="44.85857" lon="4.33123">
        <ele>915.37</ele>
        <time>2021-07-02T14:06:42Z</time>
      </trkpt>
      <trkpt lat="44.85853" lon="4.33122">
        <ele>915.03</ele>
        <time>2021-07-02T14:06:45Z</time>
      </trkpt>
      <trkpt lat="44.85851" lon="4.33121">
        <ele>914.77</ele>
        <time>2021-07-02T14:06:47Z</time>
      </trkpt>
      <trkpt lat="44.85849" lon="4.33121">
        <ele>914.37</ele>
        <time>2021-07-02T14:06:50Z</time>
      </trkpt>
      <trkpt lat="44.85847" lon="4.33124">
        <ele>914.09</ele>
        <time>2021-07-02T14:06:52Z</time>
      </trkpt>
      <trkpt lat="44.85845" lon="4.33125">
        <ele>913.78</ele>
        <time>2021-07-02T14:06:54Z</time>
      </trkpt>
      <trkpt lat="44.85843" lon="4.33127">
        <ele>913.32</ele>
        <time>2021-07-02T14:06:57Z</time>
      </trkpt>
      <trkpt lat="44.85841" lon="4.33128">
        <ele>913</ele>
        <time>2021-07-02T14:06:59Z</time>
      </trkpt>
      <trkpt lat="44.85839" lon="4.3313">
        <ele>912.67</ele>
        <time>2021-07-02T14:07:01Z</time>
      </trkpt>
      <trkpt lat="44.85837" lon="4.33131">
        <ele>912.32</ele>
        <time>2021-07-02T14:07:03Z</time>
      </trkpt>
      <trkpt lat="44.85834" lon="4.33132">
        <ele>911.96</ele>
        <time>2021-07-02T14:07:05Z</time>
      </trkpt>
      <trkpt lat="44.85832" lon="4.33133">
        <ele>911.6</ele>
        <time>2021-07-02T14:07:07Z</time>
      </trkpt>
      <trkpt lat="44.8583" lon="4.33135">
        <ele>911.23</ele>
        <time>2021-07-02T14:07:09Z</time>
      </trkpt>
      <trkpt lat="44.85828" lon="4.33136">
        <ele>910.85</ele>
        <time>2021-07-02T14:07:11Z</time>
      </trkpt>
      <trkpt lat="44.85825" lon="4.33138">
        <ele>910.47</ele>
        <time>2021-07-02T14:07:13Z</time>
      </trkpt>
      <trkpt lat="44.85822" lon="4.33141">
        <ele>910.09</ele>
        <time>2021-07-02T14:07:15Z</time>
      </trkpt>
      <trkpt lat="44.8582" lon="4.33143">
        <ele>909.72</ele>
        <time>2021-07-02T14:07:17Z</time>
      </trkpt>
      <trkpt lat="44.85818" lon="4.33144">
        <ele>909</ele>
        <time>2021-07-02T14:07:21Z</time>
      </trkpt>
      <trkpt lat="44.85816" lon="4.33146">
        <ele>908.64</ele>
        <time>2021-07-02T14:07:23Z</time>
      </trkpt>
      <trkpt lat="44.85814" lon="4.33149">
        <ele>908.13</ele>
        <time>2021-07-02T14:07:26Z</time>
      </trkpt>
      <trkpt lat="44.85813" lon="4.33153">
        <ele>907.64</ele>
        <time>2021-07-02T14:07:29Z</time>
      </trkpt>
      <trkpt lat="44.85812" lon="4.33156">
        <ele>907.01</ele>
        <time>2021-07-02T14:07:33Z</time>
      </trkpt>
      <trkpt lat="44.8581" lon="4.33158">
        <ele>906.7</ele>
        <time>2021-07-02T14:07:35Z</time>
      </trkpt>
      <trkpt lat="44.85808" lon="4.33162">
        <ele>906.26</ele>
        <time>2021-07-02T14:07:38Z</time>
      </trkpt>
      <trkpt lat="44.85806" lon="4.33165">
        <ele>905.97</ele>
        <time>2021-07-02T14:07:40Z</time>
      </trkpt>
      <trkpt lat="44.85804" lon="4.33167">
        <ele>905.68</ele>
        <time>2021-07-02T14:07:42Z</time>
      </trkpt>
      <trkpt lat="44.85802" lon="4.33168">
        <ele>905.41</ele>
        <time>2021-07-02T14:07:44Z</time>
      </trkpt>
      <trkpt lat="44.858" lon="4.3317">
        <ele>905.01</ele>
        <time>2021-07-02T14:07:47Z</time>
      </trkpt>
      <trkpt lat="44.85796" lon="4.33172">
        <ele>904.63</ele>
        <time>2021-07-02T14:07:50Z</time>
      </trkpt>
      <trkpt lat="44.85795" lon="4.33174">
        <ele>904.5</ele>
        <time>2021-07-02T14:07:51Z</time>
      </trkpt>
      <trkpt lat="44.85794" lon="4.33176">
        <ele>904.38</ele>
        <time>2021-07-02T14:07:52Z</time>
      </trkpt>
      <trkpt lat="44.85792" lon="4.33178">
        <ele>904.26</ele>
        <time>2021-07-02T14:07:53Z</time>
      </trkpt>
      <trkpt lat="44.8579" lon="4.33182">
        <ele>904.01</ele>
        <time>2021-07-02T14:07:55Z</time>
      </trkpt>
      <trkpt lat="44.85788" lon="4.33184">
        <ele>903.77</ele>
        <time>2021-07-02T14:07:57Z</time>
      </trkpt>
      <trkpt lat="44.85785" lon="4.33188">
        <ele>903.53</ele>
        <time>2021-07-02T14:07:59Z</time>
      </trkpt>
      <trkpt lat="44.85784" lon="4.33189">
        <ele>903.41</ele>
        <time>2021-07-02T14:08:00Z</time>
      </trkpt>
      <trkpt lat="44.85782" lon="4.33191">
        <ele>903.17</ele>
        <time>2021-07-02T14:08:02Z</time>
      </trkpt>
      <trkpt lat="44.8578" lon="4.33195">
        <ele>902.82</ele>
        <time>2021-07-02T14:08:05Z</time>
      </trkpt>
      <trkpt lat="44.85779" lon="4.332">
        <ele>902.58</ele>
        <time>2021-07-02T14:08:07Z</time>
      </trkpt>
      <trkpt lat="44.85777" lon="4.33202">
        <ele>902.22</ele>
        <time>2021-07-02T14:08:10Z</time>
      </trkpt>
      <trkpt lat="44.85776" lon="4.33205">
        <ele>901.97</ele>
        <time>2021-07-02T14:08:12Z</time>
      </trkpt>
      <trkpt lat="44.85775" lon="4.33208">
        <ele>900.93</ele>
        <time>2021-07-02T14:08:21Z</time>
      </trkpt>
      <trkpt lat="44.85776" lon="4.33212">
        <ele>899.93</ele>
        <time>2021-07-02T14:08:36Z</time>
      </trkpt>
      <trkpt lat="44.85776" lon="4.33215">
        <ele>899.57</ele>
        <time>2021-07-02T14:08:38Z</time>
      </trkpt>
      <trkpt lat="44.85775" lon="4.33219">
        <ele>899.22</ele>
        <time>2021-07-02T14:08:40Z</time>
      </trkpt>
      <trkpt lat="44.85774" lon="4.33222">
        <ele>899.05</ele>
        <time>2021-07-02T14:08:41Z</time>
      </trkpt>
      <trkpt lat="44.85773" lon="4.33224">
        <ele>898.7</ele>
        <time>2021-07-02T14:08:43Z</time>
      </trkpt>
      <trkpt lat="44.85769" lon="4.33222">
        <ele>897.11</ele>
        <time>2021-07-02T14:09:21Z</time>
      </trkpt>
      <trkpt lat="44.8577" lon="4.33224">
        <ele>896.76</ele>
        <time>2021-07-02T14:09:23Z</time>
      </trkpt>
      <trkpt lat="44.85771" lon="4.33228">
        <ele>896.4</ele>
        <time>2021-07-02T14:09:25Z</time>
      </trkpt>
      <trkpt lat="44.85772" lon="4.33231">
        <ele>896.05</ele>
        <time>2021-07-02T14:09:27Z</time>
      </trkpt>
      <trkpt lat="44.85773" lon="4.33235">
        <ele>895.71</ele>
        <time>2021-07-02T14:09:29Z</time>
      </trkpt>
      <trkpt lat="44.85775" lon="4.33238">
        <ele>895.38</ele>
        <time>2021-07-02T14:09:31Z</time>
      </trkpt>
      <trkpt lat="44.85777" lon="4.3324">
        <ele>895.05</ele>
        <time>2021-07-02T14:09:33Z</time>
      </trkpt>
      <trkpt lat="44.85779" lon="4.33244">
        <ele>894.72</ele>
        <time>2021-07-02T14:09:35Z</time>
      </trkpt>
      <trkpt lat="44.85779" lon="4.33248">
        <ele>894.39</ele>
        <time>2021-07-02T14:09:37Z</time>
      </trkpt>
      <trkpt lat="44.85782" lon="4.33253">
        <ele>894.07</ele>
        <time>2021-07-02T14:09:39Z</time>
      </trkpt>
      <trkpt lat="44.85783" lon="4.33255">
        <ele>893.91</ele>
        <time>2021-07-02T14:09:40Z</time>
      </trkpt>
      <trkpt lat="44.85782" lon="4.33258">
        <ele>893.43</ele>
        <time>2021-07-02T14:09:43Z</time>
      </trkpt>
      <trkpt lat="44.85783" lon="4.33262">
        <ele>893.12</ele>
        <time>2021-07-02T14:09:45Z</time>
      </trkpt>
      <trkpt lat="44.85785" lon="4.33265">
        <ele>892.81</ele>
        <time>2021-07-02T14:09:47Z</time>
      </trkpt>
      <trkpt lat="44.85786" lon="4.33268">
        <ele>892.51</ele>
        <time>2021-07-02T14:09:49Z</time>
      </trkpt>
      <trkpt lat="44.85787" lon="4.3327">
        <ele>892.07</ele>
        <time>2021-07-02T14:09:52Z</time>
      </trkpt>
      <trkpt lat="44.85789" lon="4.33274">
        <ele>891.78</ele>
        <time>2021-07-02T14:09:54Z</time>
      </trkpt>
      <trkpt lat="44.85791" lon="4.33277">
        <ele>891.5</ele>
        <time>2021-07-02T14:09:56Z</time>
      </trkpt>
      <trkpt lat="44.85792" lon="4.33279">
        <ele>891.23</ele>
        <time>2021-07-02T14:09:58Z</time>
      </trkpt>
      <trkpt lat="44.85794" lon="4.33283">
        <ele>890.96</ele>
        <time>2021-07-02T14:10:00Z</time>
      </trkpt>
      <trkpt lat="44.85796" lon="4.33285">
        <ele>890.69</ele>
        <time>2021-07-02T14:10:02Z</time>
      </trkpt>
      <trkpt lat="44.85797" lon="4.33287">
        <ele>890.43</ele>
        <time>2021-07-02T14:10:04Z</time>
      </trkpt>
      <trkpt lat="44.85797" lon="4.3329">
        <ele>890.18</ele>
        <time>2021-07-02T14:10:06Z</time>
      </trkpt>
      <trkpt lat="44.85798" lon="4.33293">
        <ele>890.05</ele>
        <time>2021-07-02T14:10:07Z</time>
      </trkpt>
      <trkpt lat="44.85796" lon="4.33296">
        <ele>889.8</ele>
        <time>2021-07-02T14:10:09Z</time>
      </trkpt>
      <trkpt lat="44.85796" lon="4.33299">
        <ele>889.56</ele>
        <time>2021-07-02T14:10:11Z</time>
      </trkpt>
      <trkpt lat="44.85796" lon="4.33303">
        <ele>889.32</ele>
        <time>2021-07-02T14:10:13Z</time>
      </trkpt>
      <trkpt lat="44.85796" lon="4.33307">
        <ele>889.09</ele>
        <time>2021-07-02T14:10:15Z</time>
      </trkpt>
      <trkpt lat="44.85797" lon="4.33311">
        <ele>888.85</ele>
        <time>2021-07-02T14:10:17Z</time>
      </trkpt>
      <trkpt lat="44.85798" lon="4.33315">
        <ele>888.62</ele>
        <time>2021-07-02T14:10:19Z</time>
      </trkpt>
      <trkpt lat="44.85799" lon="4.33318">
        <ele>888.39</ele>
        <time>2021-07-02T14:10:21Z</time>
      </trkpt>
      <trkpt lat="44.85801" lon="4.3332">
        <ele>888.16</ele>
        <time>2021-07-02T14:10:23Z</time>
      </trkpt>
      <trkpt lat="44.85801" lon="4.33323">
        <ele>887.94</ele>
        <time>2021-07-02T14:10:25Z</time>
      </trkpt>
      <trkpt lat="44.85802" lon="4.33327">
        <ele>887.61</ele>
        <time>2021-07-02T14:10:28Z</time>
      </trkpt>
      <trkpt lat="44.85803" lon="4.33331">
        <ele>887.38</ele>
        <time>2021-07-02T14:10:30Z</time>
      </trkpt>
      <trkpt lat="44.85803" lon="4.33333">
        <ele>887.27</ele>
        <time>2021-07-02T14:10:31Z</time>
      </trkpt>
      <trkpt lat="44.85803" lon="4.33337">
        <ele>887.05</ele>
        <time>2021-07-02T14:10:33Z</time>
      </trkpt>
      <trkpt lat="44.85803" lon="4.3334">
        <ele>886.83</ele>
        <time>2021-07-02T14:10:35Z</time>
      </trkpt>
      <trkpt lat="44.85804" lon="4.33343">
        <ele>886.72</ele>
        <time>2021-07-02T14:10:36Z</time>
      </trkpt>
      <trkpt lat="44.85805" lon="4.33346">
        <ele>886.5</ele>
        <time>2021-07-02T14:10:38Z</time>
      </trkpt>
      <trkpt lat="44.85806" lon="4.3335">
        <ele>886.28</ele>
        <time>2021-07-02T14:10:40Z</time>
      </trkpt>
      <trkpt lat="44.85807" lon="4.33355">
        <ele>886.07</ele>
        <time>2021-07-02T14:10:42Z</time>
      </trkpt>
      <trkpt lat="44.85808" lon="4.33357">
        <ele>885.96</ele>
        <time>2021-07-02T14:10:43Z</time>
      </trkpt>
      <trkpt lat="44.85808" lon="4.33363">
        <ele>885.75</ele>
        <time>2021-07-02T14:10:45Z</time>
      </trkpt>
      <trkpt lat="44.85808" lon="4.33366">
        <ele>885.54</ele>
        <time>2021-07-02T14:10:47Z</time>
      </trkpt>
      <trkpt lat="44.85808" lon="4.3337">
        <ele>885.34</ele>
        <time>2021-07-02T14:10:49Z</time>
      </trkpt>
      <trkpt lat="44.85809" lon="4.33374">
        <ele>885.13</ele>
        <time>2021-07-02T14:10:51Z</time>
      </trkpt>
      <trkpt lat="44.85809" lon="4.33377">
        <ele>884.93</ele>
        <time>2021-07-02T14:10:53Z</time>
      </trkpt>
      <trkpt lat="44.85808" lon="4.3338">
        <ele>884.83</ele>
        <time>2021-07-02T14:10:54Z</time>
      </trkpt>
      <trkpt lat="44.85808" lon="4.33383">
        <ele>884.63</ele>
        <time>2021-07-02T14:10:56Z</time>
      </trkpt>
      <trkpt lat="44.85808" lon="4.33386">
        <ele>884.43</ele>
        <time>2021-07-02T14:10:58Z</time>
      </trkpt>
      <trkpt lat="44.85808" lon="4.33391">
        <ele>884.23</ele>
        <time>2021-07-02T14:11:00Z</time>
      </trkpt>
      <trkpt lat="44.85808" lon="4.33395">
        <ele>884.03</ele>
        <time>2021-07-02T14:11:01Z</time>
      </trkpt>
      <trkpt lat="44.85807" lon="4.33398">
        <ele>883.93</ele>
        <time>2021-07-02T14:11:02Z</time>
      </trkpt>
      <trkpt lat="44.85807" lon="4.33401">
        <ele>883.74</ele>
        <time>2021-07-02T14:11:04Z</time>
      </trkpt>
      <trkpt lat="44.85807" lon="4.33406">
        <ele>883.45</ele>
        <time>2021-07-02T14:11:07Z</time>
      </trkpt>
      <trkpt lat="44.85808" lon="4.33409">
        <ele>883.27</ele>
        <time>2021-07-02T14:11:09Z</time>
      </trkpt>
      <trkpt lat="44.85807" lon="4.33413">
        <ele>883.09</ele>
        <time>2021-07-02T14:11:11Z</time>
      </trkpt>
      <trkpt lat="44.85807" lon="4.33416">
        <ele>882.92</ele>
        <time>2021-07-02T14:11:13Z</time>
      </trkpt>
      <trkpt lat="44.85808" lon="4.33419">
        <ele>882.66</ele>
        <time>2021-07-02T14:11:16Z</time>
      </trkpt>
      <trkpt lat="44.85809" lon="4.33423">
        <ele>882.42</ele>
        <time>2021-07-02T14:11:19Z</time>
      </trkpt>
      <trkpt lat="44.85811" lon="4.33427">
        <ele>882.25</ele>
        <time>2021-07-02T14:11:21Z</time>
      </trkpt>
      <trkpt lat="44.85812" lon="4.33429">
        <ele>882.17</ele>
        <time>2021-07-02T14:11:22Z</time>
      </trkpt>
      <trkpt lat="44.85814" lon="4.33431">
        <ele>882.09</ele>
        <time>2021-07-02T14:11:23Z</time>
      </trkpt>
      <trkpt lat="44.85816" lon="4.33433">
        <ele>882.01</ele>
        <time>2021-07-02T14:11:24Z</time>
      </trkpt>
      <trkpt lat="44.85818" lon="4.33435">
        <ele>881.93</ele>
        <time>2021-07-02T14:11:25Z</time>
      </trkpt>
      <trkpt lat="44.85819" lon="4.33438">
        <ele>881.78</ele>
        <time>2021-07-02T14:11:27Z</time>
      </trkpt>
      <trkpt lat="44.85819" lon="4.33441">
        <ele>881.7</ele>
        <time>2021-07-02T14:11:28Z</time>
      </trkpt>
      <trkpt lat="44.85817" lon="4.33445">
        <ele>881.48</ele>
        <time>2021-07-02T14:11:31Z</time>
      </trkpt>
      <trkpt lat="44.85817" lon="4.33448">
        <ele>881.34</ele>
        <time>2021-07-02T14:11:33Z</time>
      </trkpt>
      <trkpt lat="44.85818" lon="4.33452">
        <ele>881.27</ele>
        <time>2021-07-02T14:11:34Z</time>
      </trkpt>
      <trkpt lat="44.85819" lon="4.33458">
        <ele>880.72</ele>
        <time>2021-07-02T14:11:42Z</time>
      </trkpt>
      <trkpt lat="44.85819" lon="4.33461">
        <ele>880.66</ele>
        <time>2021-07-02T14:11:43Z</time>
      </trkpt>
      <trkpt lat="44.8582" lon="4.33465">
        <ele>880.59</ele>
        <time>2021-07-02T14:11:44Z</time>
      </trkpt>
      <trkpt lat="44.85821" lon="4.33469">
        <ele>880.53</ele>
        <time>2021-07-02T14:11:45Z</time>
      </trkpt>
      <trkpt lat="44.85821" lon="4.33471">
        <ele>880.4</ele>
        <time>2021-07-02T14:11:47Z</time>
      </trkpt>
      <trkpt lat="44.85822" lon="4.33474">
        <ele>880.27</ele>
        <time>2021-07-02T14:11:49Z</time>
      </trkpt>
      <trkpt lat="44.85822" lon="4.33477">
        <ele>880.15</ele>
        <time>2021-07-02T14:11:51Z</time>
      </trkpt>
      <trkpt lat="44.85824" lon="4.3348">
        <ele>880.09</ele>
        <time>2021-07-02T14:11:52Z</time>
      </trkpt>
      <trkpt lat="44.85824" lon="4.33484">
        <ele>879.97</ele>
        <time>2021-07-02T14:11:54Z</time>
      </trkpt>
      <trkpt lat="44.85822" lon="4.33487">
        <ele>879.73</ele>
        <time>2021-07-02T14:11:58Z</time>
      </trkpt>
      <trkpt lat="44.85823" lon="4.3349">
        <ele>879.66</ele>
        <time>2021-07-02T14:12:00Z</time>
      </trkpt>
      <trkpt lat="44.85821" lon="4.33493">
        <ele>879.65</ele>
        <time>2021-07-02T14:12:02Z</time>
      </trkpt>
      <trkpt lat="44.85822" lon="4.33497">
        <ele>879.53</ele>
        <time>2021-07-02T14:12:05Z</time>
      </trkpt>
      <trkpt lat="44.85822" lon="4.33501">
        <ele>879.41</ele>
        <time>2021-07-02T14:12:07Z</time>
      </trkpt>
      <trkpt lat="44.85824" lon="4.33504">
        <ele>879.23</ele>
        <time>2021-07-02T14:12:10Z</time>
      </trkpt>
      <trkpt lat="44.85824" lon="4.33507">
        <ele>879.18</ele>
        <time>2021-07-02T14:12:11Z</time>
      </trkpt>
      <trkpt lat="44.85824" lon="4.3351">
        <ele>879.12</ele>
        <time>2021-07-02T14:12:12Z</time>
      </trkpt>
      <trkpt lat="44.85825" lon="4.33514">
        <ele>879.01</ele>
        <time>2021-07-02T14:12:14Z</time>
      </trkpt>
      <trkpt lat="44.85826" lon="4.3352">
        <ele>878.84</ele>
        <time>2021-07-02T14:12:17Z</time>
      </trkpt>
      <trkpt lat="44.85827" lon="4.33524">
        <ele>878.67</ele>
        <time>2021-07-02T14:12:20Z</time>
      </trkpt>
      <trkpt lat="44.85828" lon="4.33528">
        <ele>878.56</ele>
        <time>2021-07-02T14:12:22Z</time>
      </trkpt>
      <trkpt lat="44.85829" lon="4.33532">
        <ele>878.44</ele>
        <time>2021-07-02T14:12:24Z</time>
      </trkpt>
      <trkpt lat="44.85828" lon="4.33536">
        <ele>878.31</ele>
        <time>2021-07-02T14:12:26Z</time>
      </trkpt>
      <trkpt lat="44.85829" lon="4.33538">
        <ele>878.19</ele>
        <time>2021-07-02T14:12:28Z</time>
      </trkpt>
      <trkpt lat="44.8583" lon="4.33541">
        <ele>878.06</ele>
        <time>2021-07-02T14:12:30Z</time>
      </trkpt>
      <trkpt lat="44.8583" lon="4.33546">
        <ele>877.79</ele>
        <time>2021-07-02T14:12:34Z</time>
      </trkpt>
      <trkpt lat="44.85829" lon="4.3355">
        <ele>877.59</ele>
        <time>2021-07-02T14:12:37Z</time>
      </trkpt>
      <trkpt lat="44.85828" lon="4.33554">
        <ele>877.46</ele>
        <time>2021-07-02T14:12:39Z</time>
      </trkpt>
      <trkpt lat="44.85828" lon="4.33558">
        <ele>877.32</ele>
        <time>2021-07-02T14:12:41Z</time>
      </trkpt>
      <trkpt lat="44.85828" lon="4.33561">
        <ele>877.2</ele>
        <time>2021-07-02T14:12:43Z</time>
      </trkpt>
      <trkpt lat="44.85828" lon="4.33565">
        <ele>877</ele>
        <time>2021-07-02T14:12:46Z</time>
      </trkpt>
      <trkpt lat="44.85828" lon="4.33569">
        <ele>876.87</ele>
        <time>2021-07-02T14:12:48Z</time>
      </trkpt>
      <trkpt lat="44.85828" lon="4.33573">
        <ele>876.74</ele>
        <time>2021-07-02T14:12:50Z</time>
      </trkpt>
      <trkpt lat="44.85828" lon="4.33575">
        <ele>876.61</ele>
        <time>2021-07-02T14:12:52Z</time>
      </trkpt>
      <trkpt lat="44.85828" lon="4.3358">
        <ele>876.47</ele>
        <time>2021-07-02T14:12:54Z</time>
      </trkpt>
      <trkpt lat="44.85828" lon="4.33583">
        <ele>876.39</ele>
        <time>2021-07-02T14:12:55Z</time>
      </trkpt>
      <trkpt lat="44.85828" lon="4.33587">
        <ele>876.24</ele>
        <time>2021-07-02T14:12:57Z</time>
      </trkpt>
      <trkpt lat="44.85828" lon="4.3359">
        <ele>876.16</ele>
        <time>2021-07-02T14:12:58Z</time>
      </trkpt>
      <trkpt lat="44.85828" lon="4.33594">
        <ele>876</ele>
        <time>2021-07-02T14:13:00Z</time>
      </trkpt>
      <trkpt lat="44.85827" lon="4.33596">
        <ele>875.92</ele>
        <time>2021-07-02T14:13:01Z</time>
      </trkpt>
      <trkpt lat="44.85827" lon="4.33601">
        <ele>875.58</ele>
        <time>2021-07-02T14:13:05Z</time>
      </trkpt>
      <trkpt lat="44.85828" lon="4.33603">
        <ele>875.31</ele>
        <time>2021-07-02T14:13:08Z</time>
      </trkpt>
      <trkpt lat="44.85827" lon="4.33607">
        <ele>875.03</ele>
        <time>2021-07-02T14:13:11Z</time>
      </trkpt>
      <trkpt lat="44.85828" lon="4.3361">
        <ele>874.84</ele>
        <time>2021-07-02T14:13:13Z</time>
      </trkpt>
      <trkpt lat="44.85827" lon="4.33614">
        <ele>874.55</ele>
        <time>2021-07-02T14:13:16Z</time>
      </trkpt>
      <trkpt lat="44.85827" lon="4.33618">
        <ele>874.35</ele>
        <time>2021-07-02T14:13:18Z</time>
      </trkpt>
      <trkpt lat="44.85827" lon="4.33622">
        <ele>874.16</ele>
        <time>2021-07-02T14:13:20Z</time>
      </trkpt>
      <trkpt lat="44.85828" lon="4.33625">
        <ele>873.95</ele>
        <time>2021-07-02T14:13:22Z</time>
      </trkpt>
      <trkpt lat="44.85828" lon="4.3363">
        <ele>873.32</ele>
        <time>2021-07-02T14:13:28Z</time>
      </trkpt>
      <trkpt lat="44.8583" lon="4.33633">
        <ele>873.1</ele>
        <time>2021-07-02T14:13:30Z</time>
      </trkpt>
      <trkpt lat="44.85831" lon="4.33637">
        <ele>872.88</ele>
        <time>2021-07-02T14:13:32Z</time>
      </trkpt>
      <trkpt lat="44.85832" lon="4.3364">
        <ele>872.66</ele>
        <time>2021-07-02T14:13:34Z</time>
      </trkpt>
      <trkpt lat="44.85833" lon="4.33642">
        <ele>872.43</ele>
        <time>2021-07-02T14:13:36Z</time>
      </trkpt>
      <trkpt lat="44.85834" lon="4.33645">
        <ele>872.21</ele>
        <time>2021-07-02T14:13:38Z</time>
      </trkpt>
      <trkpt lat="44.85838" lon="4.33649">
        <ele>871.76</ele>
        <time>2021-07-02T14:13:42Z</time>
      </trkpt>
      <trkpt lat="44.85841" lon="4.33652">
        <ele>871.43</ele>
        <time>2021-07-02T14:13:45Z</time>
      </trkpt>
      <trkpt lat="44.85843" lon="4.33653">
        <ele>871.09</ele>
        <time>2021-07-02T14:13:48Z</time>
      </trkpt>
      <trkpt lat="44.85846" lon="4.33653">
        <ele>870.76</ele>
        <time>2021-07-02T14:13:51Z</time>
      </trkpt>
      <trkpt lat="44.8585" lon="4.33652">
        <ele>870.22</ele>
        <time>2021-07-02T14:13:56Z</time>
      </trkpt>
      <trkpt lat="44.85852" lon="4.33652">
        <ele>869.9</ele>
        <time>2021-07-02T14:13:59Z</time>
      </trkpt>
      <trkpt lat="44.85853" lon="4.33655">
        <ele>869.38</ele>
        <time>2021-07-02T14:14:05Z</time>
      </trkpt>
      <trkpt lat="44.85853" lon="4.33658">
        <ele>869.27</ele>
        <time>2021-07-02T14:14:06Z</time>
      </trkpt>
      <trkpt lat="44.85853" lon="4.33661">
        <ele>869.07</ele>
        <time>2021-07-02T14:14:08Z</time>
      </trkpt>
      <trkpt lat="44.85853" lon="4.33665">
        <ele>868.76</ele>
        <time>2021-07-02T14:14:11Z</time>
      </trkpt>
      <trkpt lat="44.85851" lon="4.33664">
        <ele>868.3</ele>
        <time>2021-07-02T14:14:18Z</time>
      </trkpt>
      <trkpt lat="44.85848" lon="4.33666">
        <ele>868.08</ele>
        <time>2021-07-02T14:14:20Z</time>
      </trkpt>
      <trkpt lat="44.85845" lon="4.33669">
        <ele>867.85</ele>
        <time>2021-07-02T14:14:22Z</time>
      </trkpt>
      <trkpt lat="44.85844" lon="4.33671">
        <ele>867.74</ele>
        <time>2021-07-02T14:14:23Z</time>
      </trkpt>
      <trkpt lat="44.85842" lon="4.33673">
        <ele>867.5</ele>
        <time>2021-07-02T14:14:25Z</time>
      </trkpt>
      <trkpt lat="44.8584" lon="4.33675">
        <ele>867.26</ele>
        <time>2021-07-02T14:14:27Z</time>
      </trkpt>
      <trkpt lat="44.85839" lon="4.33678">
        <ele>867.01</ele>
        <time>2021-07-02T14:14:29Z</time>
      </trkpt>
      <trkpt lat="44.85838" lon="4.33681">
        <ele>866.64</ele>
        <time>2021-07-02T14:14:32Z</time>
      </trkpt>
      <trkpt lat="44.85835" lon="4.33685">
        <ele>866.39</ele>
        <time>2021-07-02T14:14:34Z</time>
      </trkpt>
      <trkpt lat="44.85834" lon="4.33689">
        <ele>866.14</ele>
        <time>2021-07-02T14:14:36Z</time>
      </trkpt>
      <trkpt lat="44.85836" lon="4.33692">
        <ele>865.89</ele>
        <time>2021-07-02T14:14:38Z</time>
      </trkpt>
      <trkpt lat="44.85838" lon="4.33696">
        <ele>865.63</ele>
        <time>2021-07-02T14:14:40Z</time>
      </trkpt>
      <trkpt lat="44.85837" lon="4.33699">
        <ele>865.39</ele>
        <time>2021-07-02T14:14:42Z</time>
      </trkpt>
      <trkpt lat="44.85835" lon="4.33703">
        <ele>865.14</ele>
        <time>2021-07-02T14:14:44Z</time>
      </trkpt>
      <trkpt lat="44.85834" lon="4.33706">
        <ele>864.91</ele>
        <time>2021-07-02T14:14:46Z</time>
      </trkpt>
      <trkpt lat="44.85833" lon="4.3371">
        <ele>864.68</ele>
        <time>2021-07-02T14:14:48Z</time>
      </trkpt>
      <trkpt lat="44.85832" lon="4.33713">
        <ele>864.45</ele>
        <time>2021-07-02T14:14:50Z</time>
      </trkpt>
      <trkpt lat="44.85831" lon="4.33716">
        <ele>864.1</ele>
        <time>2021-07-02T14:14:53Z</time>
      </trkpt>
      <trkpt lat="44.85831" lon="4.3372">
        <ele>863.75</ele>
        <time>2021-07-02T14:14:56Z</time>
      </trkpt>
      <trkpt lat="44.85829" lon="4.33721">
        <ele>863.62</ele>
        <time>2021-07-02T14:15:06Z</time>
      </trkpt>
      <trkpt lat="44.85828" lon="4.33725">
        <ele>862.81</ele>
        <time>2021-07-02T14:15:19Z</time>
      </trkpt>
      <trkpt lat="44.85827" lon="4.33729">
        <ele>862.54</ele>
        <time>2021-07-02T14:15:21Z</time>
      </trkpt>
      <trkpt lat="44.85827" lon="4.33732">
        <ele>862.28</ele>
        <time>2021-07-02T14:15:23Z</time>
      </trkpt>
      <trkpt lat="44.85827" lon="4.33737">
        <ele>861.77</ele>
        <time>2021-07-02T14:15:27Z</time>
      </trkpt>
      <trkpt lat="44.85827" lon="4.3374">
        <ele>861.53</ele>
        <time>2021-07-02T14:15:29Z</time>
      </trkpt>
      <trkpt lat="44.85828" lon="4.33743">
        <ele>861.17</ele>
        <time>2021-07-02T14:15:32Z</time>
      </trkpt>
      <trkpt lat="44.85827" lon="4.33746">
        <ele>860.94</ele>
        <time>2021-07-02T14:15:34Z</time>
      </trkpt>
      <trkpt lat="44.85827" lon="4.33749">
        <ele>860.71</ele>
        <time>2021-07-02T14:15:36Z</time>
      </trkpt>
      <trkpt lat="44.85828" lon="4.33752">
        <ele>860.38</ele>
        <time>2021-07-02T14:15:39Z</time>
      </trkpt>
      <trkpt lat="44.85829" lon="4.33755">
        <ele>860.17</ele>
        <time>2021-07-02T14:15:41Z</time>
      </trkpt>
      <trkpt lat="44.85828" lon="4.33759">
        <ele>859.76</ele>
        <time>2021-07-02T14:15:45Z</time>
      </trkpt>
      <trkpt lat="44.85828" lon="4.33762">
        <ele>859.56</ele>
        <time>2021-07-02T14:15:47Z</time>
      </trkpt>
      <trkpt lat="44.85827" lon="4.33765">
        <ele>859.26</ele>
        <time>2021-07-02T14:15:50Z</time>
      </trkpt>
      <trkpt lat="44.85826" lon="4.33769">
        <ele>858.97</ele>
        <time>2021-07-02T14:15:53Z</time>
      </trkpt>
      <trkpt lat="44.85825" lon="4.33771">
        <ele>858.78</ele>
        <time>2021-07-02T14:15:55Z</time>
      </trkpt>
      <trkpt lat="44.85825" lon="4.33775">
        <ele>858.59</ele>
        <time>2021-07-02T14:15:57Z</time>
      </trkpt>
      <trkpt lat="44.85825" lon="4.33779">
        <ele>858.41</ele>
        <time>2021-07-02T14:15:59Z</time>
      </trkpt>
      <trkpt lat="44.85824" lon="4.33782">
        <ele>858.23</ele>
        <time>2021-07-02T14:16:01Z</time>
      </trkpt>
      <trkpt lat="44.85824" lon="4.33786">
        <ele>858.05</ele>
        <time>2021-07-02T14:16:03Z</time>
      </trkpt>
      <trkpt lat="44.85824" lon="4.33789">
        <ele>857.87</ele>
        <time>2021-07-02T14:16:05Z</time>
      </trkpt>
      <trkpt lat="44.85824" lon="4.33793">
        <ele>857.7</ele>
        <time>2021-07-02T14:16:07Z</time>
      </trkpt>
      <trkpt lat="44.85823" lon="4.33796">
        <ele>857.53</ele>
        <time>2021-07-02T14:16:09Z</time>
      </trkpt>
      <trkpt lat="44.85823" lon="4.33801">
        <ele>857.21</ele>
        <time>2021-07-02T14:16:13Z</time>
      </trkpt>
      <trkpt lat="44.85823" lon="4.33804">
        <ele>857.05</ele>
        <time>2021-07-02T14:16:15Z</time>
      </trkpt>
      <trkpt lat="44.85823" lon="4.33808">
        <ele>856.89</ele>
        <time>2021-07-02T14:16:17Z</time>
      </trkpt>
      <trkpt lat="44.85823" lon="4.33812">
        <ele>856.74</ele>
        <time>2021-07-02T14:16:19Z</time>
      </trkpt>
      <trkpt lat="44.85822" lon="4.33816">
        <ele>856.59</ele>
        <time>2021-07-02T14:16:21Z</time>
      </trkpt>
      <trkpt lat="44.85821" lon="4.33821">
        <ele>856.44</ele>
        <time>2021-07-02T14:16:23Z</time>
      </trkpt>
      <trkpt lat="44.8582" lon="4.33825">
        <ele>856.29</ele>
        <time>2021-07-02T14:16:25Z</time>
      </trkpt>
      <trkpt lat="44.8582" lon="4.3383">
        <ele>856.07</ele>
        <time>2021-07-02T14:16:28Z</time>
      </trkpt>
      <trkpt lat="44.85819" lon="4.33833">
        <ele>855.92</ele>
        <time>2021-07-02T14:16:30Z</time>
      </trkpt>
      <trkpt lat="44.85819" lon="4.33836">
        <ele>855.79</ele>
        <time>2021-07-02T14:16:32Z</time>
      </trkpt>
      <trkpt lat="44.8582" lon="4.33839">
        <ele>855.65</ele>
        <time>2021-07-02T14:16:34Z</time>
      </trkpt>
      <trkpt lat="44.8582" lon="4.33842">
        <ele>855.51</ele>
        <time>2021-07-02T14:16:36Z</time>
      </trkpt>
      <trkpt lat="44.85821" lon="4.33847">
        <ele>855.25</ele>
        <time>2021-07-02T14:16:40Z</time>
      </trkpt>
      <trkpt lat="44.85821" lon="4.33851">
        <ele>854.98</ele>
        <time>2021-07-02T14:16:44Z</time>
      </trkpt>
      <trkpt lat="44.85822" lon="4.33855">
        <ele>854.78</ele>
        <time>2021-07-02T14:16:47Z</time>
      </trkpt>
      <trkpt lat="44.85824" lon="4.33859">
        <ele>854.59</ele>
        <time>2021-07-02T14:16:50Z</time>
      </trkpt>
      <trkpt lat="44.85825" lon="4.33865">
        <ele>854.4</ele>
        <time>2021-07-02T14:16:53Z</time>
      </trkpt>
      <trkpt lat="44.85826" lon="4.33868">
        <ele>854.27</ele>
        <time>2021-07-02T14:16:55Z</time>
      </trkpt>
      <trkpt lat="44.85826" lon="4.33872">
        <ele>854.15</ele>
        <time>2021-07-02T14:16:57Z</time>
      </trkpt>
      <trkpt lat="44.85827" lon="4.33877">
        <ele>854.02</ele>
        <time>2021-07-02T14:16:59Z</time>
      </trkpt>
      <trkpt lat="44.85826" lon="4.33881">
        <ele>853.84</ele>
        <time>2021-07-02T14:17:02Z</time>
      </trkpt>
      <trkpt lat="44.85826" lon="4.33885">
        <ele>853.72</ele>
        <time>2021-07-02T14:17:04Z</time>
      </trkpt>
      <trkpt lat="44.85825" lon="4.33888">
        <ele>853.6</ele>
        <time>2021-07-02T14:17:06Z</time>
      </trkpt>
      <trkpt lat="44.85826" lon="4.33892">
        <ele>853.47</ele>
        <time>2021-07-02T14:17:08Z</time>
      </trkpt>
      <trkpt lat="44.85826" lon="4.33895">
        <ele>853.34</ele>
        <time>2021-07-02T14:17:10Z</time>
      </trkpt>
      <trkpt lat="44.85826" lon="4.33899">
        <ele>853.01</ele>
        <time>2021-07-02T14:17:15Z</time>
      </trkpt>
      <trkpt lat="44.85827" lon="4.33902">
        <ele>852.87</ele>
        <time>2021-07-02T14:17:17Z</time>
      </trkpt>
      <trkpt lat="44.85828" lon="4.33904">
        <ele>852.73</ele>
        <time>2021-07-02T14:17:19Z</time>
      </trkpt>
      <trkpt lat="44.85828" lon="4.33907">
        <ele>852.59</ele>
        <time>2021-07-02T14:17:21Z</time>
      </trkpt>
      <trkpt lat="44.85829" lon="4.3391">
        <ele>852.45</ele>
        <time>2021-07-02T14:17:23Z</time>
      </trkpt>
      <trkpt lat="44.8583" lon="4.33914">
        <ele>852.24</ele>
        <time>2021-07-02T14:17:26Z</time>
      </trkpt>
      <trkpt lat="44.85831" lon="4.33917">
        <ele>852.1</ele>
        <time>2021-07-02T14:17:28Z</time>
      </trkpt>
      <trkpt lat="44.85832" lon="4.3392">
        <ele>851.95</ele>
        <time>2021-07-02T14:17:30Z</time>
      </trkpt>
      <trkpt lat="44.85832" lon="4.33923">
        <ele>851.81</ele>
        <time>2021-07-02T14:17:32Z</time>
      </trkpt>
      <trkpt lat="44.85833" lon="4.33925">
        <ele>851.67</ele>
        <time>2021-07-02T14:17:34Z</time>
      </trkpt>
      <trkpt lat="44.85834" lon="4.3393">
        <ele>851.3</ele>
        <time>2021-07-02T14:17:39Z</time>
      </trkpt>
      <trkpt lat="44.85835" lon="4.33933">
        <ele>851.15</ele>
        <time>2021-07-02T14:17:41Z</time>
      </trkpt>
      <trkpt lat="44.85835" lon="4.33936">
        <ele>851</ele>
        <time>2021-07-02T14:17:43Z</time>
      </trkpt>
      <trkpt lat="44.85836" lon="4.3394">
        <ele>850.85</ele>
        <time>2021-07-02T14:17:45Z</time>
      </trkpt>
      <trkpt lat="44.85837" lon="4.33943">
        <ele>850.7</ele>
        <time>2021-07-02T14:17:47Z</time>
      </trkpt>
      <trkpt lat="44.85838" lon="4.33945">
        <ele>850.54</ele>
        <time>2021-07-02T14:17:49Z</time>
      </trkpt>
      <trkpt lat="44.8584" lon="4.33949">
        <ele>850.24</ele>
        <time>2021-07-02T14:17:53Z</time>
      </trkpt>
      <trkpt lat="44.85841" lon="4.33951">
        <ele>850.08</ele>
        <time>2021-07-02T14:17:55Z</time>
      </trkpt>
      <trkpt lat="44.85844" lon="4.33954">
        <ele>849.94</ele>
        <time>2021-07-02T14:17:57Z</time>
      </trkpt>
      <trkpt lat="44.85845" lon="4.33956">
        <ele>849.79</ele>
        <time>2021-07-02T14:17:59Z</time>
      </trkpt>
      <trkpt lat="44.85846" lon="4.33959">
        <ele>849.64</ele>
        <time>2021-07-02T14:18:01Z</time>
      </trkpt>
      <trkpt lat="44.85846" lon="4.33962">
        <ele>849.34</ele>
        <time>2021-07-02T14:18:05Z</time>
      </trkpt>
      <trkpt lat="44.85848" lon="4.33964">
        <ele>849.12</ele>
        <time>2021-07-02T14:18:08Z</time>
      </trkpt>
      <trkpt lat="44.8585" lon="4.33967">
        <ele>848.9</ele>
        <time>2021-07-02T14:18:11Z</time>
      </trkpt>
      <trkpt lat="44.85852" lon="4.33969">
        <ele>848.75</ele>
        <time>2021-07-02T14:18:13Z</time>
      </trkpt>
      <trkpt lat="44.85854" lon="4.33969">
        <ele>848.6</ele>
        <time>2021-07-02T14:18:16Z</time>
      </trkpt>
      <trkpt lat="44.85855" lon="4.33972">
        <ele>848.36</ele>
        <time>2021-07-02T14:18:20Z</time>
      </trkpt>
      <trkpt lat="44.85857" lon="4.33975">
        <ele>848.21</ele>
        <time>2021-07-02T14:18:22Z</time>
      </trkpt>
      <trkpt lat="44.85859" lon="4.33978">
        <ele>848.05</ele>
        <time>2021-07-02T14:18:24Z</time>
      </trkpt>
      <trkpt lat="44.85861" lon="4.3398">
        <ele>847.9</ele>
        <time>2021-07-02T14:18:26Z</time>
      </trkpt>
      <trkpt lat="44.85863" lon="4.33981">
        <ele>847.68</ele>
        <time>2021-07-02T14:18:29Z</time>
      </trkpt>
      <trkpt lat="44.85866" lon="4.33982">
        <ele>847.4</ele>
        <time>2021-07-02T14:18:33Z</time>
      </trkpt>
      <trkpt lat="44.85869" lon="4.33983">
        <ele>847.26</ele>
        <time>2021-07-02T14:18:35Z</time>
      </trkpt>
      <trkpt lat="44.85871" lon="4.33985">
        <ele>847.12</ele>
        <time>2021-07-02T14:18:37Z</time>
      </trkpt>
      <trkpt lat="44.85873" lon="4.33986">
        <ele>847.06</ele>
        <time>2021-07-02T14:18:38Z</time>
      </trkpt>
      <trkpt lat="44.85874" lon="4.33987">
        <ele>846.99</ele>
        <time>2021-07-02T14:18:39Z</time>
      </trkpt>
      <trkpt lat="44.85876" lon="4.33987">
        <ele>846.92</ele>
        <time>2021-07-02T14:18:40Z</time>
      </trkpt>
      <trkpt lat="44.85879" lon="4.33989">
        <ele>846.79</ele>
        <time>2021-07-02T14:18:42Z</time>
      </trkpt>
      <trkpt lat="44.85882" lon="4.3399">
        <ele>846.65</ele>
        <time>2021-07-02T14:18:44Z</time>
      </trkpt>
      <trkpt lat="44.85884" lon="4.33993">
        <ele>846.52</ele>
        <time>2021-07-02T14:18:46Z</time>
      </trkpt>
      <trkpt lat="44.85887" lon="4.33995">
        <ele>846.39</ele>
        <time>2021-07-02T14:18:48Z</time>
      </trkpt>
      <trkpt lat="44.85889" lon="4.33997">
        <ele>846.26</ele>
        <time>2021-07-02T14:18:50Z</time>
      </trkpt>
      <trkpt lat="44.85891" lon="4.33998">
        <ele>846.12</ele>
        <time>2021-07-02T14:18:52Z</time>
      </trkpt>
      <trkpt lat="44.85894" lon="4.34">
        <ele>845.99</ele>
        <time>2021-07-02T14:18:54Z</time>
      </trkpt>
      <trkpt lat="44.85897" lon="4.34002">
        <ele>845.8</ele>
        <time>2021-07-02T14:18:57Z</time>
      </trkpt>
      <trkpt lat="44.85899" lon="4.34003">
        <ele>845.54</ele>
        <time>2021-07-02T14:19:01Z</time>
      </trkpt>
      <trkpt lat="44.85901" lon="4.34007">
        <ele>845.34</ele>
        <time>2021-07-02T14:19:04Z</time>
      </trkpt>
      <trkpt lat="44.85903" lon="4.34008">
        <ele>845.21</ele>
        <time>2021-07-02T14:19:06Z</time>
      </trkpt>
      <trkpt lat="44.85903" lon="4.34012">
        <ele>845.08</ele>
        <time>2021-07-02T14:19:08Z</time>
      </trkpt>
      <trkpt lat="44.85904" lon="4.34015">
        <ele>844.95</ele>
        <time>2021-07-02T14:19:10Z</time>
      </trkpt>
      <trkpt lat="44.85906" lon="4.34019">
        <ele>844.82</ele>
        <time>2021-07-02T14:19:12Z</time>
      </trkpt>
      <trkpt lat="44.85907" lon="4.34022">
        <ele>844.69</ele>
        <time>2021-07-02T14:19:14Z</time>
      </trkpt>
      <trkpt lat="44.85907" lon="4.34027">
        <ele>844.56</ele>
        <time>2021-07-02T14:19:16Z</time>
      </trkpt>
      <trkpt lat="44.85907" lon="4.3403">
        <ele>844.43</ele>
        <time>2021-07-02T14:19:18Z</time>
      </trkpt>
      <trkpt lat="44.85907" lon="4.34034">
        <ele>844.17</ele>
        <time>2021-07-02T14:19:22Z</time>
      </trkpt>
      <trkpt lat="44.85906" lon="4.34037">
        <ele>843.96</ele>
        <time>2021-07-02T14:19:25Z</time>
      </trkpt>
      <trkpt lat="44.85904" lon="4.34041">
        <ele>843.75</ele>
        <time>2021-07-02T14:19:28Z</time>
      </trkpt>
      <trkpt lat="44.85903" lon="4.34045">
        <ele>843.54</ele>
        <time>2021-07-02T14:19:31Z</time>
      </trkpt>
      <trkpt lat="44.85901" lon="4.34048">
        <ele>843.4</ele>
        <time>2021-07-02T14:19:33Z</time>
      </trkpt>
      <trkpt lat="44.859" lon="4.34051">
        <ele>843.26</ele>
        <time>2021-07-02T14:19:35Z</time>
      </trkpt>
      <trkpt lat="44.85897" lon="4.34054">
        <ele>843.13</ele>
        <time>2021-07-02T14:19:37Z</time>
      </trkpt>
      <trkpt lat="44.85896" lon="4.34057">
        <ele>843</ele>
        <time>2021-07-02T14:19:39Z</time>
      </trkpt>
      <trkpt lat="44.85894" lon="4.34061">
        <ele>842.86</ele>
        <time>2021-07-02T14:19:41Z</time>
      </trkpt>
      <trkpt lat="44.85894" lon="4.34064">
        <ele>842.73</ele>
        <time>2021-07-02T14:19:43Z</time>
      </trkpt>
      <trkpt lat="44.85892" lon="4.34068">
        <ele>842.53</ele>
        <time>2021-07-02T14:19:46Z</time>
      </trkpt>
      <trkpt lat="44.85891" lon="4.34072">
        <ele>842.32</ele>
        <time>2021-07-02T14:19:49Z</time>
      </trkpt>
      <trkpt lat="44.85891" lon="4.34077">
        <ele>842.12</ele>
        <time>2021-07-02T14:19:52Z</time>
      </trkpt>
      <trkpt lat="44.85891" lon="4.3408">
        <ele>841.92</ele>
        <time>2021-07-02T14:19:55Z</time>
      </trkpt>
      <trkpt lat="44.85891" lon="4.34084">
        <ele>841.72</ele>
        <time>2021-07-02T14:19:58Z</time>
      </trkpt>
      <trkpt lat="44.85891" lon="4.34087">
        <ele>841.59</ele>
        <time>2021-07-02T14:20:00Z</time>
      </trkpt>
      <trkpt lat="44.85891" lon="4.3409">
        <ele>841.46</ele>
        <time>2021-07-02T14:20:02Z</time>
      </trkpt>
      <trkpt lat="44.85891" lon="4.34094">
        <ele>841.33</ele>
        <time>2021-07-02T14:20:04Z</time>
      </trkpt>
      <trkpt lat="44.85891" lon="4.34097">
        <ele>841.2</ele>
        <time>2021-07-02T14:20:06Z</time>
      </trkpt>
      <trkpt lat="44.85891" lon="4.34099">
        <ele>841.07</ele>
        <time>2021-07-02T14:20:08Z</time>
      </trkpt>
      <trkpt lat="44.85893" lon="4.34102">
        <ele>840.95</ele>
        <time>2021-07-02T14:20:10Z</time>
      </trkpt>
      <trkpt lat="44.85894" lon="4.34104">
        <ele>840.89</ele>
        <time>2021-07-02T14:20:11Z</time>
      </trkpt>
      <trkpt lat="44.85896" lon="4.34106">
        <ele>840.77</ele>
        <time>2021-07-02T14:20:13Z</time>
      </trkpt>
      <trkpt lat="44.85898" lon="4.34108">
        <ele>840.65</ele>
        <time>2021-07-02T14:20:15Z</time>
      </trkpt>
      <trkpt lat="44.85898" lon="4.34113">
        <ele>840.42</ele>
        <time>2021-07-02T14:20:19Z</time>
      </trkpt>
      <trkpt lat="44.859" lon="4.34117">
        <ele>840.19</ele>
        <time>2021-07-02T14:20:23Z</time>
      </trkpt>
      <trkpt lat="44.859" lon="4.3412">
        <ele>840.07</ele>
        <time>2021-07-02T14:20:25Z</time>
      </trkpt>
      <trkpt lat="44.859" lon="4.34123">
        <ele>839.96</ele>
        <time>2021-07-02T14:20:28Z</time>
      </trkpt>
      <trkpt lat="44.85898" lon="4.34125">
        <ele>839.67</ele>
        <time>2021-07-02T14:20:35Z</time>
      </trkpt>
      <trkpt lat="44.85897" lon="4.34127">
        <ele>839.47</ele>
        <time>2021-07-02T14:20:47Z</time>
      </trkpt>
      <trkpt lat="44.85898" lon="4.34131">
        <ele>839.27</ele>
        <time>2021-07-02T14:20:51Z</time>
      </trkpt>
      <trkpt lat="44.85898" lon="4.34134">
        <ele>839.16</ele>
        <time>2021-07-02T14:20:53Z</time>
      </trkpt>
      <trkpt lat="44.85899" lon="4.34138">
        <ele>839.07</ele>
        <time>2021-07-02T14:20:55Z</time>
      </trkpt>
      <trkpt lat="44.85899" lon="4.34141">
        <ele>838.97</ele>
        <time>2021-07-02T14:20:57Z</time>
      </trkpt>
      <trkpt lat="44.85898" lon="4.34144">
        <ele>838.87</ele>
        <time>2021-07-02T14:20:59Z</time>
      </trkpt>
      <trkpt lat="44.85899" lon="4.34147">
        <ele>838.72</ele>
        <time>2021-07-02T14:21:02Z</time>
      </trkpt>
      <trkpt lat="44.859" lon="4.34151">
        <ele>838.57</ele>
        <time>2021-07-02T14:21:05Z</time>
      </trkpt>
      <trkpt lat="44.859" lon="4.34154">
        <ele>838.46</ele>
        <time>2021-07-02T14:21:07Z</time>
      </trkpt>
      <trkpt lat="44.85899" lon="4.34156">
        <ele>838.36</ele>
        <time>2021-07-02T14:21:09Z</time>
      </trkpt>
      <trkpt lat="44.85898" lon="4.34159">
        <ele>838.26</ele>
        <time>2021-07-02T14:21:11Z</time>
      </trkpt>
      <trkpt lat="44.85898" lon="4.34163">
        <ele>838.16</ele>
        <time>2021-07-02T14:21:13Z</time>
      </trkpt>
      <trkpt lat="44.85898" lon="4.34167">
        <ele>838.01</ele>
        <time>2021-07-02T14:21:16Z</time>
      </trkpt>
      <trkpt lat="44.85899" lon="4.34172">
        <ele>837.86</ele>
        <time>2021-07-02T14:21:19Z</time>
      </trkpt>
      <trkpt lat="44.859" lon="4.34174">
        <ele>837.77</ele>
        <time>2021-07-02T14:21:21Z</time>
      </trkpt>
      <trkpt lat="44.859" lon="4.34177">
        <ele>837.67</ele>
        <time>2021-07-02T14:21:23Z</time>
      </trkpt>
      <trkpt lat="44.85898" lon="4.34179">
        <ele>837.6</ele>
        <time>2021-07-02T14:21:36Z</time>
      </trkpt>
      <trkpt lat="44.85896" lon="4.34179">
        <ele>837.33</ele>
        <time>2021-07-02T14:22:00Z</time>
      </trkpt>
      <trkpt lat="44.85897" lon="4.34182">
        <ele>836.88</ele>
        <time>2021-07-02T14:22:07Z</time>
      </trkpt>
      <trkpt lat="44.85898" lon="4.34183">
        <ele>836.8</ele>
        <time>2021-07-02T14:22:08Z</time>
      </trkpt>
      <trkpt lat="44.859" lon="4.34185">
        <ele>836.63</ele>
        <time>2021-07-02T14:22:10Z</time>
      </trkpt>
      <trkpt lat="44.85902" lon="4.34187">
        <ele>836.47</ele>
        <time>2021-07-02T14:22:12Z</time>
      </trkpt>
      <trkpt lat="44.85904" lon="4.34188">
        <ele>836.31</ele>
        <time>2021-07-02T14:22:14Z</time>
      </trkpt>
      <trkpt lat="44.85905" lon="4.34191">
        <ele>836.16</ele>
        <time>2021-07-02T14:22:16Z</time>
      </trkpt>
      <trkpt lat="44.85907" lon="4.34192">
        <ele>836.01</ele>
        <time>2021-07-02T14:22:18Z</time>
      </trkpt>
      <trkpt lat="44.85909" lon="4.34194">
        <ele>835.86</ele>
        <time>2021-07-02T14:22:20Z</time>
      </trkpt>
      <trkpt lat="44.85911" lon="4.34197">
        <ele>835.71</ele>
        <time>2021-07-02T14:22:22Z</time>
      </trkpt>
      <trkpt lat="44.85912" lon="4.34199">
        <ele>835.57</ele>
        <time>2021-07-02T14:22:24Z</time>
      </trkpt>
      <trkpt lat="44.85913" lon="4.34203">
        <ele>835.43</ele>
        <time>2021-07-02T14:22:26Z</time>
      </trkpt>
      <trkpt lat="44.85915" lon="4.34206">
        <ele>835.29</ele>
        <time>2021-07-02T14:22:28Z</time>
      </trkpt>
      <trkpt lat="44.85916" lon="4.34209">
        <ele>835.16</ele>
        <time>2021-07-02T14:22:30Z</time>
      </trkpt>
      <trkpt lat="44.85918" lon="4.34213">
        <ele>835.03</ele>
        <time>2021-07-02T14:22:32Z</time>
      </trkpt>
      <trkpt lat="44.8592" lon="4.34216">
        <ele>834.83</ele>
        <time>2021-07-02T14:22:35Z</time>
      </trkpt>
      <trkpt lat="44.85921" lon="4.34219">
        <ele>834.71</ele>
        <time>2021-07-02T14:22:37Z</time>
      </trkpt>
      <trkpt lat="44.85922" lon="4.34222">
        <ele>834.52</ele>
        <time>2021-07-02T14:22:40Z</time>
      </trkpt>
      <trkpt lat="44.85923" lon="4.34225">
        <ele>834.4</ele>
        <time>2021-07-02T14:22:42Z</time>
      </trkpt>
      <trkpt lat="44.85924" lon="4.34229">
        <ele>834.27</ele>
        <time>2021-07-02T14:22:44Z</time>
      </trkpt>
      <trkpt lat="44.85925" lon="4.34231">
        <ele>834.15</ele>
        <time>2021-07-02T14:22:46Z</time>
      </trkpt>
      <trkpt lat="44.85927" lon="4.34234">
        <ele>834.03</ele>
        <time>2021-07-02T14:22:48Z</time>
      </trkpt>
      <trkpt lat="44.85928" lon="4.34237">
        <ele>833.85</ele>
        <time>2021-07-02T14:22:51Z</time>
      </trkpt>
      <trkpt lat="44.8593" lon="4.34241">
        <ele>833.67</ele>
        <time>2021-07-02T14:22:54Z</time>
      </trkpt>
      <trkpt lat="44.85932" lon="4.34244">
        <ele>833.56</ele>
        <time>2021-07-02T14:22:56Z</time>
      </trkpt>
      <trkpt lat="44.85933" lon="4.34247">
        <ele>833.45</ele>
        <time>2021-07-02T14:22:58Z</time>
      </trkpt>
      <trkpt lat="44.85933" lon="4.3425">
        <ele>833.34</ele>
        <time>2021-07-02T14:23:00Z</time>
      </trkpt>
      <trkpt lat="44.85933" lon="4.34253">
        <ele>833.13</ele>
        <time>2021-07-02T14:23:04Z</time>
      </trkpt>
      <trkpt lat="44.85933" lon="4.34258">
        <ele>832.97</ele>
        <time>2021-07-02T14:23:07Z</time>
      </trkpt>
      <trkpt lat="44.85933" lon="4.34261">
        <ele>832.78</ele>
        <time>2021-07-02T14:23:11Z</time>
      </trkpt>
      <trkpt lat="44.85932" lon="4.34265">
        <ele>832.59</ele>
        <time>2021-07-02T14:23:15Z</time>
      </trkpt>
      <trkpt lat="44.85931" lon="4.34268">
        <ele>832.5</ele>
        <time>2021-07-02T14:23:17Z</time>
      </trkpt>
      <trkpt lat="44.8593" lon="4.34271">
        <ele>832.42</ele>
        <time>2021-07-02T14:23:19Z</time>
      </trkpt>
      <trkpt lat="44.85928" lon="4.34275">
        <ele>832.33</ele>
        <time>2021-07-02T14:23:21Z</time>
      </trkpt>
      <trkpt lat="44.85927" lon="4.34279">
        <ele>832.24</ele>
        <time>2021-07-02T14:23:23Z</time>
      </trkpt>
      <trkpt lat="44.85925" lon="4.34281">
        <ele>832.16</ele>
        <time>2021-07-02T14:23:25Z</time>
      </trkpt>
      <trkpt lat="44.85923" lon="4.34283">
        <ele>832.08</ele>
        <time>2021-07-02T14:23:27Z</time>
      </trkpt>
      <trkpt lat="44.85921" lon="4.34284">
        <ele>832</ele>
        <time>2021-07-02T14:23:29Z</time>
      </trkpt>
    </trkseg>
  </trk>
</gpx>